     2              OBSERVATION DATA    GPS                 RINEX VERSION / TYPE
ASRINEXO V2.2.0 UX USGS 25-JAN-94 11:07                     PGM / RUN BY / DATE
                                                            COMMENT
Original Marker Name: nrid Northridge_LS_6172-1992_USGS     COMMENT
Campaign Name: USGS-Northridge                              COMMENT
4-Character Station Name: NRID                              COMMENT
6-Character Antenna Code: ASHP12                            COMMENT
Vertical Measurement Point: EGP                             COMMENT
Vertical Offset to Rinex Ref. Point: 0.0593                 COMMENT
Radial Measurement Point: EGP                               COMMENT
Radial Offset to Rinex Ref. Point: 0.1425                   COMMENT
Antenna Height from Field Measurement: 1.4150 m             COMMENT
Additional Antenna Identification Info.:                    COMMENT
Ashtech L1/L2 Revision B                                    COMMENT
Original XYZ: -2516246.4900 -4636599.6900 3573439.0100      COMMENT
New XYZ position is based on association with SCEC monument COMMENT
E1E9I1G4+0011. Position of that monument is believed to be  COMMENT
valid to within 1 m horizontally; vertical accuracy         COMMENT
should be no worse than 3-times this value.                 COMMENT
                                                            COMMENT
Revised Rinex header created by UCSD GPS archive for        COMMENT
GSAC on 31-Aug-1999 (1999:243) 18:04:09 GMT                 COMMENT
For assistance contact dagnew@ucsd.edu or hjohnson@ucsd.edu COMMENT
                                                            COMMENT
NRID NORTHRIDGE_LS_6172-1992_USGS                           MARKER NAME
                                                            MARKER NUMBER
GDH US GEOLOGICAL SURVEY                                    OBSERVER / AGENCY
99 ASHTECH L-XII 7A                                         REC # / TYPE / VERS
36 ASHTECH GEODETIC P                                       ANT # / TYPE
 -2523366.0000 -4636803.0000  3567951.0000                  APPROX POSITION XYZ
        1.3485        0.0000        0.0000                  ANTENNA: DELTA H/E/N
     1     2     0                                          WAVELENGTH FACT L1/2
     3    C1    L1    L2                                    # / TYPES OF OBSERV
    30                                                      INTERVAL
  1994     1    22    15    54    0.000000                  TIME OF FIRST OBS
  1994     1    22    22    30   30.000000                  TIME OF LAST OBS
                                                            END OF HEADER
 94  1 22 15 54  0.0000000  0  1  1
  20667575.105    17002439.35519     57832.247
 94  1 22 15 54 30.0000000  0  2  1 15
  20672305.591    17027295.851 9     77204.561
  23591371.653     -401747.71116   -263351.247 1
 94  1 22 15 55  0.0000000  0  3  1 21 15
  20677103.139    17052523.823 9     96860.520
  21368432.822    -6586346.09217     65345.969
  23570807.450     -509808.128 6   -347554.255 1
 94  1 22 15 55 30.0000000  0  5  1 31 28 21 15
  20682049.535    17078522.455 9    117118.784 1
  23094585.871    -1127018.46616     75602.727 1
  23475912.224     7316473.22615    146642.549 1
  21373673.044    -6558825.865 8     86791.529
  23550350.422     -617314.479 6   -431325.418 2
 94  1 22 15 56  0.0000000  0  6  1 31 28 25 21 15
  20687189.387    17105520.139 9    138153.474 4
  23102175.057    -1087124.671 6    106688.723 2
  23491922.281     7400589.662 5    212187.749 1
  23098308.214     -283243.62416   -226159.447
  21379071.946    -6530443.277 8    108907.853 2
  23530041.551     -724056.274 6   -514500.836 2
 94  1 22 15 56 30.0000000  0  7  1 23 31 28 25 21 15
  20692535.915    17133614.935 9    160045.516 6
  24019878.204    11258958.09815    132614.919
  23109979.134    -1046134.873 6    138628.766 2
  23508094.015     7485540.623 5    278383.224 1
  23079334.619     -382920.564 6   -303830.803 1
  21384651.774    -6501123.924 8    131754.106 4
  23509897.746     -829950.293 6   -597015.677 2
 94  1 22 15 57  0.0000000  0  7  1 23 31 28 25 21 15
  20698093.108    17162828.938 9    182809.671 7
  24031526.041    11320158.689 4    180303.417 1
  23117984.133    -1004023.248 6    171443.019 2
  23524429.556     7571345.276 5    345243.949 2
  23060535.084     -481702.354 6   -380803.600 2
  21390409.917    -6470871.797 8    155327.171 5
  23489907.046     -934977.066 6   -678854.710 2
 94  1 22 15 57 30.0000000  0  7  1 23 31 28 25 21 15
  20703858.897    17193128.426 9    206419.646 8
  24043334.176    11382163.407 5    228618.695 1
  23126212.087     -960808.120 6    205117.063 2
  23540909.957     7657993.027 5    412761.580 2
  23041913.475     -579603.993 7   -457090.608 2
  21396336.964    -6439714.891 8    179605.256 5
  23470085.908    -1039151.319 6   -760029.481 2
 94  1 22 15 58  0.0000000  0  7  1 23 31 28 25 21 15
  20709820.659    17224461.296 9    230834.864 9
  24055283.963    11444961.432 6    277552.152 2
  23134640.272     -916530.346 6    239619.223 2
  23557549.968     7745448.986 5    480909.017 2
  23023440.264     -676666.993 6   -532724.105 2
  21402433.484    -6407707.794 8    204545.839 6
  23450412.657    -1142505.738 6   -840565.357 3
 94  1 22 15 58 30.0000000  0  7  1 23 31 28 25 21 15
  20715969.912    17256760.626 9    256003.158 9
  24067375.792    11508517.765 6    327076.432 2
  23143256.307     -871229.638 6    274918.435 2
  23574342.602     7833672.549 5    549654.593 2
  23005122.555     -772923.387 6   -607729.087 3
  21408670.516    -6374900.938 7    230109.590 6
  23430890.682    -1245071.658 6   -920486.857 2
 94  1 22 15 59  0.0000000  0  7  1 23 31 28 25 21 15
  20722285.520    17289964.467 9    281876.279 9
  24079607.355    11572775.101 6    377147.062 2
  23152064.179     -824955.696 6    310975.954 2
  23591259.381     7922602.330 5    618950.429 2
  22986946.318     -868429.831 7   -682149.664 3
  21415059.423    -6341338.562 8    256262.071 6
  23411519.113    -1346891.515 6   -999827.046 2
 94  1 22 15 59 30.0000000  0  7  1 23 31 28 25 21 15
  20728766.883    17324020.062 9    308413.077 9
  24091949.271    11637659.049 6    427705.868 2
  23161044.493     -777766.066 6    347747.076 2
  23608302.013     8012178.012 5    688749.575 2
  22968911.374     -963231.603 7   -756021.159 3
  21421585.455    -6307051.532 8    282979.221 6
  23392274.805    -1448005.762 6  -1078617.337 3
 94  1 22 16  0  0.0000000  0  7  1 23 31 28 25 21 15
  20735402.310    17358904.519 9    335595.775 9
  24104409.215    11703109.067 5    478705.817 2
  23170185.884     -729710.672 6    385192.823 2
  23625454.518     8102332.225 5    758999.547 2
  22950989.271    -1057382.467 7   -829385.439 3
  21428244.505    -6272069.722 8    310237.752 6
  23373161.297    -1548456.158 6  -1156890.430 2
 94  1 22 16  0 30.0000000  0  7  1 23 31 28 25 21 15
  20742198.964    17394595.224 9    363406.693 9
  24116953.401    11769060.450 5    530096.446 2
  23179491.982     -680821.650 6    423288.115 2
  23642716.748     8193016.247 6    829662.308 2
  22933201.085    -1150905.701 7   -902260.667 3
  21435027.279    -6236417.400 8    338018.763 6
  23354169.745    -1648276.534 6  -1234672.491 3
 94  1 22 16  1  0.0000000  0  7  1 23 31 28 25 21 15
  20749140.659    17431079.102 9    391835.679 9
  24129586.805    11835464.230 6    581839.525 2
  23188955.230     -631126.627 6    462011.422 2
  23660069.125     8284186.455 6    900703.990 2
  22915514.499    -1243834.104 7   -974672.378 3
  21441931.050    -6200129.386 8    366295.115 6
  23335285.878    -1747504.822 6  -1311993.213 3
 94  1 22 16  1 30.0000000  0  7  1 23 31 28 25 21 15
  20756232.699    17468351.752 9    420879.290 9
  24142308.288    11902301.404 6    633920.359 2
  23198553.536     -580639.660 5    501351.898 2
  23677506.583     8375836.491 5    972119.522 2
  22897938.147    -1336181.647 6  -1046631.486 3
  21448953.958    -6163222.508 8    395053.705 6
  23316512.994    -1846161.139 6  -1388868.292 3
 94  1 22 16  2  0.0000000  0  7  1 23 31 28 25 21 15
  20763470.918    17506390.485 9    450519.845 9
  24155104.329    11969558.682 5    686328.520 2
  23208314.658     -529380.937 6    541293.686 2
  23695034.309     8467947.367 5   1043894.112 2
  22880476.256    -1427960.434 7  -1118147.389 3
  21456091.207    -6125722.257 8    424274.655 6
  23297841.620    -1944268.433 6  -1465315.519 3
 94  1 22 16  2 30.0000000  0  7  1 23 31 28 25 21 15
  20770845.003    17545148.422 9    480720.832 9
  24167989.439    12037213.519 6    739046.528 2
  23218213.775     -477379.014 6    581814.676 2
  23712654.011     8560515.666 5   1116025.220 3
  22863117.913    -1519182.344 6  -1189229.366 3
  21463333.294    -6087658.443 7    453934.753 6
  23279279.610    -2041847.056 6  -1541350.817 3
 94  1 22 16  3  0.0000000  0  7  1 23 31 28 25 21 15
  20778352.886    17584596.804 9    511459.812 9
  24180933.428    12105261.961 5    792071.218 2
  23228235.087     -424675.907 5    622881.978 2
  23730356.366     8653533.777 5   1188506.810 3
  22845855.953    -1609885.414 7  -1259907.065 4
  21470677.489    -6049063.079 8    484009.052 6
  23260800.343    -2138916.621 6  -1616989.414 3
 94  1 22 16  3 30.0000000  0  7  1 23 31 28 25 21 15
  20785984.852    17624688.136 9    542699.802 9
  24193960.610    12173699.732 5    845399.213 2
  23238391.966     -371321.322 6    664456.918 2
  23748131.211     8746980.081 5   1261322.020 3
  22828693.524    -1700096.065 7  -1330201.057 4
  21478117.049    -6009971.400 8    514470.056 6
  23242425.164    -2235499.049 6  -1692248.474 2
 94  1 22 16  4  0.0000000  0  7  1 23 31 28 25 21 15
  20793725.853    17665377.163 9    574405.532 9
  24207051.347    12242514.845 5    899021.327 2
  23248660.038     -317353.695 6    706509.596 2
  23765992.965     8840818.064 5   1334442.471 3
  22811616.297    -1789835.425 7  -1400127.785 4
  21485643.339    -5970414.270 8    545293.786 6
  23224133.927    -2331618.708 6  -1767146.966 2
 94  1 22 16  4 30.0000000  0  7  1 23 31 28 25 21 15
  20801577.807    17706647.027 9    606563.870 9
  24220217.962    12311691.301 5    952924.953 2
  23259039.932     -262795.057 6    749022.727 2
  23783923.402     8935027.044 5   1407852.003 3
  22794617.375    -1879129.863 6  -1469707.855 4
  21493258.817    -5930419.853 8    576458.259 6
  23205930.978    -2427290.673 6  -1841696.491 2
 94  1 22 16  5  0.0000000  0  7  1 23 31 28 25 21 15
  20809545.092    17748507.757 9    639182.600 9
  24233454.578    12381231.194 5   1007111.799 2
  23269540.762     -207631.508 5    792007.262 2
  23801908.342     9029577.331 4   1481527.471 3
  22777714.566    -1967983.767 7  -1538944.618 4
  21500952.930    -5889991.480 8    607960.825 6
  23187809.633    -2522519.700 6  -1915900.967 2
 94  1 22 16  5 30.0000000  0  7  1 23 31 28 25 21 15
  20817620.481    17790947.284 9    672252.345 9
  24246751.903    12451119.735 5   1061570.341 2
  23280153.595     -151852.290 6    835471.587 2
  23819951.830     9124448.611 4   1555453.061 3
  22760888.715    -2056383.394 6  -1607827.426 5
  21508730.056    -5849114.667 8    639812.875 6
  23169771.511    -2617306.512 6  -1989760.785 2
 94  1 22 16  6  0.0000000  0  7  1 23 31 28 25 21 15
  20825799.869    17833931.736 9    705746.713 9
  24260108.077    12521299.591 4   1116255.863 2
  23290883.377      -95480.064 6    879397.924 2
  23838063.222     9219589.922 4   1629589.034 3
  22744153.370    -2144350.688 7  -1676373.351 5
  21516589.415    -5807796.991 8    672008.439 6
  23151808.427    -2711682.843 6  -2063300.810 2
 94  1 22 16  6 30.0000000  0  7  1 23 31 28 25 21 15
  20834083.674    17877449.986 9    739657.028 9
  24273512.847    12591739.850 4   1171144.309 2
  23301717.127      -38529.928 6    923774.615 3
  23856218.594     9314975.285 4   1703915.242 3
  22727493.813    -2231887.850 7  -1744584.109 5
  21524536.224    -5766042.263 8    704544.574 6
  23133928.804    -2805656.305 6  -2136526.897 2
 94  1 22 16  7  0.0000000  0  7  1 23 31 28 25 21 15
  20842461.794    17921484.058 9    773969.287 9
  24286957.339    12662435.219 4   1226231.512 2
  23312659.821       18984.647 6    968591.135 3
  23874418.964     9410589.160 4   1778419.468 3
  22710917.719    -2318983.905 7  -1812451.140 5
  21532564.546    -5723849.461 8    737422.063 6
  23116118.854    -2899228.525 6  -2209440.282 3
 94  1 22 16  7 30.0000000  0  7  1 23 31 28 25 21 15
  20850936.897    17966012.262 9    808666.568 9
  24300455.015    12733375.025 4   1281509.225 2
  23323704.835       77021.712 6   1013814.787 2
  23892644.876     9506418.161 4   1853091.334 3
  22694428.774    -2405646.396 6  -1879980.332 5
  21540668.535    -5681236.597 7    770626.869 6
  23098396.053    -2992408.197 6  -2282047.808 2
 94  1 22 16  8  0.0000000  0  7  1 23 31 28 25 21 15
  20859508.263    18011058.380 9    843767.435 9
  24314002.996    12804569.978 4   1336985.735 2
  23334854.746      135583.022 6   1059446.913 2
  23910919.025     9602470.849 4   1927937.527 3
  22678023.561    -2491874.999 6  -1947171.421 5
  21548861.833    -5638212.202 8    804152.340 6
  23080739.117    -3085183.866 6  -2354340.555 3
 94  1 22 16  8 30.0000000  0  7  1 23 31 28 25 21 15
  20868180.629    18056623.024 9    879272.330 9
  24327603.531    12876023.657 4   1392663.760 2
  23346093.396      194663.518 6   1105483.619 2
  23929252.054     9698752.839 5   2002962.355 2
  22661687.300    -2577694.535 6  -2014043.764 5
  21557120.396    -5594815.253 8    837968.133 6
  23063158.328    -3177565.502 6  -2426326.206 3
 94  1 22 16  9  0.0000000  0  7  1 23 31 28 25 21 15
  20876945.571    18102705.019 9    915180.373 9
  24341234.074    12947741.665 3   1448547.915 2
  23357435.294      254252.990 6   1151916.893 3
  23947622.556     9795269.328 5   2078169.946 2
  22645432.613    -2663129.672 7  -2080616.566 5
  21565444.284    -5551061.485 7    872061.963 6
  23045649.849    -3269565.379 6  -2498014.498 2
 94  1 22 16  9 30.0000000  0  7  1 23 31 28 25 21 15
  20885815.591    18149306.914 9    951493.526 9
  24354950.449    13019722.761 4   1504636.988 2
  23368867.340      314342.790 6   1198740.070 2
  23966025.496     9892019.159 5   2153559.423 2
  22629243.191    -2748196.817 7  -2146902.637 5
  21573837.573    -5506944.770 7    906438.588 6
  23028217.876    -3361189.263 6  -2569409.689 3
 94  1 22 16 10  0.0000000  0  7  1 23 31 28 25 21 15
  20894777.317    18196415.446 9    988201.466 9
  24368707.445    13091953.597 5   1560920.644 2
  23380399.067      374936.182 6   1245955.656 2
  23984485.756     9989000.969 5   2229129.488 2
  22613127.637    -2832889.043 7  -2212896.551 5
  21582302.783    -5462468.918 7    941095.057 6
  23010849.251    -3452442.359 6  -2640515.990 3
 94  1 22 16 10 30.0000000  0  7  1 23 31 28 25 21 15
  20903833.927    18244004.047 9   1025283.486 9
  24382498.647    13164442.399 5   1617405.285 2
  23392016.354      436001.731 6   1293539.144 2
  24002983.490    10086201.431 5   2304870.089 2
  22597082.385    -2917200.712 7  -2278593.908 5
  21590832.987    -5417642.492 7    976024.737 6
  22993548.677    -3543331.734 6  -2711338.897 3
 94  1 22 16 11  0.0000000  0  7  1 23 31 28 25 21 15
  20912977.147    18292038.506 9   1062712.929 9
  24396327.594    13237171.608 5   1674077.308 2
  23403723.789      497506.662 6   1341465.005 2
  24021519.958    10183596.067 5   2380761.846 2
  22581108.574    -3001118.440 6  -2343984.310 5
  21599437.750    -5372466.777 8   1011226.590 6
  22976320.504    -3633859.641 6  -2781880.072 3
 94  1 22 16 11 30.0000000  0  7  1 23 31 28 25 21 15
  20922196.275    18340490.992 9   1100468.107 9
  24410199.231    13310121.104 5   1730921.031 2
  23415509.020      559443.488 6   1389727.415 2
  24040088.353    10281169.240 5   2456792.788 2
  22565225.929    -3084630.291 7  -2409058.416 5
  21608092.069    -5326953.129 7   1046691.726 6
  22959163.532    -3724026.252 6  -2852139.791 3
 94  1 22 16 12  0.0000000  0  7  1 23 31 28 25 21 15
  20931491.400    18389345.349 9   1138536.427 9
  24424134.334    13383277.172 5   1787925.698 1
  23427380.352      621821.162 6   1438333.325 2
  24058682.141    10378913.105 5   2532956.813 2
  22549408.040    -3167735.780 7  -2473815.908 5
  21616810.603    -5281119.119 7   1082406.525 6
  22942079.019    -3813831.220 6  -2922117.691 3
 94  1 22 16 12 30.0000000  0  7  1 23 31 28 25 21 15
  20940865.490    18438591.089 9   1176909.728 9
  24438098.786    13456632.459 5   1845085.534 1
  23439334.546      684632.669 5   1487277.310 2
  24077317.060    10476807.232 5   2609237.747 2
  22533661.291    -3250461.931 6  -2538277.777 5
  21625596.651    -5234968.840 8   1118367.765 6
  22925061.330    -3903277.059 6  -2991815.738 3
 94  1 22 16 13  0.0000000  0  7  1 23 31 28 25 21 15
  20950311.621    18488227.910 9   1215587.748 9
  24452086.203    13530155.614 5   1902376.226 2
  23451372.593      747882.472 6   1536562.814 2
  24095969.068    10574831.396 5   2685620.166 2
  22517986.732    -3332836.801 7  -2602465.943 5
  21634437.021    -5188498.612 7   1154578.301 6
  22908103.720    -3992369.723 6  -3061238.609 3
 94  1 22 16 13 30.0000000  0  7  1 23 31 28 25 21 15
  20959835.997    18538287.155 9   1254594.952 9
  24466120.597    13603857.035 5   1959805.798 2
  23463499.078      811590.770 6   1586205.603 2
  24114648.536    10672968.276 5   2762090.331 1
  22502382.685    -3414874.862 7  -2666391.610 5
  21643347.242    -5141696.202 7   1191047.704 6
  22891216.231    -4081105.542 6  -3130383.390 3
 94  1 22 16 14  0.0000000  0  7  1 23 31 28 25 21 15
  20969442.487    18588778.641 9   1293938.952 9
  24480177.086    13677743.512 5   2017379.578 2
  23475701.020      875733.271 5   1636186.666 2
  24133330.583    10771201.402 5   2838635.568 2
  22486830.051    -3496595.751 7  -2730070.169 5
  21652316.103    -5094572.655 8   1227767.321 6
  22874397.154    -4169488.200 6  -3199252.984 3
 94  1 22 16 14 30.0000000  0  7  1 23 31 28 25 21 15
  20979135.976    18639702.842 9   1333620.133 9
  24494258.458    13751821.427 5   2075102.492 2
  23487985.676      940279.028 5   1686482.093 2
  24152033.855    10869524.395 4   2915250.853 1
  22471340.045    -3577992.848 7  -2793496.444 5
  21661337.098    -5047133.595 7   1264732.803 6
  22857654.255    -4257518.334 6  -3267847.877 3
 94  1 22 16 15  0.0000000  0  7  1 23 31 28 25 21 15
  20988906.452    18691057.793 9   1373636.971 9
  24508389.595    13826096.277 5   2132978.954 2
  23500343.541     1005223.343 5   1737087.900 2
  24170773.672    10967946.510 5   2991943.215 1
  22455915.723    -3659040.598 7  -2856650.486 5
  21670427.435    -4999381.453 8   1301942.248 6
  22840963.220    -4345195.842 6  -3336167.985 3
 94  1 22 16 15 30.0000000  0  7  1 23 31 28 25 21 15
  20998757.723    18742827.424 9   1413976.920 9
  24522571.397    13900581.160 5   2191018.990 2
  23512774.765     1070562.996 6   1788001.902 2
  24189528.028    11066485.530 4   3068726.776 1
  22440565.690    -3739704.767 7  -2919505.620 5
  21679572.155    -4951326.546 7   1339387.620 6
  22824349.232    -4432518.474 6  -3404211.593 4
 94  1 22 16 16  0.0000000  0  7  1 23 31 28 25 21 15
  21008684.690    18794984.727 9   1454618.969 9
  24536781.470    13975267.630 4   2249216.201 2
  23525281.507     1136277.413 6   1839207.879 2
  24208309.036    11165165.191 4   3145619.868 1
  22425290.874    -3819973.174 7  -2982052.386 5
  21688769.937    -4902978.873 7   1377061.098 6
  22807802.097    -4519488.470 7  -3471980.408 4
 94  1 22 16 16 30.0000000  0  7  1 23 31 28 25 21 15
  21018680.700    18847512.376 9   1495549.574 9
  24551037.231    14050137.194 4   2307556.001 2
  23537865.805     1202378.152 6   1890714.843 2
  24227110.580    11263978.285 4   3222616.997 2
  22410092.086    -3899836.873 7  -3044283.811 5
  21698037.181    -4854318.758 7   1414978.061 6
  22791313.932    -4606110.162 7  -3539477.812 4
 94  1 22 16 17  0.0000000  0  7  1 23 31 28 25 21 15
  21028745.123    18900405.961 9   1536765.350 9
  24565323.570    14125170.023 4   2366023.025 2
  23550511.770     1268873.114 5   1942529.077 2
  24245927.084    11362913.069 4   3299708.930 2
  22394972.353    -3979297.758 7  -3106201.330 5
  21707350.864    -4805335.673 7   1453146.690 6
  22774898.136    -4692387.395 7  -3606706.843 4
 94  1 22 16 17 30.0000000  0  7  1 23 31 28 25 21 15
  21038880.176    18953672.738 9   1578271.912 9
  24579619.773    14200363.079 5   2424614.984 2
  23563235.142     1335743.382 5   1994635.667 2
  24264775.605    11461952.700 4   3376882.521 2
  22379923.851    -4058372.968 7  -3167818.327 5
  21716733.948    -4756030.955 7   1491565.922 6
  22758541.969    -4778323.039 7  -3673669.671 4
 94  1 22 16 18  0.0000000  0  7  1 23 31 28 25 21 15
  21049090.148    19007321.510 9   1620076.132 9
  24593967.601    14275710.589 4   2483327.169 2
  23576029.414     1402989.142 6   2047034.928 2
  24283644.243    11561070.730 5   3454117.260 2
  22364945.500    -4137084.136 7  -3229151.711 5
  21726176.091    -4706405.531 7   1530235.046 6
  22742255.504    -4863915.912 7  -3740365.406 4
 94  1 22 16 18 30.0000000  0  7  1 23 31 28 25 21 15
  21059374.678    19061359.992 9   1662184.012 8
  24608320.734    14351213.651 4   2542160.670 2
  23588898.515     1470621.977 6   2099735.791 2
  24302504.636    -4415428.77115     38518.142
  22350036.162    -4215430.221 7  -3290200.548 5
  21735681.191    -4656457.305 7   1569155.734 5
  22726034.514    -4949160.946 7  -3806790.124 3
 94  1 22 16 19  0.0000000  0  7  1 23 31 28 25 21 15
  21069729.929    19115789.116 9   1704596.303 8
  24622728.250    14426876.771 4   2601118.771 2
  23601849.370     1538625.862 6   2152725.772 2
  24321397.857    -4316210.260 5    115827.344
  22335194.457    -4293414.059 7  -3350967.154 5
  21745244.271    -4606218.112 7   1608303.117 5
  22709870.004    -5034054.553 6  -3872940.996 3
 94  1 22 16 19 30.0000000  0  7  1 23 31 28 25 21 15
  21080160.728    19170597.203 9   1747303.889 8
  24637149.856    14502706.664 3   2660206.964 2
  23614861.292     1606999.451 6   2206003.824 2
  24340276.777    -4216957.266 5    193167.911
  22320425.421    -4371052.786 7  -3411464.846 4
  21754851.690    -4555714.325 7   1647656.728 5
  22693782.421    -5118594.889 7  -3938816.570 3
 94  1 22 16 20  0.0000000  0  7  1 23 31 28 25 21 15
  21090657.781    19225758.388 9   1790286.609 7
  24651618.530    14578684.114 4   2719410.075 2
  23627933.862     1675742.690 6   2259569.939 2
  24359177.642    -4117673.070 5    270532.105 1
  22305715.235    -4448339.518 7  -3471688.253 4
  21764518.288    -4504953.482 7   1687210.620 4
  22677767.808    -5202783.312 6  -4004417.951 3
 94  1 22 16 20 30.0000000  0  7  1 23 31 28 25 21 15
  21101218.660    19281260.525 9   1833535.005 7
  24666094.518    14654808.682 4   2778727.778 2
  23641082.069     1744832.248 6   2313405.870 2
  24378072.542    -4018344.011 5    347931.291 1
  22291081.615    -4525257.744 7  -3531624.518 4
  21774226.856    -4453930.315 7   1726968.884 4
  22661819.359    -5286618.507 7  -4069744.054 2
 94  1 22 16 21  0.0000000  0  7  1 23 31 28 25 21 15
  21111842.256    19337093.721 9   1877041.360 7
  24680626.718    14731085.462 5   2838164.234 1
  23654289.846     1814255.090 6   2367501.572 2
  24396996.341    -3918953.846 5    425378.047 1
  22276513.740    -4601801.760 7  -3591269.194 4
  21783977.996    -4402643.185 7   1766932.846 4
  22645927.810    -5370098.156 6  -4134793.112 2
 94  1 22 16 21 30.0000000  0  7  1 23 31 28 25 21 15
  21122531.236    19393256.472 9   1920804.523 7
  24695167.221    14807518.331 5   2897722.051 1
  23667562.587     1884006.954 6   2421853.634 2
  24415912.585    -3819497.871 5    502876.131 1
  22262021.623    -4677960.612 7  -3650613.740 4
  21793794.760    -4351064.254 7   1807124.225 4
  22630116.426    -5453221.915 6  -4199564.884 2
 94  1 22 16 22  0.0000000  0  7  1 23 31 28 25 21 15
  21133279.725    19449745.068 9   1964821.615 7
  24709731.589    14884104.230 4   2957399.391 1
  23680902.362     1954067.077 6   2476445.833 2
  24434870.141    -3719970.593 3    580429.784 2
  22247602.955    -4753722.056 7  -3709648.611 4
  21803669.534    -4299180.936 7   1847552.762 4
  22614360.294    -5535993.287 6  -4264062.089 2
 94  1 22 16 22 30.0000000  0  7  1 23 31 28 25 21 15
  21144091.890    19506569.094 9   2009100.039 7
  24724335.319    14960858.115 4   3017207.443 1
  23694288.006     2024438.373 6   2531280.587 2
  24453811.509    -3620381.036 5    658031.834 2
  22233256.747    -4829097.826 7  -3768382.963 5
  21813600.279    -4247000.009 7   1888213.196 4
  22598675.872    -5618410.349 6  -4328283.115 2
 94  1 22 16 23  0.0000000  0  7  1 23 31 28 25 21 15
  21154972.317    19563728.698 9   2053639.973 8
  24738983.718    15037779.750 4   3077146.384 1
  23707744.220     2095131.418 5   2586366.067 2
  24472772.902    -3520751.461 5    735665.245 2
  22218988.904    -4904097.897 7  -3826824.564 5
  21823582.948    -4194527.780 7   1929100.633 4
  22583061.662    -5700470.125 6  -4392225.830 2
 94  1 22 16 23 30.0000000  0  7  1 23 31 28 25 21 15
  21165912.614    19621230.674 9   2098446.692 8
  24753644.349    15114869.909 4   3137216.505 1
  23721259.854     2166147.908 5   2641703.482 2
  24491728.569    -3421103.278 5    813313.102 2
  22204785.367    -4978731.545 7  -3884980.637 5
  21833628.753    -4141767.480 7   1970212.510 4
  22567513.615    -5782171.565 6  -4455889.269 3
 94  1 22 16 24  0.0000000  0  7  1 23 31 28 25 21 15
  21176916.586    19679068.215 9   2143514.874 8
  24768344.522    15192123.010 4   3197413.615 1
  23734838.443     2237489.261 6   2697294.081 2
  24510701.025    -3321446.162 5    890967.831 2
  22190650.482    -5053012.140 7  -3942861.610 5
  21843717.459    -4088742.180 7   2011530.897 5
  22552038.688    -5863513.414 7  -4519272.514 3
 94  1 22 16 24 30.0000000  0  7  1 23 31 28 25 21 15
  21187986.482    19737244.094 8   2188846.715 8
  24783078.632    15269534.089 4   3257733.881 1
  23748468.387     2309155.012 6   2753137.460 2
  24529659.300    -3221798.158 5    968615.566 2
  22176582.332    -5126941.270 7  -4000468.704 5
  21853856.140    -4035462.812 7   2053047.259 5
  22536631.335    -5944492.090 6  -4582372.775 3
 94  1 22 16 25  0.0000000  0  7  1 23 31 28 25 21 15
  21199123.023    19795752.633 9   2234437.778 8
  24797847.367    15347092.479 5   3318168.824 1
  23762165.215     2381129.178 6   2809221.151 2
  24548618.745    -3122163.549 4   1046252.782 2
  22162580.045    -5200510.923 7  -4057795.666 5
  21864042.938    -3981922.178 7   2094767.189 5
  22521287.537    -6025104.552 7  -4645187.659 3
 94  1 22 16 25 30.0000000  0  7  1 23 31 28 25 21 15
  21210319.222    19854588.339 9   2280283.750 8
  24812630.643    15424787.065 5   3378710.071 1
  23775926.828     2453403.249 6   2865538.615 2
  24567576.301    -3022538.006 4   1123882.990 2
  22148650.518    -5273719.469 8  -4114841.259 5
  21874281.270    -3928124.863 7   2136687.138 5
  22506017.278    -6105351.918 7  -4707718.071 3
 94  1 22 16 26  0.0000000  0  7  1 23 31 28 25 21 15
  21221577.807    19913752.049 8   2326385.333 8
  24827423.482    15502614.317 4   3439354.608 1
  23789731.941     2525970.863 6   2922084.733 2
  24586527.111    -2922905.828 4   1201518.297 2
  22134792.612    -5346549.509 8  -4171591.919 5
  21884568.948    -3874060.738 7   2178815.002 5
  22490819.660    -6185226.293 7  -4769957.855 3
 94  1 22 16 26 30.0000000  0  6  1 31 28 25 21 15
  21232896.592    19973238.833 9   2372738.662 9
  23803590.417     2598823.177 5   2978852.626 2
  24605488.445    -2823269.788 5   1279156.684 2
  22121007.045    -5418989.354 7  -4228038.515 6
  21894910.199    -3819710.195 7   2221166.073 5
  22475687.425    -6264724.959 7  -4831904.861 4
 94  1 22 16 27  0.0000000  0  6  1 31 28 25 21 15
  21244279.921    20033043.220 9   2419339.458 9
  23817515.027     2671964.956 6   3035846.240 2
  24624453.795    -2723616.287 4   1356808.649 2
  22107296.307    -5491032.153 8  -4284175.720 6
  21905313.777    -3765052.407 7   2263756.487 5
  22460630.079    -6343844.197 7  -4893556.198 4
 94  1 22 16 27 30.0000000  0  6  1 31 28 25 21 15
  21255717.333    20093160.911 8   2466184.404 9
  23831484.966     2745408.430 6   3093074.766 2
  24643429.669    -2623935.036 5   1434482.201 2
  22093666.063    -5562666.924 8  -4339994.992 6
  21915775.724    -3710075.067 7   2306595.936 5
  22445653.348    -6422578.293 7  -4954907.418 4
 94  1 22 16 28  0.0000000  0  6  1 31 28 25 21 15
  21267218.781    20153581.924 9   2513265.689 9
  23845518.251     2819150.999 5   3150536.478 2
  24662405.782    -2524238.081 5   1512168.069 2
  22080110.947    -5633892.643 8  -4395495.526 6
  21926296.221    -3654771.089 7   2349689.910 5
  22430739.362    -6500928.578 7  -5015959.584 4
 94  1 22 16 28 30.0000000  0  6  1 31 28 25 21 15
  21278767.236    20214288.620 8   2560569.610 8
  23859610.985     2893201.030 6   3208237.882 2
  24681371.732    -2424536.027 5   1589857.840 2
  22066637.944    -5704714.470 8  -4450681.314 6
  21936883.721    -3599147.070 7   2393033.269 5
  22415904.252    -6578893.825 7  -5076711.717 4
 94  1 22 16 29  0.0000000  0  6  1 31 28 25 21 15
  21290376.669    20275274.122 9   2608090.772 9
  23873762.898     2967551.200 6   3266172.968 2
  24700341.609    -2324837.690 5   1667544.724 2
  22053234.014    -5775138.013 8  -4505556.787 6
  21947521.617    -3543227.548 7   2436606.880 5
  22401147.059    -6656477.728 7  -5137166.703 4
 94  1 22 16 29 30.0000000  0  6  1 31 28 25 21 15
  21302030.171    20336532.688 9   2655824.702 8
  23887970.512     3042195.076 6   3324336.971 2
  24719313.735    -2225162.662 5   1745213.450 2
  22039907.280    -5845170.657 8  -4560127.643 6
  21958216.233    -3487035.680 7   2480392.709 5
  22386447.485    -6733682.590 7  -5197326.327 4
 94  1 22 16 30  0.0000000  0  6  1 31 28 25 21 15
  21313741.174    20398072.734 9   2703777.967 8
  23902217.489     3117116.067 6   3382716.958 2
  24738271.321    -2125520.519 4   1822856.549 2
  22026655.434    -5914820.054 8  -4614399.875 6
  21968955.489    -3430596.712 7   2524371.097 5
  22371831.493    -6810508.859 7  -5257190.940 4
 94  1 22 16 30 30.0000000  0  6  1 31 28 25 21 15
  21325507.698    20459906.577 9   2751960.171 8
  23916524.065     3192293.506 5   3441296.693 2
  24757223.901    -2025909.965 4   1900474.998 2
  22013471.071    -5984078.268 8  -4668367.267 6
  21979744.480    -3373928.200 7   2568528.357 5
  22357286.103    -6886958.584 7  -5316762.134 4
 94  1 22 16 31  0.0000000  0  6  1 31 28 25 21 15
  21337336.399    20522049.999 9   2800383.596 8
  23930874.800     3267718.089 5   3500069.039 2
  24776163.349    -1926335.400 4   1978065.518 2
  22000370.321    -6052933.979 8  -4722021.084 6
  21990571.964    -3317019.028 7   2612873.139 5
  22342806.907    -6963029.101 7  -5376037.832 4
 94  1 22 16 31 30.0000000  0  6  1 31 28 25 21 15
  21349223.530    20584512.157 9   2849055.399 8
  23945284.864     3343397.277 5   3559039.822 2
  24795119.946    -1826783.544 4   2055638.333 2
  21987348.685    -6121377.333 8  -4775353.540 6
  22001452.511    -3259852.135 7   2657418.755 5
  22328404.247    -7038705.114 7  -5435006.142 4
 94  1 22 16 32  0.0000000  0  6  1 31 28 25 21 15
  21361166.362    20647295.437 9   2897977.424 8
  23959730.843     3419323.666 5   3618203.143 2
  24814069.347    -1727248.265 5   2133198.120 2
  21974402.538    -6189390.225 7  -4828350.574 6
  22012381.775    -3202410.355 7   2702178.556 5
  22314082.592    -7113975.913 7  -5493658.698 4
 94  1 22 16 32 30.0000000  0  6  1 31 28 25 21 15
  21373163.907    20710331.927 9   2947096.749 8
  23974215.316     3495441.034 6   3677515.349 2
  24832986.911    -1627792.301 5   2210696.110 2
  21961536.225    -6257019.786 8  -4881048.917 6
  22023350.012    -3144731.445 7   2747123.145 5
  22299828.990    -7188890.087 7  -5552033.384 4
 94  1 22 16 33  0.0000000  0  6  1 31 28 25 21 15
  21385199.135    20773596.676 9   2996393.954 8
  23988740.201     3571760.561 6   3736985.087 2
  24851889.275    -1528421.837 5   2288127.493 2
  21948737.125    -6324282.417 8  -4933461.324 6
  22034378.087    -3086809.715 7   2792256.921 4
  22285640.082    -7263439.532 7  -5610123.877 4
 94  1 22 16 33 30.0000000  0  5  1 31 25 21 15
  21397284.698    20837078.210 9   3045860.067 8
  24003293.686     3648263.297 5   3796597.502 2
  21936005.300    -6391188.285 7  -4985595.759 6
  22045438.361    -3028667.777 7   2837562.299 5
  22271521.237    -7337629.139 7  -5667933.941 4
 94  1 22 16 34  0.0000000  0  5  1 31 25 21 15
  21409403.358    20900787.223 9   3095503.441 8
  24017881.407     3724946.402 5   3856350.503 2
  21923343.325    -6457725.984 8  -5037443.299 6
  22056546.361    -2970298.869 7   2883044.549 5
  22257474.971    -7411454.615 7  -5725460.267 4
 94  1 22 16 34 30.0000000  0  5  1 31 25 21 15
  21421573.553    20964729.594 9   3145328.649 8
  24032529.926     3801828.373 5   3916258.534 2
  21910748.474    -6523897.958 7  -5089005.853 6
  22067700.529    -2911688.310 7   2928715.078 4
  22243496.248    -7484906.303 7  -5782695.361 4
 94  1 22 16 35  0.0000000  0  5  1 31 25 21 15
  21433787.128    21028918.861 9   3195346.256 8
  24047190.466     3878923.738 5   3976332.735 2
  21898229.741    -6589696.518 8  -5140277.438 6
  22078908.510    -2852823.732 7   2974583.552 4
  22229592.833    -7557975.072 7  -5839632.048 4
 94  1 22 16 35 30.0000000  0  5  1 31 25 21 15
  21446052.657    21093364.148 9   3245563.342 8
  24061884.914     3956226.237 4   4036568.391 2
  21885783.437    -6655103.645 8  -5191244.015 6
  22090152.885    -2793703.105 7   3020651.539 4
  22215760.139    -7630658.468 7  -5896268.444 4
 94  1 22 16 36  0.0000000  0  5  1 31 25 21 15
  21458359.707    21158040.791 8   3295960.706 8
  24076652.690     4033741.581 4   4096969.917 2
  21873410.613    -6720117.572 8  -5241904.185 6
  22101457.939    -2734317.734 7   3066925.824 4
  22202005.991    -7702954.496 7  -5952603.024 4
 94  1 22 16 36 30.0000000  0  5  1 31 25 21 15
  21470707.049    21222940.341 8   3346531.783 8
  24091436.026     4111482.191 4   4157546.930 2
  21861117.773    -6784728.888 8  -5292250.632 6
  22112802.865    -2674672.557 7   3113402.558 4
  22188319.416    -7774857.268 7  -6008631.153 4
 94  1 22 16 37  0.0000000  0  5  1 31 25 21 15
  21483101.308    21288060.641 8   3397274.846 8
  24106278.840     4189438.224 5   4218291.834 2
  21848901.380    -6848919.281 8  -5342269.117 6
  22124197.887    -2614785.451 7   3160067.808 4
  22174715.974    -7846363.310 7  -6064350.152 4
 94  1 22 16 37 30.0000000  0  5  1 31 25 21 15
  21495533.222    21353397.516 8   3448186.681 8
  24121151.934     4267601.819 5   4279198.454 2
  21836768.450    -6912680.090 8  -5391952.840 6
  22135643.273    -2554668.658 7   3206912.008 4
  22161180.524    -7917473.919 7  -6119761.019 4
 94  1 22 16 38  0.0000000  0  5  1 31 25 21 15
  21508011.004    21418961.495 8   3499275.498 8
  24136068.587     4345975.655 5   4340268.911 2
  21824713.885    -6976005.088 8  -5441296.974 6
  22147123.435    -2494317.339 7   3253938.986 4
  22147729.106    -7988187.215 7  -6174862.263 5
 94  1 22 16 38 30.0000000  0  5  1 31 25 21 15
  21520533.245    21484773.392 8   3550557.471 8
  24151017.498     4424558.587 5   4401502.357 2
  21812752.825    -7038890.155 8  -5490298.306 6
  22158655.882    -2433739.928 7   3301142.127 5
  22134349.099    -8058500.338 7  -6229651.690 5
 94  1 22 16 39  0.0000000  0  5  1 31 25 21 15
  21533105.401    21550836.350 8   3602035.086 8
  24166013.627     4503341.620 5   4462891.621 2
  21800865.245    -7101340.613 8  -5538960.971 6
  22170231.468    -2372921.815 7   3348532.807 5
  22121044.490    -8128406.304 7  -6284123.882 5
 94  1 22 16 39 30.0000000  0  5  1 31 25 21 15
  21545727.623    21617155.497 9   3653712.331 8
  24181040.724     4582324.349 5   4524436.548 2
  21789068.802    -7163358.212 8  -5587286.349 6
  22181844.469    -2311857.649 7   3396115.247 5
  22107821.304    -8197901.987 7  -6338276.353 5
 94  1 22 16 40  0.0000000  0  5  1 31 25 21 15
  21558392.775    21683719.820 9   3705580.618 8
  24196107.603     4661487.711 4   4586122.370 2
  21777344.248    -7224950.077 8  -5635279.980 6
  22193516.678    -2250549.030 7   3443888.148 5
  22094671.417    -8266984.379 7  -6392106.797 5
 94  1 22 16 40 30.0000000  0  5  1 31 25 21 15
  21571101.427    21750513.117 8   3757627.322 8
  24211216.154     4740820.050 4   4647939.758 2
  21765699.590    -7286136.902 8  -5682958.007 6
  22205222.764    -2189000.675 7   3491847.884 4
  22081602.055    -8335652.002 7  -6445614.018 5
 94  1 22 16 41  0.0000000  0  5  1 31 25 21 15
  21583855.348    21817520.293 9   3809840.680 8
  24226328.302     4820310.866 4   4709880.465 1
  21754134.706    -7346913.441 8  -5730316.298 6
  22216985.631    -2127199.274 7   3540004.754 4
  22068617.144    -8403899.031 7  -6498793.509 5
 94  1 22 16 41 30.0000000  0  5  1 31 25 21 15
  21596649.021    21884739.570 9   3862219.323 8
  24241483.740     4899948.442 4   4771935.703 2
  21742647.888    -7407276.555 8  -5777352.493 6
  22228792.267    -2065146.805 7   3588357.294 4
  22055714.856    -8471725.798 7  -6551645.532 5
 94  1 22 16 42  0.0000000  0  5  1 31 25 21 15
  21609476.031    21952176.613 8   3914767.652 8
  24256671.286     4979737.069 5   4834108.569 2
  21731242.704    -7467221.652 8  -5824062.924 6
  22240657.034    -2002822.164 7   3636921.917 4
  22042885.328    -8539120.850 7  -6604161.117 5
 94  1 22 16 42 30.0000000  0  5  1 31 25 21 15
  21622354.935    22019834.749 9   3967488.260 8
  24271874.631     5059693.740 4   4896412.400 2
  21719914.866    -7526740.566 8  -5870441.266 6
  22252569.617    -1940212.222 7   3685708.842 4
  22030143.339    -8606083.222 7  -6656339.588 5
 94  1 22 16 43  0.0010000  0  5  1 31 25 21 15
  21635268.555    22087710.119 8   4020378.123 8
  24287122.165     5139815.008 5   4958844.514 2
  21708672.199    -7585815.179 8  -5916473.411 6
  22264537.631    -1877319.235 7   3734716.354 4
  22017477.827    -8672619.644 7  -6708186.146 5
 94  1 22 16 43 30.0010000  0  5  1 31 25 21 15
  21648228.074    22155812.981 8   4073445.279 8
  24302410.681     5220100.688 5   5021404.703 2
  21697519.350    -7644439.640 8  -5962154.781 6
  22276557.060    -1814152.244 6   3783937.365 4
  22004903.123    -8738720.275 7  -6759693.118 5
 94  1 22 16 44  0.0010000  0  5  1 31 25 21 15
  21661234.210    22224136.409 8   4126684.293 8
  24317723.450     5300563.716 5   5084103.089 2
  21686449.184    -7702610.119 8  -6007482.416 6
  22288626.885    -1750712.042 6   3833371.235 4
  21992410.831    -8804380.766 7  -6810857.111 5
 94  1 22 16 44 30.0010000  0  5  1 31 25 21 15
  21674271.824    22292657.268 8   4180077.145 8
  24333056.695     5381187.623 4   5146926.887 2
  21675463.439    -7760333.224 8  -6052461.434 6
  22300747.404    -1687012.138 6   3883007.498 4
  21979998.434    -8869606.662 7  -6861682.486 5
 94  1 22 16 45  0.0010000  0  5  1 31 25 21 15
  21687348.891    22361378.753 8   4233626.347 8
  24348431.582     5461956.609 4   5209863.627 2
  21664561.696    -7817614.367 8  -6097096.065 6
  22312916.879    -1623072.586 6   3932830.481 4
  21967671.178    -8934396.331 7  -6912167.927 5
 94  1 22 16 45 30.0010000  0  5  1 31 25 21 15
  21700464.451    22430302.928 8   4287333.469 8
  24363827.004     5542872.869 5   5272915.227 2
  21653744.884    -7874467.381 8  -6141397.108 6
  22325133.542    -1558896.454 6   3982837.812 4
  21955424.776    -8998746.046 7  -6962310.575 5
 94  1 22 16 46  0.0010000  0  5  1 31 25 21 15
  21713616.976    22499419.975 9   4341190.899 8
  24379251.056     5623931.862 4   5336078.056 2
  21643007.608    -7930885.652 8  -6185359.366 6
  22337391.126    -1494482.804 6   4033030.227 4
  21943261.746    -9062653.434 7  -7012108.537 5
 94  1 22 16 46 30.0010000  0  5  1 31 25 21 15
  21726805.446    22568743.795 8   4395209.432 8
  24394704.218     5705129.351 5   5399348.768 2
  21632356.401    -7986870.413 8  -6228983.850 6
  22349692.630    -1429843.655 6   4083398.355 4
  21931184.517    -9126117.771 8  -7061561.246 5
 94  1 22 16 47  0.0010000  0  5  1 31 25 21 15
  21740040.803    22638279.220 8   4449392.875 8
  24410185.830     5786466.985 5   5462728.717 2
  21621788.058    -8042416.733 8  -6272266.692 6
  22362029.269    -1364986.688 6   4133936.183 4
  21919190.090    -9189141.446 8  -7110670.610 5
 94  1 22 16 47 30.0010000  0  5  1 31 25 21 15
  21753312.135    22708015.778 8   4503733.030 8
  24425684.321     5867949.099 5   5526221.240 2
  21611299.998    -8097524.607 8  -6315207.871 6
  22374415.075    -1299897.543 6   4184654.928 4
  21907283.263    -9251723.480 8  -7159435.845 5
 94  1 22 16 48  0.0010000  0  5  1 31 25 21 15
  21766618.154    22777952.196 8   4558228.932 7
  24441222.834     5949560.674 5   5589814.691 2
  21600898.309    -8152184.101 8  -6357799.690 6
  22386849.447    -1234583.296 6   4235549.143 4
  21895456.601    -9313865.522 8  -7207858.170 5
 94  1 22 16 48 30.0010000  0  5  1 31 25 21 15
  21779970.670    22848101.054 9   4612890.375 7
  24456782.961     6031310.583 5   5653515.866 2
  21590580.082    -8206388.271 8  -6400036.696 6
  22399314.847    -1169033.958 6   4286626.493 4
  21883716.668    -9375561.854 8  -7255933.231 5
 94  1 22 16 49  0.0010000  0  5  1 31 25 21 15
  21793354.305    22918445.132 8   4667703.935 7
  24472355.261     6113188.719 5   5717316.968 2
  21580354.911    -8260128.271 8  -6441912.005 6
  22411841.555    -1103233.563 6   4337899.464 4
  21872061.607    -9436808.356 8  -7303657.781 5
 94  1 22 16 49 30.0010000  0  5  1 31 25 21 15
  21806771.996    22988972.738 8   4722660.494 7
  24487961.407     6195179.109 5   5781205.572 2
  21570218.898    -8313404.623 8  -6483426.047 6
  22424411.943    -1037183.370 6   4389367.102 4
  21860493.455    -9497601.375 8  -7351028.935 5
 94  1 22 16 50  0.0010000  0  5  1 31 25 21 15
  21820228.720    23059680.453 8   4777757.406 7
  24503582.963     6277274.145 4   5845175.641 2
  21560168.626    -8366211.005 8  -6524573.869 6
  22437021.004     -970890.488 6   4441023.838 4
  21849011.524    -9557933.938 8  -7398041.326 5
 94  1 22 16 50 30.0010000  0  5  1 31 25 21 15
  21833711.676    23130543.941 8   4832975.698 7
  24519220.737     6359462.131 4   5909218.166 2
  21550208.711    -8418569.297 8  -6565372.532 6
  22449689.513     -904342.773 6   4492879.154 4
  21837620.580    -9617809.652 8  -7444697.738 5
 94  1 22 16 51  0.0010000  0  5  1 31 25 21 15
  21847224.941    23201546.905 8   4888302.678 7
  24534875.929     6441730.153 4   5973323.041 2
  21540324.134    -8470485.479 8  -6605826.700 6
  22462404.851     -837539.669 7   4544933.478 4
  21826310.130    -9677224.206 8  -7490994.774 5
 94  1 22 16 51 30.0010000  0  5  1 31 25 21 15
  21860768.305    23272709.652 8   4943754.158 7
  24550548.269     6524091.343 4   6037500.452 2
  21530530.694    -8521965.009 8  -6645940.620 6
  22475157.272     -770489.167 6   4597180.567 4
  21815095.584    -9736171.681 8  -7536927.870 5
 94  1 22 16 52  0.0010000  0  6  1 14 31 25 21 15
  21874343.897    23344059.747 8   4999351.622 7
  25074875.925    19979466.17514   -810663.152 2
  24566240.935     6606554.986 5   6101757.787 2
  21520817.478    -8573000.712 8  -6685708.683 6
  22487967.644     -703179.686 6   4649629.501 4
  21803972.024    -9794642.702 8  -7582489.707 5
 94  1 22 16 52 30.0010000  0  6  1 14 31 25 21 15
  21887958.012    23415603.358 8   5055099.879 7
  25060399.846    19903227.613 4   -870069.777 2
  24581951.439     6689133.197 5   6166104.323 2
  21511193.870    -8623568.055 8  -6725111.801 6
  22500833.987     -635599.311 7   4702289.489 4
  21792939.392    -9852628.420 8  -7627673.354 5
 94  1 22 16 53  0.0010000  0  6  1 14 31 25 21 15
  21901609.361    23487337.837 8   5110996.860 7
  25045880.148    19826938.084 5   -929516.169 2
  24597696.419     6771831.630 5   6230544.602 2
  21501666.586    -8673641.823 8  -6764130.315 6
  22513733.876     -567778.351 7   4755136.915 4
  21781994.839    -9910126.841 7  -7672477.336 5
 94  1 22 16 53 30.0010000  0  6  1 14 31 25 21 15
  21915298.664    23559271.507 8   5167049.058 7
  25031347.948    19750580.718 4   -989015.307 2
  24613455.190     6854645.009 6   6295074.406 2
  21492235.505    -8723206.771 8  -6802752.340 7
  22526687.609     -499715.020 7   4808173.248 4
  21771149.247    -9967138.424 8  -7716901.943 5
 94  1 22 16 54  0.0010000  0  6  1 14 31 25 21 15
  21929021.694    23631377.592 8   5223235.594 7
  25016803.517    19674152.201 4  -1048569.955 2
  24629236.265     6937558.651 6   6359682.341 2
  21482905.724    -8772245.354 8  -6840964.222 7
  22539688.558     -431391.718 6   4861412.152 4
  21760390.025   -10023664.522 8  -7760948.238 5
 94  1 22 16 54 30.0010000  0  6  1 14 31 25 21 15
  21942769.697    23703631.687 8   5279537.486 7
  25002238.431    19597652.109 4  -1108180.380 2
  24645027.652     7020565.532 5   6424363.039 2
  21473669.898    -8820761.094 8  -6878768.691 6
  22552734.717     -362820.041 6   4914844.597 3
  21749722.990   -10079709.771 8  -7804619.876 5
 94  1 22 16 55  0.0010000  0  6  1 14 31 25 21 15
  21956549.777    23776045.031 8   5335963.419 7
  24987676.162    19521093.356 5  -1167836.523 1
  24660833.460     7103643.342 5   6489098.954 2
  21464532.763    -8868781.622 8  -6916187.242 7
  22565834.058     -294005.329 6   4968466.388 3
  21739148.501   -10135275.346 8  -7847917.725 5
 94  1 22 16 55 30.0010000  0  6  1 14 31 25 21 15
  21970360.826    23848632.168 8   5392524.817 7
  24973096.445    19444492.873 5  -1227525.134 2
  24676653.538     7186785.151 5   6553884.697 2
  21455484.487    -8916322.314 8  -6953231.932 7
  22578973.332     -224927.647 6   5022293.112 3
  21728669.885   -10190360.580 8  -7890841.247 6
 94  1 22 16 56  0.0010000  0  6  1 14 31 25 21 15
  21984207.760    23921391.631 8   5449220.494 7
  24958520.656    19367870.457 4  -1287230.816 2
  24692498.199     7269997.433 5   6618725.391 2
  21446525.459    -8963391.981 8  -6989909.577 7
  22592169.387     -155594.884 6   5076318.583 3
  21718276.410   -10244959.690 8  -7933386.037 5
 94  1 22 16 56 30.0010000  0  6  1 14 31 25 21 15
  21998088.061    23994338.706 8   5506062.350 7
  24943933.444    19291229.526 4  -1346950.988 1
  24708342.530     7353286.225 4   6683625.704 2
  21437661.286    -9010008.956 8  -7026234.467 7
  22605410.830      -86023.043 6   5130530.352 3
  21707980.458   -10299068.219 8  -7975548.544 5
 94  1 22 16 57  0.0010000  0  6  1 14 31 25 21 15
  22012005.925    24067477.878 8   5563053.880 7
  24929336.909    19214569.773 4  -1406685.851 1
  24724205.089     7436650.791 4   6748585.052 2
  21428874.369    -9056178.677 8  -7062210.854 7
  22618694.813      -16208.264 6   5184931.429 3
  21697774.983   -10352685.795 8  -8017328.449 5
 94  1 22 16 57 30.0010000  0  6  1 14 31 25 21 15
  22025957.307    24140792.976 8   5620182.515 7
  24914757.342    19137871.389 5  -1466450.688 2
  24740081.858     7520098.088 4   6813608.849 2
  21420174.302    -9101886.347 8  -7097827.208 7
  22632027.903       53853.301 6   5239524.838 3
  21687665.292   -10405813.361 8  -8058726.577 5
 94  1 22 16 58  0.0010000  0  6  1 14 31 25 21 15
  22039940.047    24214276.046 8   5677442.032 7
  24900149.265    19061119.735 4  -1526257.105 2
  24755985.578     7603622.128 5   6878692.428 2
  21411566.091    -9147129.334 8  -7133081.454 7
  22645403.024      124154.472 6   5294304.914 3
  21677652.344   -10458448.375 8  -8099740.873 5
 94  1 22 16 58 30.0010000  0  6  1 14 31 25 21 15
  22053955.794    24287919.453 8   5734826.469 7
  24885534.623    18984305.146 4  -1586112.598 1
  24771880.304     7687214.482 4   6943829.251 2
  21403043.142    -9191899.641 8  -7167967.398 7
  22658826.531      194700.850 6   5349276.073 3
  21667728.074   -10510589.445 8  -8140370.281 6
 94  1 22 16 59  0.0010000  0  6  1 14 31 25 21 15
  22067995.914    24361704.216 8   5792321.059 7
  24870904.571    18907426.229 4  -1646018.215 1
  24787808.008     7770863.139 4   7009009.914 2
  21394620.592    -9236180.103 8  -7202471.640 7
  22672302.292      265506.486 6   5404449.249 3
  21657901.926   -10562235.035 7  -8180613.593 6
 94  1 22 16 59 30.0010000  0  6  1 14 31 25 21 15
  22082060.138    24435613.761 8   5849912.898 7
  24856252.574    18830472.365 5  -1705982.184 1
  24803723.959     7854551.905 5   7074221.812 2
  21386287.231    -9279971.876 8  -7236595.076 7
  22685827.009      336560.182 6   5459815.700 3
  21648165.027   -10613388.757 7  -8220473.635 6
 94  1 22 17  0  0.0010000  0  6  1 14 31 25 21 15
  22096149.214    24509638.124 8   5907594.195 7
  24841606.184    18753462.108 5  -1765990.241 1
  24819657.659     7938266.007 5   7139453.445 2
  21378044.558    -9323283.395 8  -7270344.296 7
  22699389.440      407849.551 6   5515365.828 3
  21638520.134   -10664053.037 7  -8259952.292 6
 94  1 22 17  0 30.0010000  0  6  1 14 31 25 21 15
  22110253.400    24583766.251 8   5965356.357 7
  24826938.328    18676400.335 5  -1826038.274 1
  24835597.504     8022003.044 5   7204702.977 2
  21369895.509    -9366113.139 8  -7303718.106 7
  22713001.816      479370.944 6   5571096.738 3
  21628978.520   -10714226.706 8  -8299048.677 6
 94  1 22 17  1  0.0010000  0  6  1 14 31 25 21 15
  22124383.338    24658011.223 8   6023209.580 7
  24812255.963    18599285.859 5  -1886127.420 2
  24851546.822     8105758.635 5   7269967.027 1
  21361834.929    -9408462.045 8  -7336717.225 7
  22726659.701      551120.284 6   5627005.272 3
  21619527.413   -10763904.576 8  -8337758.673 6
 94  1 22 17  1 30.0010000  0  6  1 14 31 25 21 15
  22138534.681    24732383.251 8   6081161.772 7
  24797575.276    18522123.206 4  -1946254.104 2
  24867468.410     8189539.957 5   7335251.031 1
  21353867.555    -9450323.163 8  -7369336.265 7
  22740344.987      623084.745 6   5683081.421 3
  21610166.663   -10813081.781 8  -8376078.569 6
 94  1 22 17  2  0.0010000  0  6  1 14 31 25 21 15
  22152707.670    24806875.751 8   6139207.850 7
  24782890.212    18444915.393 5  -2006416.033 2
  24883429.990     8273347.740 4   7400555.695 1
  21345995.875    -9491688.593 8  -7401569.053 7
  22754084.145      695268.742 6   5739328.643 3
  21600903.496   -10861756.090 8  -8414006.594 6
 94  1 22 17  2 30.0010000  0  6  1 14 31 25 21 15
  22166912.916    24881500.115 8   6197356.688 7
  24768178.317    18367640.282 4  -2066630.394 2
  24899379.548     8357189.389 4   7465886.749 1
  21338219.978    -9532549.737 8  -7433408.884 7
  22767864.405      767666.949 6   5795742.792 3
  21591739.110   -10909924.423 8  -8451540.347 6
 94  1 22 17  3  0.0010000  0  6  1 14 31 25 21 15
  22181135.310    24956250.861 8   6255604.007 6
  24753461.445    18290304.134 4  -2126892.195 2
  24915336.571     8441069.387 4   7531247.657 1
  21330544.451    -9572893.523 8  -7464845.587 7
  22781682.020      840275.338 6   5852320.720 3
  21582670.688   -10957585.498 8  -8488678.836 6
 94  1 22 17  3 30.0010000  0  6  1 14 31 25 21 15
  22195381.927    25031125.560 8   6313947.907 6
  24738724.607    18212921.038 4  -2187190.632 2
  24931307.655     8524990.943 4   7596641.011 1
  21322966.238    -9612711.514 8  -7495872.572 7
  22795536.359      913095.338 6   5909063.530 3
  21573693.883   -11004735.846 8  -8525419.365 6
 94  1 22 17  4  0.0010000  0  6  1 14 31 25 21 15
  22209657.204    25106139.137 8   6372400.021 6
  24723999.641    18135497.806 4  -2247520.435 2
  24947285.124     8608947.970 4   7662062.090 1
  21315490.823    -9652015.054 8  -7526498.696 7
  22809438.844      986141.236 6   5965982.336 3
  21564822.754   -11051370.381 8  -8561757.945 6
 94  1 22 17  4 30.0010000  0  6  1 14 31 25 21 15
  22223964.230    25181304.017 8   6430970.042 6
  24709265.262    18058033.514 4  -2307882.115 2
  24963269.248     8692929.180 3   7727501.833 1
  21308105.286    -9690806.258 8  -7556725.597 7
  22823377.305     1059405.767 6   6023071.546 3
  21556047.559   -11097486.355 8  -8597692.473 6
 94  1 22 17  5  0.0010000  0  6  1 14 31 25 21 15
  22238294.399    25256618.262 8   6489656.449 6
  24694526.025    17980547.891 5  -2368260.449 2
  24979241.981     8776934.179 2   7792960.223 1
  21300823.417    -9729086.707 8  -7586554.497 7
  22837369.398     1132916.112 6   6080352.299 3
  21547371.295   -11143075.793 8  -8633216.712 6
 94  1 22 17  5 30.0010000  0  6  1 14 31 25 21 15
  22252654.848    25332085.771 8   6548462.270 6
  24679764.964    17903040.565 4  -2428655.680 2
  24995231.082     8860949.373 4   7858426.480 1
  21293633.165    -9766867.172 8  -7615993.808 7
  22851409.548     1206692.562 6   6137840.368 3
  21538795.972   -11188134.500 8  -8668327.357 6
 94  1 22 17  6  0.0010000  0  6  1 14 31 25 21 15
  22267042.547    25407693.274 8   6607377.173 6
  24665001.025    17825502.741 5  -2489074.828 2
  25011237.331     8944974.599 5   7923900.592 2
  21286537.047    -9804150.167 8  -7645045.458 7
  22865495.267     1280739.476 6   6195539.254 3
  21530326.925   -11232661.203 9  -8703023.465 6
 94  1 22 17  6 30.0010000  0  6  1 14 31 25 21 15
  22281451.952    25483404.532 8   6666372.943 6
  24650250.966    17747928.588 5  -2549522.166 2
  25027223.224     9029009.799 5   7989382.485 2
  21279537.523    -9840929.789 8  -7673704.892 7
  22879639.595     1355039.167 6   6253435.075 3
  21521952.312   -11276661.777 8  -8737309.643 6
 94  1 22 17  7  0.0010000  0  6  1 14 31 25 21 15
  22295874.607    25559195.884 8   6725431.108 6
  24635479.952    17670318.181 5  -2609997.772 2
  25043207.049     9113051.141 5   8054869.170 2
  21272634.322    -9877212.076 8  -7701976.796 7
  22893829.042     1429597.769 6   6311532.667 2
  21513677.051   -11320140.215 8  -8771188.939 6
 94  1 22 17  7 30.0010000  0  6  1 14 31 25 21 15
  22310309.134    25635074.483 8   6784557.265 6
  24620706.510    17592677.001 5  -2670497.371 2
  25059207.452     9197094.500 5   8120357.440 3
  21265830.382    -9912985.920 8  -7729852.488 7
  22908062.318     1504404.083 6   6369823.269 2
  21505500.542   -11363088.657 8  -8804655.243 6
 94  1 22 17  8  0.0010000  0  6  1 14 31 25 21 15
  22324766.566    25711046.460 8   6843756.194 6
  24605927.941    17515003.205 5  -2731022.413 2
  25075203.148     9281139.576 4   8185846.990 3
  21259119.108    -9948237.937 8  -7757321.583 7
  22922338.555     1579447.518 6   6428298.630 2
  21497436.065   -11405501.184 8  -8837703.946 6
 94  1 22 17  8 30.0010000  0  6  1 14 31 25 21 15
  22339243.873    25787122.597 7   6903036.276 6
  24591145.684    17437302.521 5  -2791568.325 2
  25091181.666     9365175.414 4   8251329.373 3
  21252513.061    -9982961.874 8  -7784379.181 7
  22936664.198     1654736.319 6   6486965.179 2
  21489466.442   -11447368.910 8  -8870328.156 6
 94  1 22 17  9  0.0010000  0  6  1 14 31 25 21 15
  22353747.712    25863328.603 7   6962417.536 6
  24576356.113    17359555.040 5  -2852150.750 2
  25107181.140     9449189.968 4   8316795.128 3
  21246001.419   -10017170.897 8  -7811035.556 7
  22951041.495     1730272.894 6   6545824.844 2
  21481598.749   -11488689.345 8  -8902525.876 6
 94  1 22 17  9 30.0010000  0  6  1 14 31 25 21 15
  22368275.595    25939674.981 7   7021908.179 6
  24561543.937    17281751.407 5  -2912776.964 2
  25123154.682     9533178.218 4   8382240.388 2
  21239589.068   -10050865.768 8  -7837291.283 7
  22965458.604     1806047.989 6   6604870.327 2
  21473842.608   -11529460.800 8  -8934295.839 6
 94  1 22 17 10  0.0010000  0  6  1 14 31 25 21 15
  22382827.221    26016154.111 8   7081502.291 6
  24546716.652    17203892.135 4  -2973446.427 2
  25139138.866     9617146.588 5   8447670.201 2
  21233274.450   -10084048.803 8  -7863148.172 7
  22979919.992     1882053.786 6   6664095.564 2
  21466186.328   -11569684.555 8  -8965639.019 6
 94  1 22 17 10 30.0010000  0  6  1 14 31 25 21 15
  22397407.567    26092767.854 8   7141201.274 6
  24531900.519    17125970.698 5  -3034164.373 2
  25155125.299     9701095.396 5   8513084.745 2
  21227055.885   -10116734.045 8  -7888617.180 8
  22994433.905     1958278.843 6   6723491.662 2
  21458638.304   -11609364.346 7  -8996558.309 6
 94  1 22 17 11  0.0010000  0  5  1 14 25 21 15
  22412010.998    26169517.089 7   7201005.859 6
  24517063.160    17048002.363 5  -3094918.826 2
  21220932.954   -10148907.978 8  -7913687.768 8
  23008975.548     2034721.627 6   6783057.446 2
  21451194.127   -11648494.273 8  -9027049.144 6
 94  1 22 17 11 30.0010000  0  5  1 14 25 21 15
  22426640.600    26246395.227 7   7260910.864 6
  24502228.021    16970027.734 5  -3155678.349 2
  21214908.624   -10180543.763 8  -7938339.010 8
  23023560.571     2111391.210 6   6842799.933 2
  21443850.771   -11687064.799 8  -9057104.102 6
 94  1 22 17 12  0.0010000  0  5  1 14 25 21 15
  22441296.913    26323397.277 7   7320912.417 6
  24487375.343    16892045.019 5  -3216443.973 2
  21208994.289   -10211643.511 8  -7962572.571 8
  23038192.511     2188286.280 6   6902718.068 2
  21436617.978   -11725073.801 8  -9086721.492 6
 94  1 22 17 12 30.0010000  0  5  1 14 25 21 15
  22455972.174    26400512.182 8   7381001.917 6
  24472546.379    16814045.777 6  -3277222.590 2
  21203178.195   -10242208.601 8  -7986389.506 8
  23052878.834     2265427.738 6   6962828.285 2
  21429498.477   -11762520.381 8  -9115900.653 6
 94  1 22 17 13  0.0010000  0  5  1 14 25 21 15
  22470662.124    26477723.748 8   7441166.740 6
  24457699.967    16736032.519 6  -3338012.150 2
  21197463.282   -10272233.557 8  -8009785.556 8
  23067608.207     2342835.294 6   7023145.842 2
  21422472.511   -11799404.579 8  -9144641.590 6
 94  1 22 17 13 30.0010000  0  5  1 14 25 21 15
  22485373.330    26555037.575 8   7501411.234 6
  24442848.098    16657999.812 6  -3398816.796 2
  21191851.556   -10301718.009 8  -8032760.431 8
  23082393.222     2420515.537 6   7083675.800 2
  21415563.224   -11835723.071 8  -9172941.683 6
 94  1 22 17 14  0.0010000  0  5  1 14 25 21 15
  22500105.221    26632450.152 7   7561732.717 6
  24427979.682    16579933.351 6  -3459647.754 2
  21186346.378   -10330665.203 8  -8055316.663 8
  23097226.533     2498471.902 6   7144420.979 2
  21408758.145   -11871475.901 8  -9200801.025 6
 94  1 22 17 14 30.0010000  0  5  1 14 25 21 15
  22514858.158    26709972.284 7   7622139.532 6
  24413132.370    16501855.017 6  -3520487.970 2
  21180939.381   -10359063.318 8  -8077445.045 8
  23112114.346     2576710.175 6   7205385.817 2
  21402064.049   -11906660.109 8  -9228217.299 6
 94  1 22 17 15  0.0010000  0  5  1 14 25 21 15
  22529633.789    26787619.648 7   7682643.944 6
  24398269.649    16423777.657 5  -3581327.458 2
  21175641.718   -10386906.900 8  -8099141.316 8
  23127049.137     2655204.626 6   7266550.256 2
  21395480.037   -11941273.594 8  -9255188.844 6
 94  1 22 17 15 30.0010000  0  5  1 14 25 21 15
  22544433.913    26865387.008 8   7743241.853 5
  24383412.535    16345695.597 5  -3642170.534 2
  21170451.891   -10414193.029 8  -8120403.204 8
  23142024.880     2733929.942 6   7327894.639 3
  21388999.274   -11975314.696 8  -9281714.373 6
 94  1 22 17 16  0.0010000  0  5  1 14 25 21 15
  22559250.856    26943257.822 8   7803920.362 5
  24368550.563    16267589.520 5  -3703032.397 2
  21165360.246   -10440935.102 8  -8141241.162 8
  23157048.829     2812880.732 6   7389414.671 3
  21382632.132   -12008789.138 8  -9307798.354 6
 94  1 22 17 16 30.0010000  0  5  1 14 25 21 15
  22574085.965    27021229.464 8   7864677.442 5
  24353678.429    16189455.050 5  -3763916.318 2
  21160375.537   -10467130.383 8  -8161653.053 8
  23172123.413     2892056.635 6   7451110.088 2
  21376371.236   -12041692.680 9  -9333437.491 6
 94  1 22 17 17  0.0010000  0  5  1 14 25 21 15
  22588942.840    27099282.288 8   7925497.801 5
  24338797.451    16111267.242 5  -3824841.861 2
  21155499.502   -10492775.987 8  -8181636.599 8
  23187237.779     2971465.432 6   7512987.073 3
  21370218.026   -12074021.686 8  -9358628.916 6
 94  1 22 17 17 30.0010000  0  5  1 14 25 21 15
  22603803.552    27177399.387 8   7986368.201 5
  24323902.053    16033014.720 5  -3885817.737 2
  21150721.320   -10517872.891 8  -8201192.611 8
  23202389.380     3051123.945 6   7575058.568 3
  21364179.576   -12105777.681 8  -9383373.848 6
 94  1 22 17 18  0.0010000  0  5  1 14 25 21 15
  22618685.880    27255585.247 7   8047292.224 5
  24309015.769    15954717.237 5  -3946828.740 2
  21146046.057   -10542433.083 8  -8220330.390 8
  23217601.989     3131036.291 6   7637327.861 2
  21358238.019   -12136966.206 8  -9407676.590 6
 94  1 22 17 18 30.0010000  0  5  1 14 25 21 15
  22633579.299    27333865.724 7   8108289.980 5
  24294117.492    15876417.447 5  -4007841.521 2
  21141481.087   -10566431.212 8  -8239030.219 8
  23232853.120     3211218.390 6   7699807.357 2
  21352417.339   -12167562.451 8  -9431517.810 6
 94  1 22 17 19  0.0010000  0  5  1 14 25 21 15
  22648493.075    27412233.938 7   8169356.067 5
  24279220.445    15798108.181 5  -4068861.701 2
  21137018.437   -10589890.759 8  -8257310.345 8
  23248165.500     3291642.226 6   7762475.207 2
  21346706.712   -12197578.331 8  -9454906.814 6
 94  1 22 17 19 30.0010000  0  5  1 14 25 21 15
  22663421.720    27490676.894 8   8230480.401 5
  24264306.130    15719781.035 5  -4129895.820 2
  21132647.523   -10612851.400 8  -8275201.735 8
  23263499.944     3372265.579 6   7825298.529 2
  21341103.202   -12227039.046 8  -9477863.199 7
 94  1 22 17 20  0.0010000  0  6  1 14 25 29 21 15
  22678365.894    27569204.490 8   8291670.711 5
  24249401.469    15641429.624 5  -4190948.834 2
  21128373.052   -10635316.866 8  -8292707.281 8
  25118025.863      783345.42815   -110547.278 1
  23278882.355     3453071.894 6   7888264.441 2
  21335599.432   -12255943.078 8  -9500385.819 7
 94  1 22 17 20 30.0010000  0  6  1 14 25 29 21 15
  22693319.092    27647816.492 7   8352926.781 5
  24234480.918    15563029.758 5  -4252039.600 2
  21124191.247   -10657276.227 8  -8309818.450 8
  25104418.463      711948.539 4   -166181.293 1
  23294289.979     3534058.468 6   7951370.776 2
  21330209.883   -12284287.553 8  -9522472.429 7
 94  1 22 17 21  0.0010000  0  6  1 14 25 29 21 15
  22708298.282    27726509.627 7   8414246.059 5
  24219551.014    15484575.956 5  -4313172.423 2
  21120111.431   -10678726.859 8  -8326533.226 8
  25090883.613      640644.729 5   -221742.733 2
  23309733.877     3615230.581 6   8014621.704 2
  21324917.617   -12312070.470 8  -9544121.457 7
 94  1 22 17 21 30.0010000  0  6  1 14 25 29 21 15
  22723285.057    27805279.650 7   8475625.269 5
  24204607.979    15406071.924 5  -4374344.329 2
  21116132.256   -10699647.831 8  -8342835.266 8
  25077340.039      569446.255 4   -277222.101 2
  23325223.164     3696608.437 6   8078032.958 2
  21319734.295   -12339291.854 8  -9565332.899 7
 94  1 22 17 22  0.0010000  0  6  1 14 25 29 21 15
  22738283.734    27884106.414 7   8537048.661 5
  24189668.091    15327516.181 5  -4435556.554 2
  21112249.854   -10720029.411 8  -8358717.018 8
  25063805.608      498360.358 5   -332613.665 2
  23340755.441     3778204.452 6   8141614.148 2
  21314664.415   -12365953.061 8  -9586107.884 7
 94  1 22 17 22 30.0010000  0  6  1 14 25 29 21 15
  22753298.629    27962977.970 7   8598506.987 5
  24174708.088    15248924.397 5  -4496796.865 2
  21108476.156   -10739869.756 8  -8374177.008 8
  25050302.027      427400.047 4   -387907.606 2
  23356315.090     3860032.370 5   8205376.118 2
  21309698.083   -12392050.329 8  -9606443.421 7
 94  1 22 17 23  0.0010000  0  6  1 14 25 29 21 15
  22768311.816    28041890.196 7   8659996.995 5
  24159743.677    15170310.978 5  -4558053.990 2
  21104804.448   -10759166.022 8  -8389213.063 8
  25036828.904      356574.676 5   -443096.102 2
  23371935.296     3942100.180 5   8269325.010 2
  21304843.334   -12417573.451 8  -9626331.548 7
 94  1 22 17 23 30.0010000  0  6  1 14 25 29 21 15
  22783334.476    28120852.865 7   8721526.303 5
  24144786.762    15091681.539 6  -4619323.714 2
  21101235.389   -10777916.220 8  -8403823.603 8
  25023360.818      285890.251 5   -498174.841 1
  23387601.880     4024405.087 5   8333458.628 2
  21300095.341   -12442517.806 8  -9645768.726 6
 94  1 22 17 24  0.0010000  0  6  1 14 25 29 21 15
  22798377.522    28199870.787 7   8783098.656 5
  24129817.375    15013041.951 5  -4680601.269 2
  21097770.238   -10796137.667 9  -8418022.117 8
  25009940.249      215341.662 4   -553147.888 1
  23403300.242     4106935.928 5   8397768.276 2
  21295459.080   -12466877.316 8  -9664750.168 6
 94  1 22 17 24 30.0010000  0  6  1 14 25 29 21 15
  22813422.037    28278959.873 7   8844726.470 5
  24114847.478    14934391.257 6  -4741887.469 2
  21094403.898   -10813829.019 9  -8431807.591 8
  24996542.464      144927.309 5   -608016.163 1
  23419053.796     4189682.704 5   8462246.197 2
  21290936.262   -12490648.659 8  -9683273.292 6
 94  1 22 17 25  0.0010000  0  6  1 14 25 29 21 15
  22828494.162    28358132.399 7   8906419.287 5
  24099886.546    14855737.402 6  -4803176.237 2
  21091140.088   -10830973.386 9  -8445166.845 8
  24983162.876       74654.942 4   -662773.676 1
  23434842.546     4272651.383 5   8526897.043 2
  21286526.314   -12513824.103 8  -9701332.101 6
 94  1 22 17 25 30.0010000  0  6  1 14 25 29 21 15
  22843580.049    28437395.800 7   8968182.908 5
  24084919.317    14777108.544 6  -4864445.429 2
  21087987.620   -10847559.295 9  -8458090.932 8
  24969835.093        4544.397 5   -717405.318 1
  23450671.228     4355856.827 5   8591732.394 2
  21282228.610   -12536391.936 8  -9718917.441 6
 94  1 22 17 26  0.0010000  0  6  1 14 25 29 21 15
  22858672.560    28516721.018 7   9029994.725 5
  24069964.111    14698486.690 6  -4925709.153 2
  21084927.728   -10863595.565 8  -8470586.717 8
  24956512.556      -65422.902 4   -771925.137 1
  23466551.085     4439291.431 5   8656746.316 2
  21278048.064   -12558362.400 8  -9736037.272 6
 94  1 22 17 26 30.0010000  0  6  1 14 25 29 21 15
  22873776.524    28596092.196 7   9091842.348 5
  24054992.655    14619850.273 6  -4986984.270 2
  21081984.606   -10879079.403 9  -8482652.052 8
  24943228.722     -135253.888 5   -826338.803 1
  23482471.173     4522951.000 6   8721935.503 2
  21273985.276   -12579741.624 8  -9752696.419 6
 94  1 22 17 27  0.0010000  0  6  1 14 25 29 21 15
  22888886.154    28675490.019 7   9153710.716 5
  24040032.112    14541192.181 6  -5048276.243 2
  21079140.625   -10894019.497 9  -8494293.681 8
  24929970.251     -204959.156 5   -880654.493 1
  23498440.068     4606831.635 6   8787296.917 2
  21270026.427   -12600534.761 8  -9768898.876 6
 94  1 22 17 27 30.0010000  0  6  1 14 25 29 21 15
  22903999.291    28754914.890 7   9215600.188 5
  24025054.361    14462498.276 6  -5109596.143 2
  21076399.682   -10908426.709 8  -8505520.070 8
  24916727.968     -274544.126 5   -934876.402 1
  23514435.525     4690932.523 6   8852830.057 2
  21266182.488   -12620742.494 8  -9784645.140 6
 94  1 22 17 28  0.0010000  0  6  1 14 25 29 21 15
  22919118.454    28834367.014 7   9277510.858 5
  24010067.946    14383738.730 6  -5170967.190 2
  21073761.568   -10922303.360 9  -8516333.055 8
  24903501.065     -344024.807 3   -989017.011 1
  23530477.419     4775243.942 6   8918527.237 2
  21262443.926   -12640370.887 8  -9799940.012 6
 94  1 22 17 28 30.0010000  0  6  1 14 25 29 21 15
  22934244.333    28913857.431 7   9339451.396 5
  23995072.087    14304925.759 6  -5232379.900 2
  21071221.157   -10935634.587 9  -8526721.012 8
  24890298.445     -413409.229 3  -1043082.664 1
  23546569.619     4859768.252 6   8984390.155 2
  21258816.947   -12659420.321 8  -9814783.745 6
 94  1 22 17 29  0.0010000  0  6  1 14 25 29 21 15
  22949378.786    28993400.020 7   9401432.567 5
  23980062.198    14226087.489 6  -5293812.264 2
  21068791.879   -10948409.075 9  -8536675.162 8
  24877104.849     -482701.017 3  -1097076.160 1
  23562689.609     4944518.293 5   9050429.151 2
  21255305.418   -12677888.634 8  -9829174.630 6
 94  1 22 17 29 30.0010000  0  6  1 14 25 29 21 15
  22964527.718    29073000.720 7   9463459.012 5
  23965062.383    14147232.237 6  -5355257.900 2
  21066469.237   -10960622.593 9  -8546192.184 8
  24863943.090     -551900.052 4  -1150997.416 1
  23578865.811     5029499.004 5   9116647.870 2
  21251900.855   -12695770.261 8  -9843108.373 7
 94  1 22 17 30  0.0010000  0  6  1 14 25 29 21 15
  22979689.362    29152660.292 7   9525531.333 5
  23950056.781    14068376.934 6  -5416703.598 2
  21064250.653   -10972265.271 8  -8555264.409 8
  24850791.555     -621009.047 3  -1204848.563 1
  23595075.769     5114695.584 5   9183034.681 2
  21248613.931   -12713063.456 8  -9856583.599 7
 94  1 22 17 30 30.0010000  0  6  1 14 25 29 21 15
  22994854.334    29232380.738 7   9587651.122 5
  23935047.761    13989537.125 6  -5478137.202 2
  21062142.692   -10983347.510 9  -8563899.900 8
  24837656.868     -690017.498 5  -1258621.290 1
  23611324.880     5200112.780 5   9249593.511 2
  21245433.762   -12729768.782 8  -9869600.732 7
 94  1 22 17 31  0.0010000  0  6  1 14 25 29 21 15
  23010038.792    29312158.747 7   9649815.734 5
  23920045.667    13910697.795 6  -5539570.390 2
  21060135.342   -10993904.856 9  -8572126.414 8
  24824546.224     -758904.944 5  -1312299.661 1
  23627624.236     5285735.686 5   9316312.580 2
  21242366.825   -12745885.063 8  -9882158.883 7
 94  1 22 17 31 30.0010000  0  6  1 14 25 29 21 15
  23025226.757    29391983.340 7   9712016.654 5
  23905040.215    13831836.982 6  -5601020.373 2
  21058225.364   -11003950.136 9  -8579953.912 8
  24811472.905     -827652.057 4  -1365868.669 1
  23643954.951     5371546.533 5   9383178.023 2
  21239411.351   -12761409.330 8  -9894255.727 7
 94  1 22 17 32  0.0010000  0  6  1 14 25 29 21 15
  23040431.181    29471861.461 7   9774259.309 5
  23890032.035    13752955.673 6  -5662486.295 2
  21056411.560   -11013470.173 9  -8587372.117 8
  24798416.164     -896244.721 4  -1419317.279 1
  23660317.593     5457550.270 5   9450193.907 2
  21236573.576   -12776335.122 8  -9905886.216 7
 94  1 22 17 32 30.0010000  0  6  1 14 25 29 21 15
  23055637.284    29551782.251 7   9836535.191 5
  23875013.092    13674044.349 6  -5723975.598 2
  21054699.055   -11022477.600 9  -8594390.902 8
  24785398.935     -964685.152 5  -1472647.349 1
  23676733.029     5543762.768 5   9517372.344 2
  21233845.705   -12790662.791 8  -9917050.644 7
 94  1 22 17 33  0.0010000  0  6  1 14 25 29 21 15
  23070853.431    29631736.705 7   9898837.292 5
  23859996.098    13595101.727 6  -5785489.345 2
  21053083.504   -11030956.085 9  -8600997.511 8
  24772392.410    -1032985.378 5  -1525868.280 1
  23693172.448     5630176.346 5   9584707.519 2
  21231231.364   -12804390.553 8  -9927747.612 7
 94  1 22 17 33 30.0010000  0  6  1 14 25 29 21 15
  23086071.465    29711719.896 7   9961161.781 5
  23844973.318    13516151.303 6  -5847009.110 2
  21051577.286   -11038871.439 9  -8607165.332 8
  24759414.064    -1101162.842 5  -1578993.567 1
  23709655.157     5716813.118 5   9652216.623 2
  21228736.042   -12817512.831 8  -9937972.772 7
 94  1 22 17 34  0.0010000  0  6  1 14 25 29 21 15
  23101300.233    29791746.073 7  10023519.792 5
  23829948.230    13437219.407 6  -5908514.423 2
  21050182.232   -11046206.319 9  -8612880.820 8
  24746469.925    -1169219.492 5  -1632024.663 2
  23726195.786     5803694.717 5   9719916.481 2
  21226356.949   -12830020.170 8  -9947718.753 7
 94  1 22 17 34 30.0010000  0  6  1 14 25 29 21 15
  23116537.904    29871817.025 7  10085912.662 5
  23814930.547    13358308.810 6  -5970003.222 2
  21048898.131   -11052969.600 9  -8618150.902 8
  24733541.885    -1237160.343 5  -1684965.559 2
  23742764.266     5890815.900 5   9787803.047 2
  21224093.636   -12841915.641 8  -9956987.966 7
 94  1 22 17 35  0.0010000  0  6  1 14 25 29 21 15
  23131783.250    29951932.837 7  10148340.524 5
  23799921.107    13279420.137 6  -6031474.928 2
  21047721.176   -11059156.635 9  -8622971.978 8
  24720631.533    -1304975.033 5  -1737808.117 2
  23759392.735     5978154.658 5   9855859.144 2
  21221942.985   -12853203.451 8  -9965783.651 7
 94  1 22 17 35 30.0010000  0  6  1 14 25 29 21 15
  23147037.649    30032092.475 7  10210802.516 5
  23784907.471    13200535.582 6  -6092943.381 2
  21046646.510   -11064792.492 9  -8627363.561 8
  24707739.558    -1372660.333 3  -1790549.887 2
  23776056.549     6065702.761 5   9924078.372 2
  21219909.912   -12863890.905 8  -9974111.537 7
 94  1 22 17 36  0.0010000  0  6  1 14 25 29 21 15
  23162302.422    30112304.492 7  10273305.326 5
  23769900.011    13121640.659 6  -6154419.971 2
  21045675.932   -11069890.951 9  -8631336.389 8
  24694909.820    -1440195.451 4  -1843174.586 2
  23792749.622     6153447.667 5   9992450.946 2
  21217991.630   -12873976.489 8  -9981970.450 7
 94  1 22 17 36 30.0010000  0  6  1 14 25 29 21 15
  23177573.190    30192545.405 7  10335830.667 5
  23754882.417    13042725.539 6  -6215912.235 2
  21044810.041   -11074464.395 9  -8634900.126 8
  24682083.319    -1507585.535 5  -1895686.299 2
  23809484.787     6241377.084 5  10060967.250 2
  21216186.310   -12883466.039 8  -9989364.904 7
 94  1 22 17 37  0.0010000  0  6  1 14 25 29 21 15
  23192844.168    30272799.790 7  10398366.502 4
  23739855.590    12963784.865 6  -6277424.439 2
  21044038.106   -11078514.674 9  -8638056.193 8
  24669276.545    -1574840.235 5  -1948092.544 2
  23826239.917     6329489.802 5  10129626.465 2
  21214493.652   -12892360.252 8  -9996295.467 7
 94  1 22 17 37 30.0010000  0  6  1 14 25 29 21 15
  23208116.705    30353072.429 7  10460916.544 4
  23724833.829    12884826.398 6  -6338950.548 2
  21043363.393   -11082045.452 9  -8640807.479 8
  24656509.434    -1641973.675 4  -2000404.290 2
  23843052.368     6417800.472 5  10198439.828 2
  21212916.324   -12900650.460 8 -10002755.394 7
 94  1 22 17 38  0.0010000  0  6  1 14 25 29 21 15
  23223398.326    30433357.361 7  10523476.187 5
  23709804.754    12805872.080 6  -6400473.327 2
  21042793.008   -11085043.904 9  -8643143.944 8
  24643756.742    -1709004.465 4  -2052635.992 2
  23859897.766     6506308.030 5  10267406.715 2
  21211455.255   -12908331.684 8 -10008740.769 7
 94  1 22 17 38 30.0010000  0  6  1 14 25 29 21 15
  23238682.135    30513665.096 7  10586053.540 5
  23694785.152    12726940.718 6  -6461978.259 2
  21042325.691   -11087498.314 9  -8645056.479 8
  24631009.297    -1775943.759 3  -2104796.409 2
  23876777.581     6595021.424 5  10336533.967 2
  21210110.326   -12915397.283 8 -10014246.428 7
 94  1 22 17 39  0.0010000  0  6  1 14 25 29 21 15
  23253972.360    30594025.356 7  10648671.851 5
  23679776.132    12648038.533 6  -6523460.466 2
  21041960.334   -11089401.125 9  -8646539.201 9
  24618290.932    -1842775.597 4  -2156873.215 2
  23893693.610     6683953.844 5  10405831.866 2
  21208882.916   -12921839.552 8 -10019266.413 7
 94  1 22 17 39 30.0010000  0  6  1 14 25 29 21 15
  23269273.797    30674444.251 7  10711335.871 5
  23664768.102    12569169.666 6  -6584916.728 2
  21041708.538   -11090745.368 9  -8647586.669 8
  24605607.852    -1909476.673 5  -2208848.001 2
  23910661.803     6773107.738 5  10475302.279 2
  21207775.063   -12927655.732 8 -10023798.514 7
 94  1 22 17 40  0.0010000  0  6  1 14 25 29 21 15
  23284585.337    30754918.254 7  10774042.823 5
  23649759.622    12490333.047 6  -6646347.858 2
  21041563.109   -11091514.487 9  -8648185.990 9
  24592933.077    -1976023.525 5  -2260702.643 2
  23927671.128     6862481.474 5  10544944.113 2
  21206788.296   -12932844.411 8 -10027841.645 7
 94  1 22 17 40 30.0010000  0  6  1 14 25 29 21 15
  23299914.985    30835439.148 7  10836786.298 5
  23634768.170    12411514.650 6  -6707764.778 2
  21041521.168   -11091711.580 8  -8648339.581 8
  24580309.026    -2042388.455 5  -2312415.674 1
  23944720.475     6952081.696 5  10614762.358 2
  21205924.084   -12937406.763 8 -10031396.755 7
 94  1 22 17 41  0.0010000  0  6  1 14 25 29 21 15
  23315233.330    30915976.558 7  10899542.630 4
  23619772.612    12332704.397 6  -6769175.400 2
  21041593.238   -11091342.069 9  -8648051.670 8
  24567720.561    -2108581.536 5  -2363994.573 1
  23961815.750     7041903.087 6  10684752.970 2
  21205172.025   -12941348.338 8 -10034468.133 7
 94  1 22 17 41 30.0010000  0  6  1 14 25 29 21 15
  23330564.087    30996511.282 7  10962296.890 4
  23604773.156    12253900.345 6  -6830581.151 2
  21041769.126   -11090400.556 8  -8647318.039 8
  24555142.798    -2174631.544 5  -2415461.946 1
  23978941.814     7131926.639 5  10754901.020 2
  21204536.105   -12944677.007 8 -10037061.898 7
 94  1 22 17 42  0.0010000  0  6  1 14 25 29 21 15
  23345883.511    31077048.006 6  11025052.737 4
  23589784.162    12175113.316 6  -6891973.640 2
  21042062.203   -11088890.232 9  -8646141.175 8
  24542608.116    -2240553.151 6  -2466829.367 1
  23996121.271     7222163.061 5  10825215.071 2
  21204021.302   -12947388.841 8 -10039175.044 7
 94  1 22 17 42 30.0010000  0  6  1 14 25 29 21 15
  23361216.636    31157589.970 7  11087812.611 4
  23574790.942    12096345.669 6  -6953350.995 3
  21042453.163   -11086828.062 9  -8644534.305 8
  24530079.639    -2306368.932 5  -2518114.292 1
  24013340.091     7312614.487 6  10895696.597 2
  21203622.548   -12949488.365 8 -10040811.043 7
 94  1 22 17 43  0.0010000  0  6  1 14 25 29 21 15
  23376545.834    31238153.301 7  11150589.175 4
  23559805.486    12017608.572 6  -7014704.589 3
  21042950.159   -11084209.371 9  -8642493.780 8
  24517570.229    -2372085.260 5  -2569321.737 1
  24030584.213     7403274.007 5  10966340.282 2
  21203338.644   -12950975.127 8 -10041969.563 7
 94  1 22 17 43 30.0010000  0  6  1 14 25 29 21 15
  23391880.398    31318762.514 7  11213401.478 4
  23544828.874    11938909.186 6  -7076028.783 3
  21043554.510   -11081040.245 9  -8640024.352 8
  24505087.321    -2437681.943 5  -2620436.018 1
  24047874.383     7494137.507 5  11037142.965 2
  21203171.720   -12951847.125 8 -10042649.055 7
 94  1 22 17 44  0.0010000  0  6  1 14 25 29 21 15
  23407231.841    31399405.782 7  11276240.281 4
  23529861.226    11860240.397 6  -7137329.155 3
  21044255.845   -11077345.364 9  -8637145.235 8
  24492635.981    -2503143.695 6  -2671445.071 1
  24065190.695     7585203.498 5  11108103.366 1
  21203126.991   -12952107.116 8 -10042851.651 7
 94  1 22 17 44 30.0010000  0  6  1 14 25 29 21 15
  23422574.409    31480071.358 6  11339096.516 4
  23514893.818    11781592.391 6  -7198613.326 3
  21045062.646   -11073120.066 8  -8633852.819 8
  24480195.973    -2568474.096 6  -2722351.816 2
  24082569.814     7676459.329 5  11179211.724 1
  21203191.236   -12951760.106 8 -10042581.276 7
 94  1 22 17 45  0.0010000  0  6  1 14 25 29 21 15
  23437931.158    31560752.233 6  11401964.636 4
  23499928.748    11702948.029 6  -7259894.629 3
  21045969.129   -11068358.520 9  -8630142.544 8
  24467796.557    -2633670.192 6  -2773153.820 2
  24099960.085     7767902.263 5  11250465.848 1
  21203373.210   -12950808.911 8 -10041840.088 7
 94  1 22 17 45 30.0010000  0  6  1 14 25 29 21 15
  23453290.965    31641440.566 7  11464838.553 4
  23484958.252    11624296.742 6  -7321181.371 3
  21046975.442   -11063062.895 9  -8626016.099 8
  24455411.951    -2698747.822 6  -2823863.628 1
  24117404.798     7859538.863 4  11321870.927 1
  21203666.227   -12949252.354 8 -10040627.221 7
 94  1 22 17 46  0.0010000  0  6  1 14 25 29 21 15
  23468635.812    31722114.606 6  11527701.374 4
  23469987.965    11545639.136 6  -7382473.010 3
  21048085.873   -11057222.496 9  -8621465.152 9
  24443042.334    -2763726.481 6  -2874496.343 1
  24134884.797     7951376.853 5  11393432.948 1
  21204079.791   -12947091.169 8 -10038943.186 7
 94  1 22 17 46 30.0010000  0  6  1 14 25 29 21 15
  23483995.948    31802811.030 7  11590581.611 4
  23455029.641    11466993.212 6  -7443755.566 3
  21049308.517   -11050806.728 9  -8616465.890 9
  24430700.148    -2828609.206 6  -2925054.203 2
  24152402.240     8043435.437 4  11465166.710 1
  21204608.475   -12944312.330 8 -10036777.891 7
 94  1 22 17 47  0.0010000  0  6  1 14 25 29 21 15
  23499362.650    31883544.033 7  11653490.366 4
  23440065.051    11388368.927 6  -7505021.223 3
  21050635.848   -11043828.716 9  -8611028.493 9
  24418365.487    -2893396.734 5  -2975537.886 2
  24169970.438     8135707.780 5  11537067.140 1
  21205254.498   -12940910.982 8 -10034127.522 7
 94  1 22 17 47 30.0010000  0  6  1 14 25 29 21 15
  23514724.405    31964304.622 6  11716420.582 3
  23425109.364    11309785.743 6  -7566254.883 3
  21052065.978   -11036303.326 9  -8605164.566 9
  24406053.641    -2958096.688 5  -3025953.321 2
  24187556.053     8228177.969 5  11609121.688 1
  21206019.478   -12936890.253 8 -10030994.488 7
 94  1 22 17 48  0.0010000  0  6  1 14 25 29 21 15
  23530101.839    32045096.352 6  11779375.100 3
  23410164.530    11231252.525 6  -7627449.604 3
  21053601.635   -11028236.816 9  -8598878.999 9
  24393765.208    -3022692.069 5  -3076287.261 2
  24205198.600     8320836.327 5  11681322.975 1
  21206901.108   -12932251.707 8 -10027380.069 7
 94  1 22 17 48 30.0010000  0  6  1 14 25 29 21 15
  23545479.843    32125927.870 6  11842360.625 3
  23395231.089    11152759.143 6  -7688613.295 3
  21055238.742   -11019635.143 9  -8592176.424 9
  24381493.323    -3087164.280 5  -3126525.353 2
  24222846.362     8413676.069 5  11753665.534 1
  21207902.385   -12926994.404 8 -10023283.495 7
 94  1 22 17 49  0.0010000  0  6  1 14 25 29 21 15
  23560867.081    32206757.961 7  11905345.032 3
  23380300.525    11074298.598 6  -7749751.382 3
  21056974.450   -11010509.203 9  -8585065.312 9
  24369254.536    -3151500.260 5  -3176657.197 2
  24240562.448     8506691.880 5  11826145.265 2
  21209015.634   -12921123.715 8 -10018708.934 7
 94  1 22 17 49 30.0010000  0  6  1 14 25 29 21 15
  23576242.147    32287566.131 7  11968312.372 3
  23365374.728    10995864.481 6  -7810868.879 3
  21058811.908   -11000858.810 9  -8577545.547 9
  24357035.715    -3215697.263 5  -3226680.668 2
  24258289.865     8599891.751 5  11898768.469 2
  21210247.511   -12914646.550 8 -10013661.802 7
 94  1 22 17 50  0.0010000  0  6  1 14 25 29 21 15
  23591623.119    32368352.076 7  12031262.355 3
  23350457.085    10917445.674 7  -7871974.448 3
  21060749.107   -10990676.852 8  -8569611.569 9
  24344844.805    -3279747.529 4  -3276589.826 2
  24276070.346     8693290.800 6  11971546.795 2
  21211601.854   -12907566.127 8 -10008144.626 7
 94  1 22 17 50 30.0010000  0  6  1 14 25 29 21 15
  23606981.097    32449110.944 6  12094191.257 3
  23335535.335    10839043.263 7  -7933067.242 3
  21062788.385   -10979968.801 9  -8561267.652 9
  24332679.377    -3343659.324 5  -3326391.118 2
  24293868.635     8786892.644 5  12044483.195 2
  21213058.125   -12899884.878 8 -10002159.254 7
 94  1 22 17 51  0.0010000  0  6  1 14 25 29 21 15
  23622347.919    32529857.734 6  12157110.743 3
  23320620.390    10760675.480 7  -7994133.053 3
  21064924.256   -10968735.287 8  -8552514.285 9
  24320543.238    -3407437.229 5  -3376088.129 2
  24311735.995     8880701.262 5  12117580.693 2
  21214637.552   -12891598.424 8  -9995702.288 7
 94  1 22 17 51 30.0010000  0  6  1 14 25 29 21 15
  23637714.711    32610621.794 6  12220043.678 3
  23305715.729    10682345.854 7  -8055169.141 3
  21067164.545   -10956974.884 8  -8543350.353 9
  24308437.589    -3471084.858 6  -3425683.657 2
  24329611.061     8974706.633 5  12190831.637 2
  21216332.848   -12882705.016 8  -9988772.375 7
 94  1 22 17 52  0.0010000  0  6  1 14 25 29 21 15
  23653088.188    32691409.623 6  12282995.162 3
  23290813.555    10604050.386 7  -8116178.579 3
  21069501.338   -10944691.698 9  -8533779.052 9
  24296349.807    -3534597.263 5  -3475173.756 2
  24347537.421     9068892.155 5  12264222.739 2
  21218139.008   -12873203.914 8  -9981368.939 7
 94  1 22 17 52 30.0010000  0  6  1 14 25 29 21 15
  23668463.913    32772209.552 6  12345956.037 3
  23275927.031    10525779.045 7  -8177169.268 3
  21071933.374   -10931897.674 9  -8523809.709 9
  24284291.585    -3597988.040 5  -3524569.070 2
  24365486.505     9163226.378 4  12337729.867 2
  21220062.027   -12863095.020 9  -9973491.905 7
 94  1 22 17 53  0.0010000  0  6  1 14 25 29 21 15
  23683840.448    32853012.653 6  12408919.376 3
  23261028.815    10447526.966 6  -8238144.912 3
  21074467.670   -10918587.894 9  -8513438.472 9
  24272242.296    -3661264.852 6  -3573875.557 2
  24383476.990     9257695.919 5  12411342.400 2
  21222097.827   -12852379.043 8  -9965141.823 7
 94  1 22 17 53 30.0010000  0  6  1 14 25 29 21 15
  23699221.780    32933803.775 7  12471873.414 3
  23246142.171    10369289.815 6  -8299108.927 3
  21077099.218   -10904756.366 9  -8502660.685 9
  24260232.700    -3724430.499 6  -3623095.520 2
  24401465.947     9352298.636 4  12485058.617 2
  21224260.021   -12841058.253 8  -9956320.447 7
 94  1 22 17 54  0.0010000  0  6  1 14 25 29 21 15
  23714587.733    33014572.286 7  12534809.825 3
  23231261.312    10291075.343 6  -8360055.272 3
  21079830.297   -10890400.713 9  -8491474.488 9
  24248221.665    -3787496.554 6  -3672237.953 2
  24419492.017     9447040.501 3  12558883.446 2
  21226527.591   -12829132.232 8  -9947027.469 7
 94  1 22 17 54 30.0010000  0  6  1 14 25 29 21 15
  23729955.843    33095316.484 7  12597727.337 3
  23216387.020    10212898.276 6  -8420972.468 3
  21082662.916   -10875509.079 9  -8479870.638 9
  24236243.278    -3850476.504 5  -3721313.081 2
  24437556.851     9541944.819 4  12632834.615 1
  21228911.360   -12816604.016 8  -9937265.271 7
 94  1 22 17 55  0.0010000  0  6  1 14 25 29 21 15
  23745316.190    33176059.101 7  12660643.549 3
  23201517.464    10134780.265 6  -8481843.628 4
  21085606.818   -10860056.726 9  -8467829.878 9
  24224283.208    -3913351.522 6  -3770306.496 2
  24455656.701     9637045.693 3  12706939.168 1
  21231408.782   -12803468.526 8  -9927029.829 7
 94  1 22 17 55 30.0010000  0  6  1 14 25 29 21 15
  23760678.485    33256795.758 6  12723555.152 3
  23186660.889    10056722.141 6  -8542668.136 4
  21088655.707   -10844039.847 9  -8455349.215 9
  24212336.478    -3976108.842 6  -3819208.272 2
  24473803.169     9732354.547 3  12781205.774 1
  21234026.809   -12789726.851 8  -9916322.052 7
 94  1 22 17 56  0.0010000  0  6  1 14 25 29 21 15
  23776043.777    33337524.445 6  12786460.580 3
  23171821.252     9978719.556 6  -8603449.366 4
  21091812.252   -10827466.916 9  -8442435.286 9
  24200409.895    -4038746.314 5  -3868016.679 2
  24491945.919     9827871.147 3  12855634.072 1
  21236756.030   -12775380.045 8  -9905142.770 7
 94  1 22 17 56 30.0010000  0  6  1 14 25 29 21 15
  23791401.605    33418240.219 6  12849355.844 2
  23156981.046     9900759.655 6  -8664197.331 4
  21095064.461   -10810352.900 9  -8429099.717 9
  24188515.179    -4101249.262 5  -3916720.230 2
  24510190.298     9923589.291 4  12930219.671 1
  21239599.951   -12760428.570 8  -9893492.262 7
 94  1 22 17 57  0.0010000  0  6  1 14 25 29 21 15
  23806757.215    33498937.359 6  12912236.664 2
  23142151.392     9822823.107 7  -8724927.093 4
  21098422.076   -10792711.990 9  -8415353.579 9
  24176652.452    -4163618.356 6  -3965319.442 2
  24528425.474    10019481.330 4  13004940.917 1
  21242559.232   -12744873.446 8  -9881371.411 7
 94  1 22 17 57 30.0010000  0  6  1 14 25 29 21 15
  23822111.505    33579607.345 6  12975096.266 2
  23127323.807     9744905.796 7  -8785641.926 4
  21101872.837   -10774569.849 9  -8401216.884 9
  24164806.033    -4225869.163 5  -4013826.500 2
  24546704.900    10115535.096 4  13079788.071 1
  21245634.473   -12728718.172 8  -9868782.917 7
 94  1 22 17 58  0.0010000  0  6  1 14 25 29 21 15
  23837460.849    33660257.841 7  13037940.716 2
  23112502.997     9667024.060 7  -8846328.985 4
  21105417.464   -10755938.788 9  -8386699.204 9
  24152974.813    -4288015.843 5  -4062252.425 2
  24565011.846    10211751.628 4  13154761.909
  21248822.346   -12711961.323 8  -9855725.640 7
 94  1 22 17 58 30.0010000  0  6  1 14 25 29 21 15
  23852801.199    33740895.547 6  13100775.187 2
  23097696.877     9589195.792 7  -8906974.388 4
  21109057.604   -10736813.170 9  -8371796.156 9
  24141170.425    -4350064.396 6  -4110601.882 2
  24583359.145    10308127.008 4  13229859.377
  21252127.738   -12694601.033 8  -9842198.175 7
 94  1 22 17 59  0.0010000  0  6  1 14 25 29 21 15
  23868153.241    33821524.361 7  13163602.755 2
  23082899.211     9511437.193 7  -8967565.519 4
  21112792.988   -10717173.573 9  -8356492.619 9
  24129380.098    -4412027.820 5  -4158884.981 2
  24601720.473    10404661.269 5  13305080.880
  21255546.451   -12676639.582 8  -9828202.267 7
 94  1 22 17 59 30.0010000  0  6  1 14 25 29 21 15
  23883490.264    33902139.226 6  13226419.459 2
  23068118.964     9433761.527 7  -9028092.004 4
  21116632.130   -10697015.393 9  -8340784.969 9
  24117603.680    -4473899.676 5  -4207096.760 2
  24620134.056    10501362.355 5  13380432.216
  21259075.458   -12658077.931 8  -9813738.648 7
 94  1 22 18  0  0.0010000  0  6  1 14 25 29 21 15
  23898828.036    33982738.528 6  13289223.988 2
  23053348.969     9356164.349 7  -9088557.331 4
  21120568.675   -10676326.623 9  -8324663.873 9
  24105853.765    -4535674.006 6  -4255232.544 2
  24638566.705    10598225.352 5  13455909.765
  21262726.481   -12638913.979 8  -9798805.733 7
 94  1 22 18  0 30.0010000  0  6  1 14 25 29 21 15
  23914152.976    34063318.927 6  13352013.796 3
  23038598.670     9278638.547 6  -9148967.045 4
  21124609.037   -10655092.473 9  -8308117.828 9
  24094113.592    -4597341.395 6  -4303285.036 2
  24657022.319    10695241.234 5  13531506.490
  21266486.748   -12619147.387 8  -9783403.246 7
 94  1 22 18  1  0.0010000  0  6  1 14 25 29 21 15
  23929487.720    34143869.962 6  13414780.699 2
  23023856.676     9201175.249 6  -9209328.097 3
  21128754.688   -10633310.489 9  -8291144.863 9
  24082407.896    -4658886.022 6  -4351241.861 2
  24675518.734    10792432.882 5  13607240.257 1
  21270360.126   -12598777.607 8  -9767530.701 7
 94  1 22 18  1 30.0010000  0  6  1 14 25 29 21 15
  23944809.903    34224389.912 6  13477523.465 2
  23009124.155     9123766.318 6  -9269646.718 3
  21132999.959   -10611005.555 9  -8273764.435 9
  24070716.350    -4720301.936 6  -4399098.349 2
  24694043.419    10889805.342 4  13683114.688 1
  21274353.661   -12577807.578 8  -9751190.443 7
 94  1 22 18  2  0.0010000  0  6  1 14 25 29 21 15
  23960127.889    34304873.005 6  13540237.438 2
  22994410.101     9046422.415 6  -9329914.728 3
  21137343.472   -10588192.158 9  -8255987.792 9
  24059053.674    -4781594.767 6  -4446858.948 2
  24712603.331    10987350.752 5  13759124.000 1
  21278455.662   -12556246.685 8  -9734389.792 7
 94  1 22 18  2 30.0010000  0  6  1 14 25 29 21 15
  23975438.229    34385330.690 7  13602931.645 2
  22979708.309     8969154.227 6  -9390123.691 3
  21141781.359   -10564866.970 9  -8237812.348 9
  24047418.219    -4842752.764 6  -4494514.560 2
  24731201.406    11085084.542 4  13835280.075 1
  21282668.915   -12534092.668 8  -9717126.952 7
 94  1 22 18  3  0.0010000  0  6  1 14 25 29 21 15
  23990738.707    34465780.819 6  13665619.955 2
  22965014.042     8891959.515 6  -9450275.412 3
  21146315.301   -10541039.586 9  -8219245.591 9
  24035798.623    -4903781.648 6  -4542069.478 2
  24749849.816    11183008.794 5  13911584.528 1
  21286998.188   -12511345.023 8  -9699401.543 7
 94  1 22 18  3 30.0010000  0  6  1 14 25 29 21 15
  24006054.414    34546234.469 6  13728310.998 2
  22950339.561     8814836.573 7  -9510371.214 3
  21150939.839   -10516722.447 9  -8200297.196 8
  24024213.353    -4964699.621 6  -4589537.995 2
  24768500.084    11281088.685 4  13988010.375 1
  21291439.073   -12488009.042 8  -9681217.677 7
 94  1 22 18  4  0.0010000  0  6  1 14 25 29 21 15
  24021361.607    34626688.487 6  13791002.331 3
  22935674.253     8737786.993 7  -9570409.838 4
  21155664.178   -10491902.659 9  -8180957.134 8
  24012635.938    -5025520.242 6  -4636930.702 2
  24787209.352    11379319.150 5  14064553.557 1
  21295994.000   -12464085.658 8  -9662576.095 7
 94  1 22 18  4 30.0010000  0  6  1 14 25 29 21 15
  24036671.768    34707147.706 6  13853697.686 2
  22921025.434     8660779.501 7  -9630415.668 4
  21160482.623   -10466577.709 9  -8161223.436 8
  24001082.057    -5086250.754 5  -4684253.098 2
  24805922.667    11477693.951 4  14141209.026 1
  21300658.741   -12439573.388 8  -9643475.668 7
 94  1 22 18  5  0.0010000  0  6  1 14 25 29 21 15
  24051983.458    34787600.165 6  13916387.819 3
  22906379.973     8583814.169 7  -9690388.664 4
  21165397.420   -10440755.434 9  -8141102.212 8
  23989541.486    -5146905.831 6  -4731516.842 2
  24824670.458    11576193.658 5  14217962.032 1
  21305433.206   -12414475.692 8  -9623919.045 7
 94  1 22 18  5 30.0010000  0  6  1 14 25 29 21 15
  24067290.591    34868026.164 6  13979057.311 3
  22891737.450     8506898.762 7  -9750322.728 4
  21170404.644   -10414437.919 9  -8120595.087 8
  23978008.830    -5207470.041 5  -4778709.718 2
  24843431.620    11674827.848 4  14294819.661 1
  21310319.073   -12388791.766 8  -9603905.618 7
 94  1 22 18  6  0.0010000  0  6  1 14 25 29 21 15
  24082588.911    34948412.586 6  14041695.977 3
  22877115.612     8430026.415 7  -9810223.269 4
  21175508.970   -10387626.539 9  -8099703.131 8
  23966506.393    -5267933.753 6  -4825824.264 2
  24862236.102    11773603.755 4  14371787.818 1
  21315317.962   -12362526.682 8  -9583439.372 7
 94  1 22 18  6 30.0010000  0  6  1 14 25 29 21 15
  24097877.337    35028763.039 6  14104306.584 2
  22862490.777     8353201.053 7  -9870087.179 4
  21180703.114   -10360322.452 9  -8078427.254 8
  23955019.875    -5328283.001 6  -4872849.639 2
  24881062.379    11872530.343 5  14448873.310 1
  21320428.255   -12335675.733 8  -9562516.580 7
 94  1 22 18  7  0.0010000  0  7  1 22 14 25 29 21 15
  24113158.688    35109069.658 6  14166883.068 3
  24980180.931    -1766331.28114  -1806206.776 1
  22847888.156     8276443.227 7  -9929898.470 4
  21185994.661   -10332523.291 9  -8056765.608 8
  23943564.745    -5388504.013 6  -4919775.177 2
  24899907.033    11971614.054 5  14526081.331 1
  21325647.402   -12308238.487 8  -9541136.923 7
 94  1 22 18  7 30.0010000  0  7  1 22 14 25 29 21 15
  24128432.544    35189334.943 6  14229427.273 2
  24963879.116    -1851942.585 4  -1872916.656 1
  22833293.600     8199749.232 7  -9989660.057 4
  21191378.994   -10304222.252 9  -8034712.885 8
  23932130.901    -5448586.512 6  -4966592.667 2
  24918800.194    12070856.987 5  14603413.389 1
  21330979.870   -12280215.561 8  -9519300.932 7
 94  1 22 18  8  0.0010000  0  7  1 22 14 25 29 21 15
  24143697.256    35269566.411 6  14291945.265 3
  24947574.304    -1937645.388 5  -1939697.903 1
  22818712.114     8123127.572 7 -10049365.220 4
  21196860.819   -10275412.919 9  -8012264.094 8
  23920722.658    -5508539.589 6  -5013309.352 2
  24937713.860    12170252.332 5  14680864.243 1
  21336430.517   -12251606.101 8  -9497007.878 7
 94  1 22 18  8 30.0010000  0  6  1 22 14 25 29 15
  24158957.592    35349759.355 6  14354433.205 2
  24931249.975    -2023451.846 5  -2006559.845 1
  22804146.158     8046582.786 7 -10109010.514 4
  21202437.588   -10246097.820 9  -7989421.189 8
  23909331.654    -5568384.105 6  -5059941.466 2
  21341982.763   -12222417.566 8  -9474263.583 7
 94  1 22 18  9  0.0010000  0  6  1 22 14 25 29 15
  24174218.347    35429929.516 6  14416903.295 2
  24914898.035    -2109343.909 5  -2073488.606 1
  22789599.359     7970131.484 7 -10168582.959 4
  21208115.267   -10216273.364 9  -7966181.376 8
  23897970.719    -5628118.739 6  -5106487.923 2
  21347642.455   -12192645.736 8  -9451064.812 7
 94  1 22 18  9 30.0010000  0  6  1 22 14 25 29 15
  24189464.712    35510086.372 6  14479363.094 2
  24898536.682    -2195316.272 5  -2140479.954 1
  22775069.168     7893778.700 7 -10228078.593 4
  21213883.304   -10185949.654 9  -7942552.551 8
  23886614.011    -5687758.587 6  -5152960.548 2
  21353426.980   -12162291.206 8  -9427411.965 7
 94  1 22 18 10  0.0010000  0  6  1 22 14 25 29 15
  24204717.493    35590231.877 6  14541813.992 2
  24882160.459    -2281371.919 5  -2207536.162 1
  22760558.223     7817532.566 7 -10287491.180 4
  21219744.457   -10155146.002 9  -7918549.734 8
  23875286.473    -5747316.173 6  -5199369.035 2
  21359311.966   -12131359.799 8  -9403309.597 7
 94  1 22 18 10 30.0010000  0  6  1 22 14 25 29 15
  24219976.239    35670432.012 6  14604307.508 3
  24865778.840    -2367439.934 5  -2274601.926 1
  22746085.173     7741463.755 7 -10346765.587 4
  21225710.057   -10123802.435 9  -7894126.213 8
  23863977.192    -5806712.889 6  -5245652.195 2
  21365318.878   -12099784.099 8  -9378705.196 7
 94  1 22 18 11  0.0010000  0  6  1 22 14 25 29 15
  24235258.939    35750658.575 5  14666821.557 3
  24849399.049    -2453535.284 5  -2341688.871 1
  22731640.603     7665559.122 7 -10405912.079 4
  21231779.325   -10091939.336 9  -7869297.866 8
  23852704.187    -5865951.743 6  -5291812.399 2
  21371445.676   -12067582.842 8  -9353613.344 7
 94  1 22 18 11 30.0010000  0  6  1 22 14 25 29 15
  24250510.911    35830839.479 6  14729300.061 3
  24833004.898    -2539725.806 5  -2408850.107 1
  22717216.628     7589759.700 7 -10464976.542 4
  21237927.499   -10059609.400 9  -7844105.742 8
  23841456.333    -5925084.942 6  -5337890.172 2
  21377679.920   -12034813.501 8  -9328078.832 7
 94  1 22 18 12  0.0010000  0  6  1 22 14 25 29 15
  24265754.098    35910962.487 5  14791733.443 3
  24816578.940    -2626014.571 5  -2476087.952 1
  22702811.990     7514065.001 8 -10523959.445 4
  21244168.638   -10026802.105 9  -7818541.654 8
  23830225.238    -5984112.293 6  -5383885.536 2
  21384027.246   -12001477.997 8  -9302103.154 6
 94  1 22 18 12 30.0010000  0  6  1 22 14 25 29 15
  24280986.373    35991017.181 5  14854113.632 3
  24800149.923    -2712402.590 5  -2543403.030 1
  22688427.289     7438471.323 7 -10582863.591 4
  21250508.769    -9993507.730 9  -7792598.036 8
  23819011.382    -6043046.453 6  -5429808.314 2
  21390472.844   -11967579.283 8  -9275688.596 6
 94  1 22 18 13  0.0010000  0  6  1 22 14 25 29 15
  24296218.858    36071015.921 6  14916450.134 3
  24783689.849    -2798880.762 5  -2610788.368 1
  22674061.234     7362975.890 7 -10641691.241 4
  21256936.769    -9959718.580 9  -7766268.871 8
  23807808.647    -6101905.287 6  -5475672.295 2
  21397035.211   -11933115.171 8  -9248833.498 6
 94  1 22 18 13 30.0010000  0  6  1 22 14 25 29 15
  24311428.528    36150969.256 6  14978751.346 3
  24767209.388    -2885457.948 5  -2678250.930 1
  22659707.891     7287560.509 8 -10700456.475 4
  21263459.413    -9925443.783 9  -7739561.263 8
  23796620.003    -6160714.854 6  -5521497.927 2
  21403697.199   -11898093.252 8  -9221543.731 6
 94  1 22 18 14  0.0010000  0  6  1 22 14 25 29 15
  24326644.135    36230882.723 6  15041021.408 2
  24750720.503    -2972124.209 4  -2745782.697 1
  22645369.837     7212218.102 7 -10759164.867 4
  21270069.058    -9890695.692 9  -7712484.879 8
  23785434.057    -6219482.055 6  -5567290.609 2
  21410467.951   -11862518.922 8  -9193823.501 6
 94  1 22 18 14 30.0010000  0  6  1 22 14 25 29 15
  24341836.237    36310765.035 6  15103267.288 2
  24734187.668    -3058868.905 4  -2813375.707 1
  22631047.192     7136950.249 8 -10817815.163 4
  21276775.025    -9855472.093 9  -7685037.950 8
  23774264.089    -6278182.457 6  -5613031.194 2
  21417342.163   -11826386.137 8  -9165668.129 6
 94  1 22 18 15  0.0010000  0  6  1 22 14 25 29 15
  24357035.895    36390621.778 6  15165493.233 2
  24717692.218    -3145682.228 5  -2881022.235 1
  22616739.417     7061749.918 7 -10876412.835 5
  21283564.275    -9819786.571 9  -7657231.078 8
  23763114.568    -6336786.787 6  -5658696.925 2
  21424326.607   -11789695.803 8  -9137078.309 6
 94  1 22 18 15 30.0010000  0  6  1 22 14 25 29 15
  24372220.743    36470443.832 6  15227692.129 2
  24701160.373    -3232551.370 5  -2948712.227 1
  22602445.912     6986626.322 7 -10934950.692 5
  21290443.343    -9783639.304 9  -7629064.422 8
  23751985.493    -6395268.186 6  -5704266.816 3
  21431415.410   -11752443.755 8  -9108050.783 6
 94  1 22 18 16  0.0010000  0  6  1 22 14 25 29 15
  24387398.006    36550225.903 6  15289859.842 2
  24684624.420    -3319448.175 5  -3016423.831 1
  22588168.566     6911597.584 7 -10993414.627 5
  21297409.710    -9747027.732 9  -7600535.960 8
  23740886.936    -6453586.573 6  -5749709.744 2
  21438608.900   -11714624.086 8  -9078580.946 6
 94  1 22 18 16 30.0010000  0  6  1 22 14 25 29 15
  24402575.239    36629964.175 6  15351993.406 2
  24668075.127    -3406381.109 5  -3084163.632 1
  22573904.861     6836664.019 7 -11051804.414 5
  21304465.386    -9709956.864 9  -7571649.599 8
  23729815.960    -6511747.527 6  -5795030.004 2
  21445912.654   -11676243.659 8  -9048674.174 6
 94  1 22 18 17  0.0010000  0  6  1 22 14 25 29 15
  24417743.298    36709657.711 6  15414092.170 2
  24651532.849    -3493347.345 5  -3151929.291 1
  22559668.107     6761831.163 7 -11110115.752 5
  21311609.830    -9672426.727 9  -7542405.376 8
  23718777.482    -6569776.032 6  -5840246.971 2
  21453322.564   -11637309.916 8  -9018336.223 6
 94  1 22 18 17 30.0010000  0  6  1 22 14 25 29 15
  24432898.736    36789297.496 6  15476149.003 2
  24634973.753    -3580348.498 5  -3219722.219 2
  22545446.492     6687111.838 7 -11168338.596 5
  21318835.997    -9634428.152 9  -7512796.139 8
  23707749.557    -6627701.394 6  -5885383.647 2
  21460837.042   -11597829.019 8  -8987571.951 6
 94  1 22 18 18  0.0010000  0  6  1 22 14 25 29 15
  24448035.557    36868887.095 6  15538166.757 2
  24618404.313    -3667387.539 5  -3287544.675 2
  22531249.041     6612513.809 7 -11226466.930 5
  21326157.169    -9595967.585 9  -7482826.882 8
  23696743.516    -6685541.099 6  -5930453.559 2
  21468455.098   -11557804.112 8  -8956383.756 6
 94  1 22 18 18 30.0010000  0  6  1 22 14 25 29 15
  24463178.224    36948425.924 6  15600144.920 2
  24601825.940    -3754478.942 4  -3355407.911 2
  22517083.188     6538034.178 7 -11284503.009 5
  21333563.841    -9557040.831 9  -7452494.394 8
  23685742.751    -6743329.900 6  -5975483.734 3
  21476172.025   -11517239.305 8  -8924774.842 6
 94  1 22 18 19  0.0010000  0  6  1 22 14 25 29 15
  24478307.940    37027909.561 6  15662080.096 3
  24585259.829    -3841612.170 5  -3423303.819 2
  22502930.585     6463671.702 7 -11342447.800 5
  21341062.040    -9517646.723 9  -7421797.724 8
  23674765.281    -6801059.116 6  -6020467.594 3
  21483989.833   -11476134.939 8  -8892745.526 6
 94  1 22 18 19 30.0010000  0  6  1 22 14 25 29 15
  24493422.966    37107336.682 6  15723971.259 3
  24568662.209    -3928788.155 5  -3491233.001 2
  22488800.497     6389419.384 7 -11400306.768 5
  21348643.282    -9477795.930 9  -7390745.179 8
  23663787.301    -6858710.747 6  -6065390.955 2
  21491918.265   -11434490.826 8  -8860295.617 6
 94  1 22 18 20  0.0010000  0  6  1 22 14 25 29 15
  24508520.874    37186701.201 6  15785813.582 3
  24552068.547    -4016014.062 5  -3559201.110 2
  22474684.680     6315260.482 7 -11458092.921 5
  21356312.453    -9437495.053 9  -7359341.946 8
  23652838.491    -6916270.613 6  -6110242.786 3
  21499944.758   -11392311.614 8  -8827428.751 6
 94  1 22 18 20 30.0010000  0  6  1 22 14 25 29 15
  24523616.114    37266012.429 6  15847614.435 3
  24535465.681    -4103275.970 5  -3627197.321 2
  22460593.445     6241193.491 8 -11515807.476 5
  21364068.353    -9396729.055 9  -7327576.274 8
  23641903.081    -6973731.027 6  -6155017.144 2
  21508077.498   -11349591.455 8  -8794140.370 6
 94  1 22 18 21  0.0010000  0  6  1 22 14 25 29 15
  24538693.186    37345258.843 6  15909364.740 3
  24518852.022    -4190575.749 5  -3695223.014 2
  22446517.889     6167221.141 8 -11573448.302 5
  21371913.112    -9355514.425 9  -7295461.014 8
  23630985.689    -7031088.628 6  -6199711.387 2
  21516303.413   -11306334.695 8  -8760433.850 6
 94  1 22 18 21 30.0010000  0  6  1 22 14 25 29 15
  24553761.924    37424445.624 6  15971068.563 3
  24502236.505    -4277912.766 5  -3763277.734 2
  22432459.062     6093360.633 8 -11631001.923 5
  21379841.364    -9313856.519 9  -7263000.344 8
  23620092.250    -7088359.199 6  -6244337.792 3
  21524641.871   -11262537.780 8  -8726306.421 6
 94  1 22 18 22  0.0010000  0  6  1 22 14 25 29 15
  24568822.268    37503583.721 5  16032734.530 2
  24485605.788    -4365281.636 5  -3831357.350 1
  22418431.533     6019626.986 7 -11688456.734 5
  21387852.928    -9271758.058 9  -7230196.392 8
  23609209.964    -7145558.150 6  -6288908.438 2
  21533074.103   -11218201.172 8  -8691758.477 6
 94  1 22 18 22 30.0010000  0  6  1 22 14 25 29 15
  24583874.968    37582690.249 5  16094375.814 2
  24468963.169    -4452667.885 5  -3899450.479 1
  22404427.208     5946034.975 7 -11745801.158 5
  21395943.966    -9229229.864 9  -7197057.565 8
  23598335.442    -7202692.336 6  -6333428.584 2
  21541618.128   -11173326.833 8  -8656791.502 6
 94  1 22 18 23  0.0010000  0  6  1 22 14 25 29 15
  24598916.934    37661769.774 5  16155996.130 2
  24452342.675    -4540070.285 4  -3967556.130 1
  22390449.894     5872593.131 7 -11803028.568 5
  21404119.636    -9186275.043 9  -7163586.327 8
  23587476.000    -7259750.050 6  -6377889.158 2
  21550257.487   -11127919.099 8  -8621408.884 6
 94  1 22 18 23 30.0010000  0  6  1 22 14 25 29 15
  24613965.256    37740835.547 5  16217605.673 2
  24435708.181    -4627468.800 5  -4035658.871 1
  22376501.121     5799303.906 7 -11860137.085 5
  21412375.741    -9142882.889 9  -7129774.303 8
  23576633.047    -7316714.980 6  -6422277.442 2
  21559001.594   -11081975.443 8  -8585608.694 6
 94  1 22 18 24  0.0010000  0  6  1 22 14 25 29 15
  24629017.236    37819887.771 5  16279204.708 2
  24419089.156    -4714847.894 5  -4103746.357 1
  22362582.266     5726155.658 7 -11917135.704 5
  21420718.695    -9099041.397 9  -7095612.124 8
  23565820.102    -7373567.978 6  -6466578.474 2
  21567842.503   -11035500.196 8  -8549394.243 6
 94  1 22 18 24 30.0010000  0  6  1 22 14 25 29 15
  24644061.811    37898905.507 4  16340776.819 2
  24402457.690    -4802205.008 4  -4171816.756 1
  22348688.685     5653134.144 7 -11974035.555 5
  21429148.139    -9054750.476 9  -7061099.771 8
  23555020.708    -7430300.868 6  -6510785.936 2
  21576788.490   -10988499.706 8  -8512770.527 7
 94  1 22 18 25  0.0010000  0  6  1 22 14 25 29 15
  24659072.569    37977863.910 4  16402302.652 2
  24385834.048    -4889554.401 5  -4239881.112 1
  22334815.039     5580238.644 7 -12030837.272 5
  21437660.267    -9010012.669 9  -7026239.196 8
  23544250.005    -7486912.272 6  -6554898.777 2
  21585828.942   -10940976.739 8  -8475739.695 7
 94  1 22 18 25 30.0010000  0  6  1 22 14 25 29 15
  24674085.066    38056750.761 4  16463772.761 1
  24369214.544    -4976905.893 5  -4307947.179 2
  22320970.564     5507475.094 7 -12087536.133 5
  21446256.725    -8964834.282 9  -6991035.291 8
  23533501.486    -7543409.575 6  -6598922.597 2
  21594975.460   -10892932.769 8  -8438302.880 7
 94  1 22 18 26  0.0010000  0  6  1 22 14 25 29 15
  24689098.703    38135577.719 5  16525196.307 1
  24352592.401    -5064265.818 5  -4376019.844 2
  22307150.761     5434847.747 8 -12144128.857 5
  21454940.214    -8919210.631 9  -6955484.451 8
  23522771.944    -7599791.303 6  -6642856.475 2
  21604213.894   -10844364.967 8  -8400457.886 7
 94  1 22 18 26 30.0010000  0  6  1 22 14 25 29 15
  24704083.589    38214341.252 6  16586570.296 1
  24335960.425    -5151662.508 5  -4444121.121 2
  22293359.498     5362367.082 8 -12200607.307 5
  21463701.109    -8873155.933 9  -6919597.714 8
  23512059.130    -7656075.875 6  -6686714.587 2
  21613555.097   -10795277.908 7  -8362208.282 7
 94  1 22 18 27  0.0010000  0  6  1 22 14 25 29 15
  24719058.102    38293052.267 6  16647903.549 1
  24319321.944    -5239093.894 5  -4512249.530 2
  22279594.767     5290048.117 8 -12256959.740 5
  21472548.554    -8826671.870 9  -6883376.413 8
  23501363.914    -7712270.997 6  -6730502.997 2
  21622998.110   -10745669.235 8  -8323552.227 6
 94  1 22 18 27 30.0010000  0  6  1 22 14 25 29 15
  24734024.191    38371725.524 6  16709207.202 1
  24302689.938    -5326541.701 5  -4580390.647 2
  22265862.684     5217881.897 8 -12313193.163 5
  21481476.823    -8779757.137 9  -6846819.504 8
  23490685.667    -7768382.613 6  -6774226.340 2
  21632539.724   -10695540.297 8  -8284490.760 6
 94  1 22 18 28  0.0010000  0  6  1 22 14 25 29 15
  24748992.859    38450354.061 6  16770476.098 2
  24286046.810    -5413992.877 5  -4648534.389 2
  22252155.333     5145854.000 8 -12369318.803 5
  21490485.077    -8732418.023 9  -6809931.926 8
  23480019.801    -7824414.536 6  -6817887.624 2
  21642172.686   -10644893.751 8  -8245025.982 6
 94  1 22 18 28 30.0010000  0  6  1 22 14 25 29 15
  24763936.464    38528918.983 6  16831695.400 2
  24269397.776    -5501438.155 5  -4716673.582 2
  22238476.973     5073964.532 8 -12425336.556 5
  21499570.527    -8684672.182 9  -6772727.425 8
  23469370.993    -7880376.230 6  -6861494.115 2
  21651910.334   -10593734.894 8  -8205161.984 6
 94  1 22 18 29  0.0010000  0  6  1 22 14 25 29 15
  24778873.143    38607415.880 6  16892861.653 2
  24252769.307    -5588851.661 5  -4784787.909 2
  22224814.441     5002209.127 8 -12481249.873 5
  21508736.532    -8636520.850 9  -6735206.946 8
  23458739.782    -7936263.235 6  -6905042.459 2
  21661746.765   -10542068.538 8  -8164902.536 6
 94  1 22 18 29 30.0010000  0  6  1 22 14 25 29 15
  24793804.786    38685847.003 6  16953976.694 2
  24236137.061    -5676235.031 5  -4852878.835 2
  22211193.041     4930582.036 8 -12537063.178 5
  21517975.715    -8587961.037 9  -6697368.172 8
  23448121.104    -7992080.662 6  -6948536.582 2
  21671670.585   -10489897.375 7  -8124249.718 6
 94  1 22 18 30  0.0010000  0  6  1 22 14 25 29 15
  24808716.703    38764221.586 6  17015047.669 2
  24219517.437    -5763586.456 5  -4920944.862 2
  22197585.222     4859095.111 8 -12592767.270 5
  21527294.704    -8538986.912 9  -6659206.571 8
  23437514.087    -8047823.923 6  -6991972.906 2
  21681694.505   -10437226.333 8  -8083207.406 6
 94  1 22 18 30 30.0010000  0  6  1 22 14 25 29 15
  24823619.026    38842562.960 6  17076092.741 2
  24202902.010    -5850903.251 5  -4988983.879 2
  22184015.715     4787770.755 8 -12648344.709 5
  21536692.358    -8489592.718 9  -6620717.637 8
  23426915.284    -8103491.536 6  -7035350.262 2
  21691810.492   -10384056.859 8  -8041776.690 6
 94  1 22 18 31  0.0010000  0  6  1 22 14 25 29 15
  24838520.810    38920876.217 6  17137115.965 2
  24186293.148    -5938189.776 6  -5056999.360 2
  22170476.189     4716613.838 8 -12703791.651 5
  21546175.873    -8439772.878 9  -6581897.017 8
  23416340.795    -8159085.902 6  -7078670.558 2
  21702021.723   -10330392.762 8  -7999960.553 6
 94  1 22 18 31 30.0010000  0  6  1 22 14 25 29 15
  24853430.208    38999166.804 6  17198121.481 2
  24169690.402    -6025442.572 5  -5124988.523 2
  22156968.920     4645633.115 8 -12759101.302 5
  21555735.895    -8389532.010 9  -6542748.351 8
  23405778.147    -8214597.605 6  -7121926.472 2
  21712331.406   -10276233.204 8  -7957758.364 6
 94  1 22 18 32  0.0010000  0  6  1 22 14 25 29 15
  24868318.082    39077424.243 6  17259101.197 2
  24153081.779    -6112650.338 5  -5192942.624 2
  22143493.518     4574839.438 8 -12814265.230 5
  21565374.522    -8338881.224 9  -6503280.246 7
  23395227.491    -8270013.067 6  -7165107.346 2
  21722728.118   -10221584.732 8  -7915175.177 6
 94  1 22 18 32 30.0010000  0  6  1 22 14 25 29 15
  24883200.199    39155624.166 5  17320036.028 2
  24136505.865    -6199807.814 5  -5260857.493 2
  22130058.649     4504233.224 8 -12869283.042 6
  21575086.568    -8287829.885 9  -6463500.010 7
  23384705.645    -8325336.728 6  -7208216.745 2
  21733219.205   -10166444.438 8  -7872208.761 6
 94  1 22 18 33  0.0010000  0  6  1 22 14 25 29 15
  24898052.667    39233741.758 5  17380906.745 2
  24119928.961    -6286914.821 4  -5328733.022 2
  22116657.177     4433799.699 8 -12924166.322 6
  21584881.507    -8236384.088 9  -6423412.429 7
  23374189.885    -8380573.417 6  -7251258.336 2
  21743808.894   -10110814.694 8  -7828860.963 6
 94  1 22 18 33 30.0010000  0  6  1 22 14 25 29 15
  24912909.452    39311783.733 5  17441718.532 2
  24103361.200    -6373958.594 5  -5396559.470 2
  22103285.054     4363532.213 8 -12978920.225 6
  21594743.240    -8184540.762 9  -6383015.082 7
  23363693.701    -8435721.136 6  -7294230.551 2
  21754488.311   -10054694.583 8  -7785131.054 6
 94  1 22 18 34  0.0010000  0  6  1 22 14 25 29 15
  24927752.086    39389752.796 5  17502473.500 2
  24086816.764    -6460941.170 6  -5464338.019 2
  22089938.294     4293425.249 8 -13033549.024 6
  21604686.427    -8132283.622 9  -6342295.270 7
  23353222.101    -8490790.334 6  -7337141.651 2
  21765262.522    -9998081.754 8  -7741017.229 6
 94  1 22 18 34 30.0010000  0  6  1 22 14 25 29 15
  24942572.446    39467657.391 5  17563178.222 2
  24070274.756    -6547873.005 6  -5532077.133 2
  22076631.916     4223476.880 8 -13088054.255 6
  21614709.718    -8079609.276 9  -6301250.388 7
  23342757.245    -8545788.374 6  -7379997.268 3
  21776125.652    -9940977.751 8  -7696520.646 6
 94  1 22 18 35  0.0010000  0  6  1 22 14 25 29 15
  24957402.550    39545538.948 5  17623865.023 2
  24053733.587    -6634745.038 5  -5599769.606 2
  22063355.907     4153694.093 8 -13142430.464 6
  21624816.051    -8026509.513 9  -6259873.987 7
  23332307.350    -8600692.340 6  -7422779.571 3
  21787085.255    -9883378.136 8  -7651637.876 6
 94  1 22 18 35 30.0010000  0  6  1 22 14 25 29 15
  24972213.856    39623412.437 5  17684545.565 2
  24037219.099    -6721549.056 5  -5667409.110 2
  22050112.095     4084091.809 8 -13196665.989 6
  21635002.549    -7972985.306 9  -6218166.852 7
  23321877.240    -8655488.736 6  -7465478.104 3
  21798139.892    -9825284.319 8  -7606370.020 6
 94  1 22 18 36  0.0010000  0  6  1 22 14 25 29 15
  24987033.527    39701264.789 5  17745209.571 2
  24020714.895    -6808299.173 5  -5735006.654 2
  22036902.220     4014681.016 8 -13250752.355 6
  21645265.465    -7919052.277 9  -6176141.171 7
  23311469.226    -8710174.366 6  -7508090.277 3
  21809285.846    -9766705.020 8  -7560723.874 6
 94  1 22 18 36 30.0010000  0  6  1 22 14 25 29 15
  25001837.548    39779090.077 5  17805852.510 2
  24004223.042    -6894996.885 5  -5802563.294 2
  22023731.378     3945470.542 8 -13304682.584 6
  21655602.368    -7864732.523 9  -6133814.143 7
  23301088.942    -8764735.865 7  -7550605.728 3
  21820527.853    -9707644.080 8  -7514702.430 6
 94  1 22 18 37  0.0010000  0  5  1 14 25 29 15
  25016644.148    39856876.961 4  17866465.519 2
  22010599.599     3876459.504 8 -13358457.411 6
  21666009.214    -7810038.845 8  -6091195.728 7
  23290727.725    -8819179.122 6  -7593029.054 3
  21831861.507    -9648105.356 7  -7468308.658 6
 94  1 22 18 37 30.0010000  0  6  1 22 14 25 29 15
  25031435.308    39934589.823 4  17927020.849 2
  23971250.968     7437659.69616    -62848.713
  21997505.534     3807659.888 8 -13412067.527 6
  21676486.061    -7754971.689 8  -6048286.315 7
  23280387.343    -8873520.423 6  -7635372.921 3
  21843279.762    -9588094.397 8  -7421546.929 6
 94  1 22 18 38  0.0010000  0  6  1 22 14 25 29 15
  25046211.928    40012227.086 4  17987517.253 2
  23954783.548     7351114.247 6   -130290.959 1
  21984453.739     3739062.232 8 -13465520.252 6
  21687035.967    -7699524.134 8  -6005080.470 7
  23270063.630    -8927770.659 6  -7677645.847 3
  21854792.392    -9527614.547 8  -7374419.840 6
 94  1 22 18 38 30.0010000  0  6  1 22 14 25 29 15
  25060962.257    40089802.017 4  18047965.098 2
  23938326.352     7264651.115 6   -197664.854 1
  21971437.201     3670665.748 8 -13518816.209 6
  21697665.709    -7643680.609 9  -5961566.083 7
  23259763.151    -8981935.937 6  -7719852.567 3
  21866384.497    -9466660.407 8  -7326923.147 6
 94  1 22 18 39  0.0010000  0  6  1 22 14 25 29 15
  25075722.239    40167320.781 4  18108369.248 2
  23921893.528     7178301.796 5   -264950.076 1
  21958462.003     3602481.222 8 -13571947.013 6
  21708370.068    -7587421.368 9  -5917727.753 7
  23249462.342    -9036023.666 6  -7761998.827 3
  21878075.953    -9405227.827 8  -7279053.653 6
 94  1 22 18 39 30.0010000  0  6  1 22 14 25 29 15
  25090465.162    40244780.855 4  18168727.512 2
  23905481.180     7092075.200 5   -332139.685 2
  21945527.188     3534501.257 8 -13624918.408 6
  21719153.903    -7530745.928 8  -5873565.109 7
  23239185.157    -9090036.823 6  -7804087.014 3
  21889856.418    -9343325.460 8  -7230818.120 6
 94  1 22 18 40  0.0010000  0  6  1 22 14 25 29 15
  25105183.473    40322185.404 4  18229042.703 2
  23889104.147     7005973.291 5   -399232.151 2
  21932623.251     3466709.869 8 -13677742.905 6
  21730016.732    -7473673.831 8  -5829093.382 7
  23228923.141    -9143972.681 6  -7846114.984 3
  21901719.745    -9280962.378 8  -7182223.589 6
 94  1 22 18 40 30.0010000  0  6  1 22 14 25 29 15
  25119907.870    40399520.880 4  18289303.976 1
  23872743.604     6919983.568 6   -466237.087 2
  21919761.885     3399103.842 8 -13730422.917 6
  21740951.033    -7416234.105 9  -5784335.211 7
  23218670.989    -9197843.498 6  -7888092.185 3
  21913679.785    -9218151.219 8  -7133279.860 6
 94  1 22 18 41  0.0010000  0  6  1 22 14 25 29 15
  25134612.270    40476780.102 4  18349505.860 1
  23856395.261     6834093.481 6   -533164.471 2
  21906932.416     3331690.055 8 -13782953.146 6
  21751946.581    -7358438.076 8  -5739299.381 7
  23208432.207    -9251639.629 7  -7930011.290 3
  21925712.795    -9154892.344 7  -7083987.319 6
 94  1 22 18 41 30.0010000  0  6  1 22 14 25 29 15
  25149294.995    40553973.127 3  18409656.182 1
  23840073.241     6748292.304 6   -600022.557 2
  21894142.041     3264462.829 8 -13835338.010 6
  21763005.295    -7300301.811 8  -5693998.440 7
  23198208.504    -9305351.006 7  -7971864.301 3
  21937838.141    -9091187.627 7  -7034347.315 6
 94  1 22 18 42  0.0010000  0  6  1 22 14 25 29 15
  25163980.479    40631111.562 3  18469763.865 1
  23823758.985     6662588.982 6   -666804.430 2
  21881381.675     3197432.918 8 -13887569.098 6
  21774137.069    -7241823.601 8  -5648431.049 7
  23188009.295    -9358978.555 7  -8013651.988 3
  21950044.161    -9027035.230 7  -6984358.481 6
 94  1 22 18 42 30.0010000  0  6  1 22 14 25 29 15
  25178650.703    40708201.036 3  18529833.333 1
  23807462.747     6576987.819 5   -733506.659 2
  21868672.513     3130616.638 8 -13939633.747 6
  21785328.261    -7182995.827 8  -5602591.284 7
  23177820.819    -9412517.282 7  -8055370.507 3
  21962341.228    -8962431.346 7  -6934017.849 6
 94  1 22 18 43  0.0010000  0  6  1 22 14 25 29 15
  25193313.492    40785255.370 3  18589875.622 1
  23791203.203     6491505.453 6   -800116.349 2
  21855999.956     3064023.803 8 -13991524.266 6
  21796597.100    -7123799.998 9  -5556464.681 7
  23167649.580    -9465953.796 7  -8097009.329 3
  21974717.650    -8897372.332 7  -6883322.571 6
 94  1 22 18 43 30.0010000  0  6  1 22 14 25 29 15
  25207970.435    40862288.056 3  18649900.848 1
  23774953.792     6406150.410 5   -866626.790 2
  21843368.621     2997664.058 8 -14043233.159 6
  21807936.360    -7064216.995 8  -5510036.417 7
  23157501.216    -9519287.671 7  -8138568.181 3
  21987182.570    -8831859.823 7  -6832273.918 6
 94  1 22 18 44  0.0010000  0  6  1 22 14 25 29 15
  25222624.590    40939297.344 3  18709908.050 1
  23758741.166     6320934.754 6   -933028.573 2
  21830791.518     2931554.964 8 -14094746.750 6
  21819346.731    -7004230.529 8  -5463293.777 7
  23147372.487    -9572514.031 7  -8180043.286 3
  21999740.307    -8765892.104 7  -6780870.553 5
 94  1 22 18 44 30.0010000  0  6  1 22 14 25 29 15
  25237268.013    41016293.808 3  18769905.091 1
  23742556.390     6235869.186 6   -999313.454 2
  21818260.822     2865710.123 8 -14146054.398 6
  21830843.891    -6943822.930 8  -5416222.964 7
  23137268.852    -9625616.952 7  -8221422.177 3
  22012385.133    -8699458.511 7  -6729104.178 5
 94  1 22 18 45  0.0010000  0  6  1 22 14 25 29 15
  25251940.216    41093292.513 3  18829903.898 1
  23726397.817     6150968.866 6  -1065469.593 2
  21805781.332     2800126.442 8 -14197158.568 6
  21842422.955    -6882981.077 8  -5368813.788 7
  23127184.793    -9678600.818 7  -8262708.259 3
  22025114.291    -8632554.609 7  -6676971.332 5
 94  1 22 18 45 30.0010000  0  5 22 14 25 29 15
  23710271.051     6066238.413 5  -1131493.307 2
  21793350.108     2734811.469 8 -14248053.381 6
  21854081.584    -6821720.085 8  -5321078.000 7
  23117126.097    -9731467.465 7  -8303903.090 3
  22037932.607    -8565177.469 7  -6624469.711 5
 94  1 22 18 46  0.0010000  0  5 22 14 25 29 15
  23694181.220     5981685.662 6  -1197378.663 2
  21780969.519     2669759.447 8 -14298743.266 6
  21865815.011    -6760061.922 9  -5273032.724 7
  23107086.077    -9784214.985 7  -8345005.021 3
  22050848.835    -8497325.603 7  -6571598.190 5
 94  1 22 18 46 30.0010000  0  5 22 14 25 29 15
  23678128.593     5897304.451 5  -1263130.196 2
  21768641.753     2604962.362 8 -14349234.488 6
  21877621.528    -6698012.644 9  -5224682.686 7
  23097073.369    -9836849.450 7  -8386018.874 3
  22063843.789    -8429002.679 7  -6518359.602 5
 94  1 22 18 47  0.0010000  0  5 22 14 25 29 15
  23662103.127     5813092.673 6  -1328749.846 2
  21756358.357     2540420.339 8 -14399526.973 6
  21889499.335    -6635584.895 8  -5176037.733 7
  23087077.809    -9889375.890 7  -8426948.594 3
  22076937.704    -8360214.378 7  -6464758.379 5
 94  1 22 18 47 30.0010000  0  5 22 14 25 29 15
  23646114.745     5729046.317 6  -1394240.465 2
  21744128.743     2476146.015 8 -14449610.856 6
  21901452.210    -6572789.793 8  -5127106.524 7
  23077098.887    -9941793.024 6  -8467793.102 3
  22090114.992    -8290965.244 7  -6410798.065 5
 94  1 22 18 48  0.0010000  0  5 22 14 25 29 15
  23630150.437     5645164.535 6  -1459602.924 2
  21731944.548     2412134.703 8 -14499489.803 6
  21913469.900    -6509614.986 8  -5077879.437 7
  23067149.765    -9994098.172 7  -8508550.343 3
  22103383.296    -8221259.768 7  -6356482.185 5
 94  1 22 18 48 30.0010000  0  5 22 14 25 29 15
  23614212.061     5561440.861 6  -1524842.154 2
  21719817.613     2348387.692 8 -14549162.797 6
  21925565.717    -6446065.093 8  -5028360.120 7
  23057212.874   -10046305.689 7  -8549231.555 3
  22116730.236    -8151109.526 7  -6301819.703 5
 94  1 22 18 49  0.0010000  0  5 22 14 25 29 15
  23598318.024     5477873.856 6  -1589959.306 2
  21707736.097     2284910.700 8 -14598625.398 6
  21937722.481    -6382166.760 9  -4978569.251 7
  23047296.878   -10098413.246 7  -8589834.820 3
  22130159.889    -8080521.416 7  -6246816.035 5
 94  1 22 18 49 30.0010000  0  5 22 14 25 29 15
  23582431.932     5394470.270 5  -1654949.145 2
  21695709.263     2221708.703 8 -14647873.711 7
  21949947.867    -6317928.658 8  -4928513.639 7
  23037403.787   -10150417.002 7  -8630357.239 3
  22143674.923    -8009502.616 7  -6191476.786 5
 94  1 22 18 50  0.0010000  0  5 22 14 25 29 15
  23566605.828     5311239.515 6  -1719804.242 2
  21683733.454     2158767.169 8 -14696919.062 7
  21962237.349    -6253353.211 8  -4878195.158 7
  23027522.538   -10202314.751 7  -8670797.047 3
  22157270.061    -7938061.917 7  -6135808.762 5
 94  1 22 18 50 30.0010000  0  5 22 14 25 29 15
  23550799.871     5228190.506 6  -1784517.798 2
  21671806.271     2096085.113 8 -14745762.219 7
  21974590.178    -6188449.514 8  -4827620.902 7
  23017668.360   -10254105.526 7  -8711153.477 3
  22170943.865    -7866202.935 7  -6079814.790 5
 94  1 22 18 51  0.0010000  0  5 22 14 25 29 15
  23535031.117     5145330.833 6  -1849083.819 2
  21659930.472     2033667.627 8 -14794399.216 7
  21987002.905    -6123208.150 8  -4776783.526 7
  23007836.696   -10305782.239 7  -8751421.023 3
  22184702.270    -7793930.503 7  -6023498.699 5
 94  1 22 18 51 30.0010000  0  5 22 14 25 29 15
  23519306.163     5062662.192 6  -1913500.940 2
  21648098.923     1971508.521 8 -14842834.889 7
  21999488.781    -6057598.302 8  -4725659.026 7
  22998022.001   -10357351.564 7  -8791604.932 3
  22198525.251    -7721246.731 7  -5966862.048 5
 94  1 22 18 52  0.0010000  0  5 22 14 25 29 15
  23503607.321     4980178.979 6  -1977773.596 2
  21636318.159     1909602.739 8 -14891073.164 7
  22012044.599    -5991622.833 8  -4674249.618 6
  22988229.640   -10408819.672 7  -8831709.917 4
  22212435.291    -7648156.018 7  -5909908.317 5
 94  1 22 18 52 30.0010000  0  5 22 14 25 29 15
  23487937.379     4897865.094 6  -2041914.276 2
  21624589.049     1847965.204 8 -14939102.430 7
  22024662.893    -5925305.046 8  -4622573.465 6
  22978452.418   -10460195.841 7  -8871743.269 3
  22226421.988    -7574667.384 7  -5852644.503 5
 94  1 22 18 53  0.0010000  0  5 22 14 25 29 15
  23472314.775     4815712.884 6  -2105928.940 2
  21612913.901     1786608.975 8 -14986912.465 7
  22037347.951    -5858642.346 8  -4570628.560 6
  22968696.332   -10511478.641 7  -8911703.911 3
  22240482.854    -7500783.581 7  -5795072.797 5
 94  1 22 18 53 30.0010000  0  5 22 14 25 29 15
  23456709.678     4733728.907 6  -2169812.582 2
  21601289.928     1725529.015 8 -15034507.238 7
  22050096.896    -5791651.377 8  -4518427.850 6
  22958949.960   -10562667.703 7  -8951591.480 3
  22254619.388    -7426503.838 7  -5737192.550 5
 94  1 22 18 54  0.0010000  0  5 22 14 25 29 15
  23441140.796     4651935.240 6  -2233547.915 2
  21589719.978     1664728.829 8 -15081884.005 7
  22062902.980    -5724358.644 8  -4465992.007 6
  22949229.999   -10613761.399 7  -8991404.731 4
  22268828.531    -7351833.931 7  -5679008.264 5
 94  1 22 18 54 30.0010000  0  5 22 14 25 29 15
  23425615.144     4570337.167 6  -2297130.819 2
  21578198.384     1604197.830 8 -15129051.010 7
  22075766.925    -5656765.494 8  -4413322.072 7
  22939527.126   -10664766.754 7  -9031149.182 4
  22283110.224    -7276780.446 7  -5620525.081 5
 94  1 22 18 55  0.0010000  0  5 22 14 25 29 15
  23410127.956     4488955.326 6  -2360545.320 2
  21566733.871     1543923.082 8 -15176018.345 7
  22088690.228    -5588857.381 8  -4360406.722 7
  22929836.185   -10715689.914 7  -9070829.553 4
  22297458.351    -7201347.700 7  -5561746.405 5
 94  1 22 18 55 30.0010000  0  5 22 14 25 29 15
  23394689.873     4407814.198 6  -2423772.076 2
  21555310.849     1483904.701 8 -15222785.912 7
  22101666.505    -5520641.168 8  -4307251.262 7
  22920158.524   -10766542.744 7  -9110455.126 4
  22311891.859    -7125535.235 7  -5502671.815 5
 94  1 22 18 56  0.0010000  0  5 22 14 25 29 15
  23379294.391     4326905.672 6  -2486817.655 2
  21543938.372     1424146.840 8 -15269350.474 7
  22114705.258    -5452115.967 8  -4253855.065 7
  22910491.387   -10817329.638 7  -9150029.355 4
  22326388.113    -7049348.908 7  -5443305.940 5
 94  1 22 18 56 30.0010000  0  5 22 14 25 29 15
  23363934.015     4246199.664 6  -2549705.509 2
  21532619.558     1364653.596 8 -15315708.844 7
  22127807.837    -5383285.912 8  -4200221.310 7
  22900835.042   -10868055.397 7  -9189555.899 4
  22340954.639    -6972798.912 7  -5383656.639 5
 94  1 22 18 57  0.0010000  0  5 22 14 25 29 15
  23348614.321     4165681.143 6  -2612447.128 2
  21521349.999     1305434.256 8 -15361853.787 7
  22140956.675    -5314159.524 8  -4146356.627 6
  22891200.072   -10918723.680 7  -9229037.697 4
  22355588.708    -6895891.688 7  -5323728.990 5
 94  1 22 18 57 30.0010000  0  5 22 14 25 29 15
  23333324.815     4085338.516 6  -2675051.791 2
  21510133.714     1246510.579 8 -15407768.323 7
  22154172.096    -5244729.732 8  -4092255.538 6
  22881566.541   -10969316.331 7  -9268460.546 4
  22370296.076    -6818616.946 7  -5263514.964 5
 94  1 22 18 58  0.0010000  0  5 22 14 25 29 15
  23318072.844     4005159.296 6  -2737529.057 2
  21498980.326     1187895.654 8 -15453442.282 7
  22167443.998    -5174985.564 8  -4037909.482 6
  22871960.771   -11019818.623 7  -9307812.972 4
  22385067.750    -6740972.872 7  -5203013.163 5
 94  1 22 18 58 30.0010000  0  5 22 14 25 29 15
  23302843.327     3925159.341 6  -2799866.680 2
  21487886.955     1129589.921 8 -15498875.330 7
  22180775.409    -5104928.949 8  -3983319.957 6
  22862372.269   -11070225.616 7  -9347091.154 4
  22399920.008    -6662963.163 7  -5142226.436 5
 94  1 22 18 59  0.0010000  0  5 22 14 25 29 15
  23287663.486     3845362.371 6  -2862046.172 2
  21476847.908     1071580.488 8 -15544077.458 7
  22194168.397    -5034558.754 8  -3928486.078 6
  22852791.472   -11120536.977 7  -9386294.815 4
  22414829.946    -6584588.827 7  -5081155.603 5
 94  1 22 18 59 30.0010000  0  5 22 14 25 29 15
  23272513.234     3765781.935 6  -2924056.857 2
  21465868.039     1013872.486 8 -15589044.741 7
  22207617.566    -4963877.274 8  -3873409.652 6
  22843235.497   -11170746.785 7  -9425419.341 4
  22429815.612    -6505852.077 7  -5019802.374 5
 94  1 22 19  0  0.0010000  0  5 22 14 25 29 15
  23257416.316     3686438.680 6  -2985882.751 2
  21454945.131      956459.044 8 -15633782.484 7
  22221124.805    -4892903.236 8  -3818105.236 6
  22833707.044   -11220850.172 7  -9464460.942 4
  22444863.634    -6426758.713 7  -4958171.232 5
 94  1 22 19  0 30.0010000  0  5 22 14 25 29 15
  23242364.036     3607348.084 6  -3047511.817 2
  21444071.928      899339.959 8 -15678290.855 7
  22234683.309    -4821643.660 8  -3762578.348 6
  22824190.851   -11270850.535 7  -9503422.255 4
  22459980.489    -6347312.025 7  -4896264.817 5
 94  1 22 19  1  0.0010000  0  5 22 14 25 29 15
  23227360.383     3528494.443 6  -3108956.208 2
  21433263.181      842530.412 8 -15722558.045 7
  22248294.186    -4750094.396 8  -3706825.723 6
  22814695.555   -11320762.005 7  -9542314.322 4
  22475169.384    -6267516.504 7  -4834086.535 5
 94  1 22 19  1 30.0010000  0  5 22 14 25 29 15
  23212396.272     3449879.696 6  -3170214.475 2
  21422511.454      786048.195 8 -15766570.152 8
  22261969.549    -4678256.010 8  -3650847.794 6
  22805215.488   -11370581.583 7  -9581134.768 4
  22490419.137    -6187370.766 7  -4771635.395 5
 94  1 22 19  2  0.0010000  0  5 22 14 25 29 15
  23197487.743     3371514.228 6  -3231278.501 2
  21411820.525      729882.414 8 -15810335.692 8
  22275692.309    -4606130.908 8  -3594646.453 6
  22795750.380   -11420314.261 7  -9619887.508 4
  22505731.816    -6106879.686 7  -4708915.137 5
 94  1 22 19  2 30.0010000  0  5 22 14 25 29 15
  23182625.472     3293395.368 6  -3292150.293 2
  21401198.998      674034.868 9 -15853853.273 8
  22289479.914    -4533705.503 8  -3538211.112 6
  22786300.023   -11469984.412 7  -9658591.505 4
  22521117.615    -6026049.691 7  -4645930.809 5
 94  1 22 19  3  0.0010000  0  5 22 14 25 29 15
  23167802.984     3215520.698 6  -3352831.908 2
  21390631.824      618494.234 9 -15897131.678 8
  22303314.976    -4460985.247 8  -3481546.019 6
  22776861.327   -11519577.550 7  -9697235.499 4
  22536555.158    -5944888.320 6  -4582688.221 5
 94  1 22 19  3 30.0010000  0  5 22 14 25 29 15
  23153030.620     3137897.816 6  -3413317.311 2
  21380116.603      563237.688 9 -15940188.717 8
  22317208.498    -4387989.188 8  -3424666.025 6
  22767437.951   -11569097.534 7  -9735822.527 4
  22552070.886    -5863404.838 7  -4519194.692 4
 94  1 22 19  4  0.0010000  0  5 22 14 25 29 15
  23138310.871     3060528.109 6  -3473605.391 2
  21369653.487      508265.982 9 -15983023.814 8
  22331150.526    -4314716.019 8  -3367570.089 6
  22758024.048   -11618560.202 7  -9774364.833 4
  22567630.175    -5781604.197 6  -4455453.960 5
 94  1 22 19  4 30.0010000  0  5 22 14 25 29 15
  23123633.182     2983404.653 6  -3533701.636 3
  21359249.040      453595.133 9 -16025624.474 8
  22345141.840    -4241170.652 7  -3310262.080 6
  22748619.798   -11667967.287 7  -9812863.877 4
  22583260.424    -5699491.526 7  -4391470.154 4
 94  1 22 19  5  0.0010000  0  5 22 14 25 29 15
  23108996.864     2906519.608 6  -3593612.050 3
  21348907.099      399237.842 9 -16067980.806 8
  22359184.089    -4167380.065 7  -3252762.973 6
  22739233.866   -11717309.423 7  -9851312.296 4
  22598941.788    -5617071.991 7  -4327247.220 4
 94  1 22 19  5 30.0010000  0  5 22 14 25 29 15
  23094417.807     2829877.255 6  -3653333.370 3
  21338626.286      345213.974 9 -16110077.346 8
  22373277.542    -4093345.327 8  -3195073.610 6
  22729851.291   -11766611.670 7  -9889729.609 4
  22614685.779    -5534344.465 7  -4262784.272 4
 94  1 22 19  6  0.0010000  0  5 22 14 25 29 15
  23079886.837     2753494.586 6  -3712852.374 3
  21328415.415      291545.773 9 -16151896.706 8
  22387408.410    -4019064.159 8  -3137192.243 6
  22720484.786   -11815853.005 7  -9928099.504 4
  22630490.717    -5451303.961 6  -4198077.486 4
 94  1 22 19  6 30.0010000  0  5 22 14 25 29 15
  23065392.681     2677373.758 6  -3772167.307 3
  21318268.040      238229.813 9 -16193441.604 8
  22401592.580    -3944550.050 8  -3079129.360 6
  22711124.036   -11865009.561 7  -9966403.302 4
  22646350.428    -5367951.675 6  -4133127.720 4
 94  1 22 19  7  0.0010000  0  5 22 14 25 29 15
  23050960.312     2601517.746 6  -3831275.888 3
  21308183.741      185250.241 9 -16234724.404 8
  22415810.208    -3869801.525 8  -3020883.782 6
  22701790.537   -11914083.368 7 -10004642.623 5
  22662265.420    -5284291.382 7  -4067937.958 4
 94  1 22 19  7 30.0010000  0  5 22 14 25 29 15
  23036581.127     2525956.698 6  -3890154.609 3
  21298166.176      132589.028 9 -16275759.116 8
  22430087.134    -3794790.055 8  -2962433.330 6
  22692467.112   -11963064.446 7 -10042809.719 5
  22678247.566    -5200312.755 7  -4002500.126 4
 94  1 22 19  8  0.0010000  0  5 22 14 25 29 15
  23022260.880     2450699.140 6  -3948796.923 3
  21288202.994       80240.659 9 -16316550.050 8
  22444413.796    -3719498.988 8  -2903765.049 6
  22683168.719   -12011919.870 7 -10080878.880 5
  22694287.841    -5116010.897 7  -3936810.421 4
 94  1 22 19  8 30.0010000  0  5 22 14 25 29 15
  23007996.336     2375729.258 6  -4007214.993 3
  21278294.943       28191.753 9 -16357107.628 8
  22458800.536    -3643919.723 8  -2844872.186 6
  22673896.288   -12060652.770 7 -10118852.557 4
  22710392.153    -5031390.062 6  -3870872.205 4
 94  1 22 19  9  0.0010000  0  5 22 14 25 29 15
  22993788.302     2301057.192 6  -4065400.958 3
  21268452.757      -23552.673 9 -16397427.953 8
  22473239.560    -3568039.192 8  -2785744.547 6
  22664643.674   -12109269.889 7 -10156736.068 4
  22726564.727    -4946448.626 6  -3804684.139 4
 94  1 22 19  9 30.0010000  0  5 22 14 25 29 15
  22979631.112     2226678.617 6  -4123358.304 3
  21258668.790      -74976.144 9 -16437498.184 8
  22487729.639    -3491864.919 7  -2726387.987 6
  22655416.871   -12157766.067 7 -10194525.274 4
  22742776.064    -4861195.974 6  -3738253.578 4
 94  1 22 19 10  0.0010000  0  5 22 14 25 29 15
  22965536.640     2152593.120 6  -4181087.253 3
  21248951.467     -126043.158 9 -16477290.676 8
  22502286.961    -3415392.289 7  -2666798.996 5
  22646210.545   -12206131.602 7 -10232212.701 5
  22759063.878    -4775631.160 7  -3671579.784 4
 94  1 22 19 10 30.0010000  0  5 22 14 25 29 15
  22951494.361     2078816.417 6  -4238575.542 3
  21239301.358     -176731.158 8 -16516787.811 8
  22516893.419    -3338631.808 8  -2606985.722 5
  22637029.461   -12254382.803 7 -10269811.059 5
  22775403.886    -4689752.830 7  -3604661.652 4
 94  1 22 19 11  0.0010000  0  5 22 14 25 29 15
  22937513.750     2005353.993 6  -4295819.009 3
  21229730.214     -227032.828 8 -16555983.903 8
  22531552.221    -3261590.547 8  -2546953.652 6
  22627864.805   -12302546.179 7 -10307340.943 5
  22791808.589    -4603570.487 7  -3537506.632 4
 94  1 22 19 11 30.0010000  0  5 22 14 25 29 15
  22923597.054     1932194.824 6  -4352826.134 3
  21220230.900     -276946.102 8 -16594877.381 8
  22546266.215    -3184278.995 8  -2486710.933 6
  22618715.529   -12350624.636 8 -10344804.673 5
  22808263.628    -4517095.551 7  -3470123.603 4
 94  1 22 19 12  0.0010000  0  5 22 14 25 29 15
  22909726.077     1859335.831 6  -4409599.315 3
  21210804.226     -326482.013 8 -16633476.796 8
  22561027.006    -3106722.110 8  -2426277.075 6
  22609583.041   -12398633.258 8 -10382214.023 5
  22824766.243    -4430339.165 6  -3402521.308 4
 94  1 22 19 12 30.0010000  0  5 22 14 25 29 15
  22895925.401     1786772.769 7  -4466141.959 3
  21201451.301     -375647.849 8 -16671787.839 8
  22575827.010    -3028937.950 7  -2365666.091 5
  22600457.389   -12446578.824 7 -10419574.164 5
  22841331.096    -4343307.156 6  -3334704.253 4
 94  1 22 19 13  0.0010000  0  5 22 14 25 29 15
  22882162.618     1714505.678 6  -4522453.987 3
  21192166.728     -424442.954 9 -16709809.988 8
  22590668.596    -2950924.128 7  -2304876.162 5
  22591350.204   -12494438.723 8 -10456867.567 5
  22857942.596    -4255997.235 6  -3266670.629 4
 94  1 22 19 13 30.0010000  0  5 22 14 25 29 15
  22868473.525     1642551.944 6  -4578521.772 3
  21182951.798     -472858.558 8 -16747536.429 8
  22605557.368    -2872695.010 7  -2243918.493 5
  22582261.456   -12542193.414 7 -10494079.027 5
  22874608.568    -4168408.537 6  -3198419.755 5
 94  1 22 19 14  0.0010000  0  5 22 14 25 29 15
  22854848.378     1570916.580 7  -4634341.516 3
  21173806.629     -520906.362 8 -16784976.285 8
  22620479.208    -2794269.681 7  -2182807.883 5
  22573192.854   -12589865.134 8 -10531225.799 5
  22891336.867    -4080550.655 7  -3129959.160 4
 94  1 22 19 14 30.0010000  0  5 22 14 25 29 15
  22841271.617     1499600.225 7  -4689912.667 3
  21164731.221     -568596.544 8 -16822137.471 8
  22635448.805    -2715643.337 8  -2121540.690 5
  22564135.614   -12637463.343 8 -10568315.289 5
  22908104.889    -3992432.489 7  -3061295.693 4
 94  1 22 19 15  0.0010000  0  5 22 14 25 29 15
  22827765.307     1428621.572 7  -4745220.658 3
  21155728.244     -615914.250 8 -16859008.409 8
  22650448.291    -2636802.189 8  -2060106.086 5
  22555095.792   -12684978.431 7 -10605340.012 5
  22924923.516    -3904049.656 6  -2992425.999 4
 94  1 22 19 15 30.0010000  0  6 22 14 18 25 29 15
  22814331.667     1358000.387 7  -4800250.098 3
  21146799.345     -662845.195 9 -16895577.989 8
  25143799.500     -195758.10615  -1208421.502 1
  22665491.097    -2557720.056 8  -1998483.673 5
  22546064.274   -12732402.612 7 -10642293.927 5
  22941788.940    -3815391.973 6  -2923342.179 4
 94  1 22 19 16  0.0010000  0  6 22 14 18 25 29 15
  22800952.679     1287739.968 6  -4854998.448 3
  21137941.198     -709384.307 9 -16931842.234 8
  25128993.350     -273520.290 5  -1269015.471 1
  22680594.821    -2478373.913 7  -1936655.567 5
  22537061.747   -12779722.802 7 -10679166.771 5
  22958713.573    -3726452.581 6  -2854038.801 4
 94  1 22 19 16 30.0010000  0  6 22 14 18 25 29 15
  22787658.682     1217847.205 6  -4909460.353 3
  21129165.223     -755516.470 9 -16967789.378 8
  25114201.770     -351237.199 5  -1329574.322 1
  22695751.158    -2398744.870 8  -1874607.027 5
  22528081.494   -12826914.286 8 -10715939.335 5
  22975696.516    -3637221.450 6  -2784508.117 4
 94  1 22 19 17  0.0010000  0  6 22 14 18 25 29 15
  22774429.650     1148331.130 6  -4963628.627 3
  21120461.649     -801243.071 9 -17003420.523 8
  25099412.109     -428903.610 4  -1390093.598 1
  22710956.602    -2318827.259 8  -1812333.612 5
  22519124.834   -12873976.178 7 -10752610.921 5
  22992736.690    -3547696.771 7  -2714748.741 4
 94  1 22 19 17 30.0010000  0  6 22 14 18 25 29 15
  22761272.179     1079189.430 7  -5017505.218 3
  21111836.440     -846573.492 9 -17038742.930 8
  25084657.103     -506528.836 4  -1450580.959 1
  22726219.306    -2238625.908 7  -1749839.103 5
  22510192.128   -12920919.100 8 -10789189.795 5
  23009822.431    -3457887.433 6  -2644767.498 4
 94  1 22 19 18  0.0010000  0  6 22 14 18 25 29 15
  22748183.180     1010406.844 7  -5071102.022 3
  21103283.511     -891516.920 9 -17073763.790 8
  25069875.806     -584146.279 3  -1511062.025 1
  22741525.060    -2158183.549 7  -1687156.799 5
  22501279.418   -12967767.207 8 -10825694.771 5
  23026967.952    -3367813.917 6  -2574580.396 4
 94  1 22 19 18 30.0010000  0  6 22 14 18 25 29 15
  22735166.162      941984.235 7  -5124418.257 3
  21094802.082     -936080.015 8 -17108488.300 8
  25055117.803     -661772.301 4  -1571550.032 1
  22756873.145    -2077522.218 7  -1624303.860 5
  22492379.600   -13014532.595 8 -10862135.354 5
  23044152.595    -3277490.262 6  -2504198.433 4
 94  1 22 19 19  0.0010000  0  6 22 14 18 25 29 15
  22722208.682      873931.855 6  -5177446.026 4
  21086395.842     -980253.052 9 -17142908.841 8
  25040332.698     -739389.833 3  -1632031.200 1
  22772268.267    -1996643.133 7  -1561281.252 5
  22483498.968   -13061219.381 8 -10898514.650 5
  23061392.011    -3186923.621 6  -2433627.075 4
 94  1 22 19 19 30.0010000  0  6 22 14 18 25 29 15
  22709333.975      806251.672 6  -5230183.776 3
  21078068.567    -1024015.660 9 -17177009.587 8
  25025557.637     -817001.875 3  -1692508.254 1
  22787695.167    -1915561.288 7  -1498100.641 5
  22474628.229   -13107813.323 8 -10934821.582 5
  23078666.741    -3096113.330 6  -2362865.882 3
 94  1 22 19 20  0.0010000  0  6 22 14 18 25 29 15
  22696523.933      738939.787 6  -5282634.578 3
  21069820.677    -1067375.154 9 -17210796.213 8
  25010805.630     -894606.819 3  -1752979.527 1
  22803160.321    -1834290.625 7  -1434772.901 5
  22465780.724   -13154305.306 8 -10971049.104 5
  23095990.998    -3005064.115 6  -2291918.515 3
 94  1 22 19 20 30.0010000  0  6 22 14 18 25 29 15
  22683789.110      672001.507 7  -5334794.236 3
  21061642.428    -1110321.540 9 -17244260.940 8
  24996042.800     -972183.319 4  -1813428.446 1
  22818666.156    -1752802.406 7  -1371275.621 5
  22456957.382   -13200685.792 8 -11007189.700 5
  23113365.800    -2913772.348 6  -2220782.120 3
 94  1 22 19 21  0.0010000  0  6 22 14 18 25 29 15
  22671116.972      605422.230 7  -5386674.105 3
  21053552.919    -1152847.623 8 -17277398.155 8
  24981285.156    -1049721.417 3  -1873847.733 1
  22834218.220    -1671093.718 7  -1307606.580 4
  22448151.698   -13246951.413 8 -11043240.807 5
  23130784.971    -2822238.298 6  -2149456.976 3
 94  1 22 19 21 30.0010000  0  6 22 14 18 25 29 15
  22658508.991      539188.880 7  -5438284.453 3
  21045537.458    -1194965.708 9 -17310217.463 8
  24966518.759    -1127231.639 3  -1934245.494 1
  22849805.929    -1589174.316 7  -1243773.276 4
  22439367.839   -13293102.103 8 -11079202.374 5
  23148246.113    -2730471.718 6  -2077950.623 3
 94  1 22 19 22  0.0010000  0  6 22 14 18 25 29 15
  22645976.767      473308.817 7  -5489619.525 3
  21037601.472    -1236675.164 9 -17342718.352 8
  24951791.244    -1204707.938 4  -1994616.602 1
  22865437.257    -1507026.816 7  -1179762.320 4
  22430610.841   -13339143.969 8 -11115079.124 5
  23165747.577    -2638475.840 6  -2006265.562 3
 94  1 22 19 22 30.0010000  0  6 22 14 18 25 29 15
  22633507.948      407790.683 7  -5540672.575 3
  21029745.050    -1277973.163 9 -17374898.616 8
  24937052.128    -1282155.225 3  -2054965.181 1
  22881110.677    -1424652.423 7  -1115574.552 4
  22421865.116   -13385091.841 8 -11150882.629 5
  23183296.408    -2546258.464 6  -1934407.973 3
 94  1 22 19 23  0.0010000  0  6 22 14 18 25 29 15
  22621110.631      342650.309 7  -5591431.247 3
  21021960.370    -1318869.238 9 -17406765.694 8
  24922318.678    -1359580.669 3  -2115296.686 1
  22896825.797    -1342068.948 7  -1051223.818 5
  22413139.746   -13430946.242 8 -11186613.287 5
  23200891.617    -2453826.073 6  -1862382.802 3
 94  1 22 19 23 30.0010000  0  6 22 14 18 25 29 15
  22608793.028      277913.128 7  -5641875.767 3
  21014252.975    -1359367.820 9 -17438323.030 8
  24907575.634    -1436994.779 3  -2175619.308 2
  22912578.632    -1259284.225 7   -986716.315 5
  22404424.630   -13476719.848 8 -11222281.020 5
  23218517.945    -2361184.487 6  -1790194.572 3
 94  1 22 19 24  0.0010000  0  6 22 14 18 25 29 15
  22596553.911      213583.233 7  -5692002.929 3
  21006622.658    -1399476.260 9 -17469576.378 8
  24892857.323    -1514402.836 3  -2235937.374 1
  22928366.542    -1176322.382 7   -922070.791 5
  22395729.599   -13522423.836 7 -11257894.493 5
  23236180.157    -2268340.621 6  -1717848.788 3
 94  1 22 19 24 30.0010000  0  6 22 14 18 25 29 15
  22584384.496      149647.190 7  -5741823.150 3
  20999063.151    -1439199.897 9 -17500529.851 8
  24878122.464    -1591813.425 4  -2296257.262 1
  22944185.151    -1093206.708 7   -857305.365 5
  22387044.492   -13568065.295 8 -11293459.228 5
  23253892.615    -2175301.700 6  -1645350.961 3
 94  1 22 19 25  0.0010000  0  6 22 14 18 25 29 15
  22572288.170       86087.610 6  -5791350.017 3
  20991578.023    -1478537.898 9 -17531182.841 8
  24863390.873    -1669236.858 4  -2356587.218 1
  22960029.572    -1009942.932 7   -792424.558 5
  22378367.958   -13613648.125 7 -11328978.287 5
  23271637.391    -2082073.818 6  -1572705.906 3
 94  1 22 19 25 30.0010000  0  6 22 14 18 25 29 15
  22560264.814       22882.023 6  -5840601.079 3
  20984166.074    -1517479.362 8 -17561526.853 8
  24848656.643    -1746683.654 4  -2416935.433 1
  22975899.536     -926538.333 7   -727434.003 5
  22369707.014   -13659173.312 8 -11364452.457 5
  23289408.878    -1988664.944 6  -1499919.919 3
 94  1 22 19 26  0.0010000  0  6 22 14 18 25 29 15
  22548304.444      -39969.875 7  -5889576.570 3
  20976833.241    -1556000.590 8 -17591543.400 8
  24833915.458    -1824144.931 4  -2477294.809 1
  22991803.316     -842966.986 7   -662313.528 5
  22361061.120   -13704618.217 8 -11399864.037 5
  23307218.768    -1895067.056 6  -1426986.559 3
 94  1 22 19 26 30.0010000  0  6 22 14 18 25 29 15
  22536406.880     -102456.976 7  -5938267.764 3
  20969591.484    -1594073.775 8 -17621210.817 9
  24819179.070    -1901618.674 4  -2537663.963 1
  23007749.337     -759189.827 7   -597032.667 5
  22352426.947   -13749973.058 8 -11435205.468 5
  23325062.595    -1801276.103 6  -1353902.768 3
 94  1 22 19 27  0.0010000  0  6 22 14 18 25 29 15
  22524592.059     -164554.844 7  -5986655.652 4
  20962436.397    -1631675.282 8 -17650510.701 9
  24804433.448    -1979090.804 4  -2598031.900 2
  23023726.896     -675192.444 7   -531580.175 5
  22343818.227   -13795220.438 8 -11470463.152 5
  23342953.460    -1707290.133 6  -1280667.056 3
 94  1 22 19 27 30.0010000  0  6 22 14 18 25 29 15
  22512854.075     -226246.252 7  -6034726.851 4
  20955372.867    -1668806.775 8 -17679444.327 9
  24789676.434    -2056565.392 4  -2658401.634 2
  23039756.169     -590980.225 7   -465960.300 5
  22335228.603   -13840356.394 8 -11505633.986 5
  23360875.083    -1613115.588 6  -1207284.320 3
 94  1 22 19 28  0.0010000  0  6 22 14 18 25 29 15
  22501195.836     -287519.548 7  -6082472.155 4
  20948390.521    -1705484.305 9 -17708024.216 9
  24774952.337    -2134045.188 5  -2718775.455 2
  23055815.631     -506559.313 7   -400177.772 4
  22326661.854   -13885393.149 8 -11540727.553 5
  23378824.497    -1518761.444 6  -1133761.658 3
 94  1 22 19 28 30.0010000  0  6 22 14 18 25 29 15
  22489611.796     -348372.151 7  -6129889.711 4
  20941494.815    -1741720.002 8 -17736259.822 9
  24760198.082    -2211522.322 5  -2779147.292 2
  23071917.334     -421961.906 7   -334257.759 4
  22318106.017   -13930337.922 8 -11575749.453 5
  23396813.063    -1424232.991 6  -1060103.203 3
 94  1 22 19 29  0.0010000  0  6 22 14 18 25 29 15
  22478114.515     -408805.143 7  -6176980.317 4
  20934680.083    -1777537.265 9 -17764169.352 9
  24745459.685    -2288993.734 5  -2839514.498 2
  23088041.102     -337218.010 7   -268223.606 5
  22309571.795   -13975189.456 8 -11610698.678 5
  23414834.607    -1329533.296 6   -986311.274 3
 94  1 22 19 29 30.0010000  0  6 22 14 18 25 29 15
  22466697.939     -468821.643 7  -6223746.383 4
  20927937.600    -1812963.328 9 -17791774.083 9
  24730717.870    -2366453.479 5  -2899872.663 2
  23104193.859     -252319.473 7   -202068.949 5
  22301050.554   -14019944.180 7 -11645572.462 5
  23432884.152    -1234657.180 6   -912381.932 3
 94  1 22 19 30  0.0010000  0  6 22 14 18 25 29 15
  22455353.702     -528414.522 7  -6270182.346 4
  20921273.034    -1847986.153 8 -17819064.596 9
  24715990.956    -2443867.512 5  -2960195.301 1
  23120380.554     -167259.494 7   -135788.500 5
  22292564.809   -14064583.000 8 -11680355.973 5
  23450982.772    -1139592.957 6   -838305.998 3
 94  1 22 19 30 30.0010000  0  6 22 14 18 25 29 15
  22444093.737     -587592.891 7  -6316295.314 4
  20914689.352    -1882599.865 8 -17846036.312 9
  24701270.336    -2521237.915 5  -3020483.803 1
  23136608.020      -82038.702 7    -69382.712 5
  22284088.596   -14109104.327 7 -11715047.898 5
  23469109.574    -1044346.512 6   -764088.066 3
 94  1 22 19 31  0.0010000  0  6 22 14 18 25 29 15
  22432909.830     -646348.856 7  -6362079.119 4
  20908179.688    -1916801.171 8 -17872686.674 9
  24686561.049    -2598568.865 5  -3080741.627 2
  23152852.963        3359.585 7     -2838.619 4
  22275639.965   -14153519.071 8 -11749656.754 5
  23487261.497     -948928.217 6   -689736.262 3
 94  1 22 19 31 30.0010000  0  6 22 14 18 25 29 15
  22421813.192     -704678.524 7  -6407530.792 4
  20901754.057    -1950572.678 9 -17899002.122 9
  24671841.150    -2675859.405 5  -3140967.852 2
  23169138.020       88927.818 7     63837.883 4
  22267205.185   -14197828.901 8 -11784183.889 5
  23505450.086     -853350.654 6   -615260.304 3
 94  1 22 19 32  0.0010000  0  6 22 14 18 25 29 15
  22410793.930     -762576.797 7  -6452646.277 4
  20895413.716    -1983873.438 8 -17924950.766 9
  24657144.964    -2753117.502 5  -3201168.842 2
  23185451.856      174664.399 7    130645.547 4
  22258797.265   -14242039.503 8 -11818633.698 5
  23523666.225     -757618.220 6   -540663.691 3
 94  1 22 19 32 30.0010000  0  6 22 14 18 25 29 15
  22399858.880     -820043.591 7  -6497425.560 4
  20889168.530    -2016701.346 8 -17950530.935 9
  24642444.461    -2830364.115 5  -3261360.960 2
  23201799.299      260570.531 7    197585.341 4
  22250392.584   -14286166.971 8 -11853018.711 6
  23541916.121     -661739.364 6   -465953.002 3
 94  1 22 19 33  0.0010000  0  6 22 14 18 25 29 15
  22389007.323     -877082.533 7  -6541871.414 4
  20883009.174    -2049060.132 8 -17975745.565 9
  24627742.878    -2907607.200 5  -3321550.297 2
  23218173.693      346636.644 7    264649.785 4
  22242014.044   -14330215.471 8 -11887342.203 6
  23560186.043     -565720.941 5   -391133.514 3
 94  1 22 19 33 30.0010000  0  6 22 14 18 25 29 15
  22378224.837     -933724.752 7  -6586008.181 4
  20876940.415    -2080958.514 9 -18000601.447 9
  24613041.266    -2984876.335 5  -3381759.909 2
  23234580.974      432840.091 7    331821.236 4
  22233645.787   -14374189.614 8 -11921607.750 6
  23578482.077     -469576.019 6   -316215.475 2
 94  1 22 19 34  0.0010000  0  6 22 14 18 25 29 15
  22367521.887     -989976.603 7  -6629840.751 4
  20870956.288    -2112412.019 8 -18025110.659 9
  24598325.474    -3062181.599 5  -3441997.652 2
  23251008.222      519173.397 7    399093.903 4
  22225287.034   -14418107.532 8 -11955829.489 6
  23596800.685     -373310.052 6   -241203.107 2
 94  1 22 19 34 30.0010000  0  6 22 14 18 25 29 15
  22356894.424    -1045809.555 6  -6673346.854 4
  20865053.134    -2143424.697 9 -18049276.359 9
  24583620.414    -3139490.024 5  -3502237.850 2
  23267463.380      605637.938 7    466468.784 4
  22216946.508   -14461947.779 8 -11989990.692 6
  23615148.943     -276904.600 6   -166082.029 2
 94  1 22 19 35  0.0010000  0  6 22 14 18 25 29 15
  22346387.418    -1101042.114 7  -6716385.152 4
  20859271.067    -2173816.916 8 -18072958.610 9
  24568942.365    -3216606.064 5  -3562328.154 2
  23283978.107      692403.907 7    534078.563 4
  22208654.009   -14505521.444 8 -12023944.189 6
  23633551.343     -180179.755 6    -90712.118 2
 94  1 22 19 35 30.0010000  0  6 22 14 18 25 29 15
  22335969.060    -1155782.735 7  -6759040.103 4
  20853581.726    -2203714.658 8 -18096255.545 9
  24554289.829    -3293643.027 6  -3622356.868 2
  23300523.143      779337.681 7    601819.118 4
  22200387.292   -14548954.770 8 -12057788.308 6
  23651994.635      -83266.999 6    -15195.774 3
 94  1 22 19 36  0.0010000  0  6 22 14 18 25 29 15
  22325633.625    -1210108.951 7  -6801372.148 4
  20847968.232    -2233207.984 8 -18119237.341 9
  24539624.761    -3370665.385 5  -3682374.211 2
  23317075.854      866351.242 7    669621.828 4
  22192132.297   -14592325.334 8 -12091583.539 6
  23670455.165       13746.412 6     60399.004 3
 94  1 22 19 36 30.0010000  0  6 22 14 18 25 29 15
  22315373.978    -1264024.815 7  -6843384.450 4
  20842433.883    -2262288.705 8 -18141897.663 9
  24524974.623    -3447671.783 5  -3742379.126 2
  23333655.337      953459.767 7    737498.560 4
  22183898.137   -14635620.466 8 -12125319.996 6
  23688933.263      110856.110 5    136068.814 2
 94  1 22 19 37  0.0010000  0  6 22 14 18 25 29 15
  22305193.746    -1317518.358 7  -6885067.628 4
  20836980.778    -2290939.699 8 -18164223.083 9
  24510322.237    -3524666.828 5  -3802375.169 2
  23350248.879     1040685.635 7    805466.721 4
  22175671.892   -14678834.121 8 -12158992.949 6
  23707437.562      208062.731 6    211814.142 2
 94  1 22 19 37 30.0010000  0  6 22 14 18 25 29 15
  22295092.149    -1370587.737 7  -6926420.280 4
  20831614.044    -2319152.610 9 -18186207.158 9
  24495671.769    -3601672.731 6  -3862379.615 2
  23366869.703     1128031.140 7    873528.120 4
  22167466.123   -14721969.060 8 -12192604.569 6
  23725947.199      305356.572 6    287627.446 2
 94  1 22 19 38  0.0010000  0  6 22 14 18 25 29 15
  22285076.053    -1423233.547 7  -6967442.911 4
  20826328.193    -2346926.041 8 -18207848.787 9
  24481012.248    -3678698.191 5  -3922399.379 2
  23383516.279     1215505.292 6    941689.763 4
  22159269.467   -14765030.764 8 -12226159.121 6
  23744478.270      402734.229 5    363506.053 2
 94  1 22 19 38 30.0010000  0  6 22 14 18 25 29 15
  22275146.537    -1475432.854 7  -7008117.611 4
  20821128.383    -2374253.702 9 -18229143.060 9
  24466351.347    -3755748.882 6  -3982438.746 2
  23400188.337     1303113.229 6   1009955.647 4
  22151082.405   -14808043.672 8 -12259675.667 6
  23763024.001      500190.930 5    439446.230 2
 94  1 22 19 39  0.0010000  0  6 22 14 18 25 29 15
  22265294.397    -1527176.495 7  -7048437.281 4
  20816011.495    -2401140.058 8 -18250093.466 9
  24451672.639    -3832837.572 5  -4042507.789 2
  23416873.376     1390837.322 6   1078312.067 4
  22142909.403   -14851015.352 8 -12293160.081 6
  23781583.522      597721.392 5    515443.939 2
 94  1 22 19 39 30.0010000  0  6 22 14 18 25 29 15
  22255537.952    -1578461.164 7  -7088399.276 4
  20810977.410    -2427593.284 8 -18270706.360 9
  24437007.572    -3909956.916 6  -4102600.783 2
  23433594.420     1478660.484 7   1146745.669 4
  22134738.020   -14893937.116 8 -12326605.577 6
  23800148.740      695324.139 5    591497.930 2
 94  1 22 19 40  0.0010000  0  6 22 14 18 25 29 15
  22245865.028    -1629291.482 7  -7128007.228 5
  20806020.911    -2453633.959 9 -18290997.810 9
  24422327.604    -3987098.320 6  -4162710.839 2
  23450321.400     1566570.909 6   1215247.280 4
  22126581.836   -14936825.621 8 -12360025.209 6
  23818743.247      792996.412 5    667606.111 2
 94  1 22 19 40 30.0010000  0  6 22 14 18 25 29 15
  22236276.166    -1679680.501 7  -7167271.300 5
  20801143.288    -2479268.913 9 -18310973.095 9
  24407642.061    -4064277.763 6  -4222850.492 2
  23467070.865     1654553.352 7   1283804.968 4
  22118428.111   -14979670.894 8 -12393411.120 6
  23837342.881      890734.928 5    743765.876 2
 94  1 22 19 41  0.0010000  0  6 22 14 18 25 29 15
  22226769.028    -1729642.183 7  -7206202.424 4
  20796341.812    -2504497.877 9 -18330632.022 9
  24392940.089    -4141500.776 5  -4283024.250 2
  23483825.396     1742589.339 7   1352404.427 4
  22110286.317   -15022448.091 8 -12426743.987 6
  23855945.782      988538.521 5    819976.393 2
 94  1 22 19 41 30.0010000  0  6 22 14 18 25 29 15
  22217335.968    -1779185.511 7  -7244807.589 4
  20791621.220    -2529304.828 8 -18349962.113 9
  24378243.723    -4218744.480 5  -4343214.038 2
  23500587.002     1830689.086 7   1421053.553 4
  22102158.494   -15065164.778 8 -12460029.725 6
  23874572.697     1086410.143 5    896239.923 2
 94  1 22 19 42  0.0010000  0  6 22 14 18 25 29 15
  22207986.131    -1828315.127 7  -7283090.344 4
  20786986.039    -2553662.291 8 -18368941.948 9
  24363535.545    -4296001.573 5  -4403414.282 2
  23517366.326     1918870.439 7   1489766.268 4
  22094040.804   -15107818.621 8 -12493266.478 6
  23893213.163     1184355.260 5    972560.699 2
 94  1 22 19 42 30.0010000  0  6 22 14 18 25 29 15
  22198718.797    -1877027.240 7  -7321047.794 4
  20782444.633    -2577542.874 8 -18387550.190 9
  24348833.393    -4373269.422 5  -4463622.932 2
  23534165.826     2007140.174 7   1558547.867 3
  22085941.131   -15150387.645 8 -12526437.139 6
  23911873.744     1282370.690 5   1048936.255 2
 94  1 22 19 43  0.0010000  0  6 22 14 18 25 29 15
  22189535.794    -1925312.949 7  -7358672.956 5
  20777995.593    -2600926.612 8 -18405771.284 9
  24334133.250    -4450524.124 5  -4523821.197 2
  23550974.859     2095503.462 6   1627402.362 3
  22077850.902   -15192872.047 8 -12559541.859 6
  23930525.992     1380454.190 5   1125364.865 2
 94  1 22 19 43 30.0010000  0  6 22 14 18 25 29 15
  22180426.780    -1973168.035 7  -7395962.624 5
  20773639.758    -2623811.803 8 -18423603.904 9
  24319438.923    -4527765.490 5  -4584009.241 1
  23567806.557     2183963.493 6   1696332.196 3
  22069783.727   -15235274.998 8 -12592583.109 6
  23949207.379     1478597.367 5   1201839.997 2
 94  1 22 19 44  0.0010000  0  6 22 14 18 25 29 15
  22171409.503    -2020576.050 7  -7432903.895 5
  20769378.958    -2646196.674 9 -18441046.643 9
  24304734.432    -4605009.294 6  -4644199.220 1
  23584659.780     2272512.921 6   1765331.712 3
  22061734.809   -15277570.602 8 -12625540.707 7
  23967894.432     1576794.161 5   1278356.864 2
 94  1 22 19 44 30.0010000  0  6 22 14 18 25 29 15
  22162471.370    -2067526.837 7  -7469488.895 5
  20765212.892    -2668092.107 8 -18458108.031 9
  24290038.426    -4682270.935 5  -4704402.963 1
  23601527.063     2361142.964 6   1834394.053 3
  22053705.467   -15319761.687 8 -12658416.873 6
  23986590.839     1675038.718 5   1354911.022 2
 94  1 22 19 45  0.0010000  0  6 22 14 18 25 29 15
  22153627.103    -2114004.409 7  -7505705.166 5
  20761135.745    -2689516.576 8 -18474802.410 9
  24275329.889    -4759554.042 6  -4764623.478 1
  23618408.766     2449855.614 6   1903520.730 3
  22045696.002   -15361856.512 8 -12691218.033 6
  24005291.053     1773330.160 5   1431501.657 2
 94  1 22 19 45 30.0010000  0  6 22 14 18 25 29 15
  22144874.722    -2159999.531 7  -7541545.498 5
  20757148.325    -2710484.416 8 -18491140.979 9
  24260617.514    -4836864.185 6  -4824864.972 1
  23635304.619     2538655.120 6   1972715.073 3
  22037703.325   -15403862.825 8 -12723950.211 6
  24024008.385     1871666.291 5   1508127.108 2
 94  1 22 19 46  0.0010000  0  6 22 14 18 25 29 15
  22136218.185    -2205503.726 7  -7577003.272 5
  20753240.740    -2731008.140 8 -18507133.484 9
  24245896.325    -4914203.936 5  -4885129.614 1
  23652221.937     2627539.772 6   2041975.812 3
  22029719.073   -15445799.642 8 -12756628.238 6
  24042731.923     1970043.890 5   1584784.894 2
 94  1 22 19 46 30.0010000  0  6 22 14 18 25 29 15
  22127649.247    -2250503.990 7  -7612068.373 5
  20749416.528    -2751101.797 8 -18522790.878 9
  24231174.027    -4991563.985 6  -4945410.139 2
  23669152.627     2716508.149 6   2111301.791 3
  22021752.178   -15487682.331 8 -12789264.094 6
  24061454.292     2068459.414 5   1661472.198 2
 94  1 22 19 47  0.0010000  0  6 22 14 18 25 29 15
  22119185.057    -2294985.035 7  -7646728.926 5
  20745677.996    -2770746.612 8 -18538098.519 9
  24216462.522    -5068917.166 6  -5005685.283 1
  23686093.928     2805559.468 6   2180692.363 3
  22013796.376   -15529503.223 8 -12821851.784 6
  24080182.507     2166916.541 5   1738191.948 2
 94  1 22 19 47 30.0010000  0  6 22 14 18 25 29 15
  22110821.627    -2338950.238 7  -7680987.510 5
  20742032.730    -2789905.836 8 -18553027.775 9
  24201744.241    -5146248.660 5  -5065943.550 1
  23703051.089     2894685.501 6   2250141.186 3
  22005848.578   -15571253.337 8 -12854384.311 6
  24098937.133     2265420.643 4   1814948.301 2
 94  1 22 19 48  0.0010000  0  6 22 14 18 25 29 15
  22102547.685    -2382410.563 7  -7714852.663 5
  20738481.958    -2808564.835 8 -18567567.253 9
  24187017.956    -5223570.249 5  -5126194.024 1
  23720024.529     2983877.147 6   2319641.129 3
  21997921.076   -15612918.487 8 -12886850.642 6
  24117685.704     2363961.322 5   1891733.171 2
 94  1 22 19 48 30.0010000  0  6 22 14 18 25 29 15
  22094375.102    -2425379.610 7  -7748335.026 5
  20735029.428    -2826703.424 8 -18581701.202 9
  24172327.526    -5300865.995 6  -5186424.350 1
  23737016.196     3073138.737 6   2389195.554 3
  21990014.770   -15654475.671 9 -12919232.858 6
  24136444.467     2462539.287 5   1968547.088 2
 94  1 22 19 49  0.0010000  0  6 22 14 18 25 29 15
  22086288.950    -2467864.347 7  -7781439.991 5
  20731682.185    -2844297.931 8 -18595411.201 9
  24157619.468    -5378121.323 5  -5246623.197 2
  23754018.535     3162492.151 7   2458821.565 3
  21982128.069   -15695909.533 8 -12951518.944 6
  24155200.263     2561168.680 3   2045400.997 2
 94  1 22 19 49 30.0010000  0  5 22 14 18 25 29
  22078300.081    -2509857.533 7  -7814161.905 5
  20728433.604    -2861356.505 8 -18608703.581 9
  24142920.704    -5455333.235 5  -5306788.271 1
  23771043.989     3251963.850 7   2528539.746 3
  21974272.398   -15737202.146 9 -12983694.981 6
 94  1 22 19 50  0.0010000  0  5 22 14 18 25 29
  22070399.470    -2551336.047 7  -7846482.783 5
  20725287.912    -2877890.072 8 -18621586.876 9
  24128244.934    -5532486.939 5  -5366908.032 1
  23788095.824     3341574.786 7   2598366.397 3
  21966443.348   -15778343.184 9 -13015752.903 6
 94  1 22 19 50 30.0010000  0  5 22 14 18 25 29
  22062605.586    -2592303.359 7  -7878405.362 5
  20722241.121    -2893914.533 8 -18634073.454 9
  24113568.024    -5609581.884 5  -5426981.884 1
  23805170.773     3431321.669 6   2668299.007 3
  21958637.651   -15819357.527 8 -13047712.120 6
 94  1 22 19 51  0.0010000  0  6 22 14 18 25 29 15
  22054914.980    -2632737.956 7  -7909912.799 5
  20719286.067    -2909421.053 8 -18646156.458 9
  24098924.452    -5686622.108 5  -5487013.155 1
  23822278.820     3521209.720 6   2738341.578 3
  21950856.988   -15860244.686 8 -13079572.200 6
  24230422.358    -2664641.76815     76876.704
 94  1 22 19 51 30.0010000  0  6 22 14 18 25 29 15
  22047321.507    -2672621.536 7  -7940990.874 5
  20716439.387    -2924409.296 8 -18657835.599 9
  24084265.020    -5763602.724 5  -5546997.989 1
  23839408.121     3611218.224 6   2808478.035 3
  21943097.909   -15900998.720 8 -13111328.566 6
  24249264.344    -2565635.079 5    154018.976 1
 94  1 22 19 52  0.0010000  0  6 22 14 18 25 29 15
  22039834.550    -2711958.287 7  -7971642.845 5
  20713683.635    -2938879.683 8 -18669111.218 9
  24069620.638    -5840534.486 5  -5606944.756 1
  23856547.856     3701319.527 6   2878686.794 3
  21935369.380   -15941626.042 8 -13142986.171 6
  24268115.863    -2466569.076 5    231213.204 1
 94  1 22 19 52 30.0010000  0  6 22 14 18 25 29 15
  22032455.428    -2750757.592 7  -8001876.042 5
  20711027.744    -2952845.075 8 -18679993.337 9
  24054995.803    -5917449.357 5  -5666878.337 1
  23873713.882     3791493.524 6   2948952.238 3
  21927658.088   -15982138.605 8 -13174554.364 6
  24286967.053    -2367472.607 5    308431.079 1
 94  1 22 19 53  0.0010000  0  6 22 14 18 25 29 15
  22025181.054    -2788995.334 7  -8031671.630 5
  20708463.889    -2966300.395 8 -18690478.003 9
  24040355.138    -5994337.074 5  -5726790.686 2
  23890886.054     3881729.064 6   3019265.592 3
  21919976.596   -16022522.202 8 -13206022.049 7
  24305842.915    -2268349.263 5    385669.949 2
 94  1 22 19 53 30.0010000  0  6 22 14 18 25 29 15
  22018009.989    -2826665.829 7  -8061025.204 5
  20706002.173    -2979239.754 8 -18700560.604 9
  24025726.166    -6071196.797 5  -5786681.286 2
  23908064.012     3972027.575 6   3089628.039 3
  21912318.787   -16062774.835 8 -13237387.717 7
  24324712.032    -2169198.096 5    462930.503 2
 94  1 22 19 54  0.0010000  0  6 22 14 18 25 29 15
  22010943.161    -2863794.281 7  -8089956.391 5
  20703639.599    -2991654.700 8 -18710234.592 9
  24011101.300    -6148048.564 5  -5846565.706 2
  23925268.771     4062399.158 6   3160047.447 3
  21904680.165   -16102915.830 8 -13268666.376 7
  24343577.792    -2070024.638 5    540208.401 2
 94  1 22 19 54 30.0010000  0  6 22 14 18 25 29 15
  22003979.522    -2900382.843 7  -8118466.924 5
  20701381.142    -3003529.126 8 -18719487.386 9
  23996479.763    -6224877.573 5  -5906432.415 2
  23942483.004     4152867.146 7   3230541.981 3
  21897062.709   -16142946.470 8 -13299859.067 7
  24362456.832    -1970822.390 5    617508.821 2
 94  1 22 19 55  0.0010000  0  6 22 14 18 25 29 15
  21997120.061    -2936440.910 7  -8146564.076 5
  20699227.973    -3014853.374 8 -18728311.455 9
  23981873.544    -6301665.043 5  -5966266.736 2
  23959716.483     4243433.702 7   3301113.291 3
  21889463.780   -16182866.986 8 -13330965.918 7
  24381343.847    -1871590.285 5    694832.451 2
 94  1 22 19 55 30.0010000  0  6 22 14 18 25 29 15
  21990356.653    -2971993.143 7  -8174267.038 5
  20697175.534    -3025636.962 8 -18736714.251 9
  23967271.193    -6378428.525 5  -6026082.337 2
  23976968.250     4334098.622 7   3371761.257 3
  21881885.086   -16222687.547 8 -13361994.904 7
  24400235.568    -1772343.624 6    772167.391 2
 94  1 22 19 56  0.0010000  0  6 22 14 18 25 29 15
  21983684.442    -3007040.291 7  -8201576.447 5
  20695222.026    -3035898.121 8 -18744709.957 9
  23952663.626    -6455158.565 5  -6085871.841 2
  23994236.296     4424847.225 7   3442474.416 3
  21874330.016   -16262409.022 8 -13392946.676 7
  24419110.472    -1673098.541 6    849501.164 2
 94  1 22 19 56 30.0010000  0  6 22 14 18 25 29 15
  21977118.567    -3041551.227 7  -8228468.020 5
  20693369.398    -3045641.814 8 -18752302.426 9
  23938073.027    -6531834.168 5  -6145618.940 2
  24011520.081     4515666.714 6   3513242.825 3
  21866789.427   -16302016.036 8 -13423809.271 7
  24437996.467    -1573857.457 5    926831.800 2
 94  1 22 19 57  0.0010000  0  6 22 14 18 25 29 15
  21970656.751    -3075506.130 7  -8254926.346 5
  20691614.953    -3054854.278 8 -18759480.994 9
  23923488.903    -6608450.760 5  -6205320.066 2
  24028814.238     4606544.938 6   3584056.947 3
  21859276.568   -16341499.423 8 -13454575.529 7
  24456878.745    -1474611.894 5   1004165.921 2
 94  1 22 19 57 30.0010000  0  6 22 14 18 25 29 15
  21964303.159    -3108897.328 7  -8280945.406 5
  20689962.977    -3063528.007 8 -18766239.712 9
  23908923.097    -6685003.115 5  -6264971.142 2
  24046110.434     4697479.163 6   3654914.757 3
  21851787.512   -16380850.422 8 -13485238.637 7
  24475769.927    -1375353.002 5   1081510.403 2
 94  1 22 19 58  0.0010000  0  6 22 14 18 25 29 15
  21958056.174    -3141723.541 8  -8306524.209 5
  20688417.517    -3071662.541 8 -18772578.308 9
  23894375.548    -6761492.348 6  -6324573.048 2
  24063424.018     4788458.246 5   3725807.559 3
  21844322.710   -16420072.140 8 -13515800.979 7
  24494663.028    -1276085.425 5   1158861.676 2
 94  1 22 19 58 30.0010000  0  6 22 14 18 25 29 15
  21951917.264    -3174003.490 8  -8331677.346 5
  20686969.669    -3079264.593 8 -18778501.973 9
  23879825.121    -6837959.418 6  -6384157.691 2
  24080742.669     4879466.992 5   3796723.339 2
  21836879.883   -16459193.464 8 -13546285.113 7
  24513551.511    -1176825.138 5   1236207.300 2
 94  1 22 19 59  0.0010000  0  6 22 14 18 25 29 15
  21945873.328    -3205755.189 7  -8356418.894 5
  20685618.984    -3086347.768 8 -18784021.312 9
  23865266.390    -6914434.498 6  -6443748.504 2
  24098057.032     4970499.356 5   3867657.604 2
  21829452.974   -16498229.980 9 -13576703.161 7
  24532433.610    -1077584.134 5   1313537.800 2
 94  1 22 19 59 30.0010000  0  6 22 14 18 25 29 15
  21939932.131    -3236980.398 8  -8380750.185 5
  20684367.470    -3092933.394 8 -18789152.961 9
  23850708.468    -6990926.358 6  -6503352.431 2
  24115396.368     5061560.529 5   3938614.353 2
  21822038.147   -16537186.611 9 -13607058.959 7
  24551299.489     -978379.446 5   1390840.087 2
 94  1 22 20  0  0.0010000  0  6 22 14 18 25 29 15
  21934087.287    -3267676.246 7  -8404668.985 5
  20683207.304    -3099031.263 8 -18793904.550 9
  23836142.902    -7067442.120 6  -6562975.014 2
  24132727.460     5152650.184 6   4009593.272 2
  21814641.638   -16576067.697 9 -13637355.896 7
  24570169.506     -879225.081 5   1468103.089 2
 94  1 22 20  0 30.0010000  0  6 22 14 18 25 29 15
  21928347.221    -3297851.181 8  -8428181.859 5
  20682139.743    -3104639.041 8 -18798274.216 9
  23821583.631    -7143983.467 6  -6622617.493 2
  24150068.086     5243770.169 6   4080595.765 2
  21807251.934   -16614882.896 8 -13667601.502 7
  24589044.199     -780125.201 5   1545323.691 2
 94  1 22 20  1  0.0010000  0  6 22 14 18 25 29 15
  21922702.729    -3327512.618 8  -8451294.627 5
  20681165.627    -3109761.304 8 -18802265.575 9
  23807019.743    -7220520.168 6  -6682256.420 2
  24167414.197     5334921.964 6   4151623.181 2
  21799883.695   -16653616.100 8 -13697783.180 7
  24607886.515     -681080.220 5   1622501.552 2
 94  1 22 20  1 30.0010000  0  6 22 14 18 25 29 15
  21917155.309    -3356661.319 8  -8474007.862 5
  20680284.777    -3114387.630 8 -18805870.493 9
  23792455.406    -7297029.180 6  -6741873.794 1
  24184772.720     5426107.065 6   4222676.463 2
  21792531.554   -16692247.211 8 -13727885.312 7
  24626729.550     -582089.043 5   1699637.385 2
 94  1 22 20  2  0.0010000  0  6 22 14 18 25 29 15
  21911703.343    -3385305.951 8  -8496328.308 5
  20679501.029    -3118504.985 8 -18809078.808 9
  23777898.983    -7373517.520 6  -6801474.983 2
  24202131.963     5517304.868 6   4293739.591 2
  21785203.457   -16730780.364 9 -13757911.141 7
  24645551.300     -483152.991 5   1776730.392 2
 94  1 22 20  2 30.0010000  0  6 22 14 18 25 29 15
  21906351.299    -3413444.532 7  -8518254.444 5
  20678816.423    -3122107.483 8 -18811885.930 9
  23763345.858    -7449992.822 6  -6861065.951 2
  24219479.963     5608512.834 6   4364810.724 2
  21777886.273   -16769208.076 9 -13787854.788 7
  24664367.833     -384273.089 5   1853779.425 2
 94  1 22 20  3  0.0010000  0  6 22 14 18 25 29 15
  21901097.106    -3441055.299 7  -8539769.279 5
  20678230.599    -3125187.644 8 -18814286.035 9
  23748804.695    -7526445.356 6  -6920639.319 2
  24236840.345     5699743.114 6   4435899.256 2
  21770600.447   -16807489.131 8 -13817684.154 7
  24683177.532     -285444.826 4   1930788.427 2
 94  1 22 20  3 30.0010000  0  6 22 14 18 25 29 15
  21895946.042    -3468125.203 7  -8560862.673 5
  20677743.856    -3127733.406 8 -18816269.727 8
  23734262.602    -7602887.535 6  -6980204.600 2
  24254206.122     5791001.229 6   4507009.425 2
  21763343.521   -16845625.929 8 -13847401.087 7
  24701957.431     -186666.540 4   2007758.466 2
 94  1 22 20  4  0.0010000  0  6 22 14 18 25 29 15
  21890898.676    -3494644.543 8  -8581527.076 5
  20677359.942    -3129743.610 8 -18817836.106 8
  23719708.338    -7679330.145 6  -7039770.216 2
  24271581.014     5882297.771 6   4578149.515 2
  21756112.377   -16883639.100 8 -13877021.714 7
  24720760.713      -87940.836 5   2084687.490 2
 94  1 22 20  4 30.0010000  0  6 22 14 18 25 29 15
  21885954.799    -3520606.342 7  -8601756.988 5
  20677082.694    -3131226.264 8 -18818991.399 8
  23705166.815    -7755763.336 6  -7099328.428 2
  24288959.353     5973652.352 6   4649334.893 3
  21748900.929   -16921526.069 8 -13906543.979 7
  24739541.782       10732.129 5   2161575.441 2
 94  1 22 20  5  0.0010000  0  6 22 14 18 25 29 15
  21881127.691    -3545998.424 7  -8621542.979 5
  20676897.931    -3132174.404 8 -18819730.192 8
  23690625.501    -7832172.346 6  -7158867.817 2
  24306363.385     6065066.609 6   4720566.717 3
  21741714.095   -16959299.131 8 -13935977.501 7
  24758306.781      109362.452 5   2238430.098 2
 94  1 22 20  5 30.0010000  0  6 22 14 18 25 29 15
  21876401.283    -3570822.906 7  -8640886.698 5
  20676821.724    -3132581.585 8 -18820047.454 8
  23676095.280    -7908564.082 6  -7218393.771 2
  24323763.429     6156515.645 6   4791825.683 3
  21734538.382   -16996999.165 8 -13965354.112 7
  24777047.497      207947.323 4   2315249.357 2
 94  1 22 20  6  0.0010000  0  7 22 14 19 18 25 29 15
  21871785.468    -3595084.513 8  -8659791.797 5
  20676848.825    -3132454.180 8 -18819948.174 8
  25100620.782    -1174633.25113   -239133.613
  23661550.400    -7984947.207 6  -7277913.014 2
  24341168.180     6247977.609 6   4863094.695 3
  21727379.818   -17034631.558 8 -13994678.031 7
  24795797.357      306474.934 4   2392024.100 2
 94  1 22 20  6 30.0010000  0  7 22 14 19 18 25 29 15
  21867269.784    -3618799.737 7  -8678271.153 5
  20676971.411    -3131800.689 8 -18819438.937 9
  25082494.281    -1269800.029 4   -313286.553
  23647015.532    -8061323.762 6  -7337427.189 2
  24358565.706     6339424.830 5   4934352.165 3
  21720233.845   -17072173.194 8 -14023931.213 7
  24814544.938      404935.894 4   2468746.786 2
 94  1 22 20  7  0.0010000  0  7 22 14 19 18 25 29 15
  21862866.462    -3641958.562 8  -8696316.924 5
  20677197.694    -3130603.601 8 -18818506.120 9
  25064419.793    -1364810.164 4   -387320.247 1
  23632489.268    -8137682.624 6  -7396927.511 2
  24375966.889     6430847.672 6   5005590.701 3
  21713106.969   -17109608.098 8 -14053101.218 7
  24833277.110      503329.044 4   2545416.712 2
 94  1 22 20  7 30.0010000  0  7 22 14 19 18 25 29 15
  21858570.257    -3664545.701 8  -8713917.234 5
  20677535.440    -3128836.086 8 -18817128.818 9
  25046358.437    -1459656.242 4   -461226.155 1
  23617967.861    -8213995.489 6  -7456391.990 2
  24393362.676     6522272.025 5   5076830.413 3
  21706014.329   -17146896.753 8 -14082157.285 7
  24851981.701      601661.537 4   2622039.307 1
 94  1 22 20  8  0.0010000  0  7 22 14 19 18 25 29 15
  21854377.629    -3686551.146 7  -8731064.271 5
  20677977.214    -3126502.853 8 -18815310.689 9
  25028335.814    -1554354.988 5   -535016.915 1
  23603455.508    -8290249.663 6  -7515810.760 2
  24410766.228     6613722.109 5   5148090.172 3
  21698952.718   -17184004.609 8 -14111072.478 7
  24870697.594      699933.237 5   2698614.607 1
 94  1 22 20  8 30.0010000  0  7 22 14 19 18 25 29 15
  21850306.238    -3707967.507 8  -8747752.274 5
  20678527.513    -3123609.120 8 -18813055.824 9
  25010359.388    -1648915.619 5   -608700.394 1
  23588953.168    -8366437.876 6  -7575178.124 2
  24428181.382     6705210.583 6   5219379.827 2
  21691925.552   -17220939.934 8 -14139853.210 7
  24889375.804      798141.752 5   2775140.601 1
 94  1 22 20  9  0.0010000  0  7 22 14 19 18 25 29 15
  21846333.388    -3728792.653 7  -8763979.585 5
  20679186.757    -3120154.958 8 -18810364.238 9
  24992388.060    -1743341.050 5   -682278.541 1
  23574472.592    -8442567.285 6  -7634499.623 2
  24445600.373     6796743.384 6   5290704.048 2
  21684922.431   -17257737.063 8 -14168526.250 8
  24908048.137      896281.086 5   2851612.671 1
 94  1 22 20  9 30.0010000  0  7 22 14 19 18 25 29 15
  21842488.370    -3749036.873 8  -8779754.247 5
  20679949.399    -3116157.110 8 -18807249.027 8
  24974434.988    -1837637.818 5   -755756.429 1
  23559991.417    -8518651.856 6  -7693786.197 2
  24463027.219     6888321.329 6   5362063.430 2
  21677945.810   -17294406.488 8 -14197099.804 8
  24926708.779      994349.646 3   2928029.688 1
 94  1 22 20 10  0.0010000  0  7 22 14 19 18 25 29 15
  21838744.532    -3768710.601 8  -8795084.346 5
  20680810.013    -3111640.679 8 -18803729.708 8
  24956519.751    -1931810.347 4   -829137.500 1
  23545520.256    -8594708.729 6  -7753051.212 2
  24480452.415     6979917.442 6   5433436.980 2
  21670984.510   -17330970.220 8 -14225590.982 8
  24945360.876     1092335.048 4   3004381.818 1
 94  1 22 20 10 30.0010000  0  7 22 14 19 18 25 29 15
  21835101.124    -3787838.161 8  -8809988.886 5
  20681764.672    -3106607.836 8 -18799808.011 9
  24938617.344    -2025853.397 4   -902417.895 1
  23531047.115    -8670739.534 6  -7812295.912 2
  24497881.450     7071522.026 6   5504817.133 2
  21664042.276   -17367452.288 8 -14254018.534 8
  24963996.665     1190228.939 5   3080662.696 1
 94  1 22 20 11  0.0010000  0  7 22 14 19 18 25 29 15
  21831567.740    -3806426.494 8  -8824473.239 5
  20682821.381    -3101057.979 8 -18795483.443 8
  24920760.207    -2119759.339 5   -975591.296 1
  23516591.453    -8746729.612 6  -7871508.873 2
  24515315.340     7163129.508 6   5576199.532 2
  21657120.248   -17403835.590 8 -14282369.114 8
  24982598.277     1288034.678 5   3156874.908 1
 94  1 22 20 11 30.0010000  0  7 22 14 19 18 25 29 15
  21828138.864    -3824466.990 8  -8838530.712 5
  20683971.475    -3095004.811 8 -18790766.670 8
  24902894.495    -2213536.535 3  -1048664.408 1
  23502143.015    -8822669.705 6  -7930682.874 2
  24532749.351     7254732.897 6   5647578.770 2
  21650219.955   -17440103.012 9 -14310629.400 8
  25001205.436     1385745.441 5   3233013.055 1
 94  1 22 20 12  0.0010000  0  7 22 14 19 18 25 29 15
  21824803.553    -3841954.708 7  -8852157.441 5
  20685225.177    -3088438.990 8 -18785650.433 9
  24885078.699    -2307182.960 3  -1121635.646 2
  23487699.584    -8898555.940 6  -7989814.905 2
  24550176.586     7346333.782 6   5718956.038 2
  21643342.056   -17476247.364 9 -14338793.803 8
  25019767.385     1483359.956 4   3309076.237 1
 94  1 22 20 12 30.0010000  0  7 22 14 19 18 25 29 15
  21821584.891    -3858879.044 7  -8865345.207 5
  20686572.984    -3081352.405 8 -18780128.399 9
  24867298.278    -2400689.468 5  -1194497.775 2
  23473268.115    -8974388.222 6  -8048904.889 2
  24567615.454     7437940.748 5   5790338.049 2
  21636492.908   -17512245.079 9 -14366843.933 8
  25038326.427     1580885.856 4   3385070.387 1
 94  1 22 20 13  0.0010000  0  7 22 14 19 18 25 29 15
  21818474.394    -3875224.992 7  -8878082.251 5
  20688017.683    -3073746.284 8 -18774201.554 9
  24849517.077    -2494054.857 5  -1267249.978 2
  23458842.072    -9050184.527 6  -8107966.838 2
  24585043.948     7529537.884 5   5861712.418 2
  21629671.940   -17548089.775 8 -14394774.821 8
  25056867.362     1678318.622 5   3460991.910 1
 94  1 22 20 13 30.0010000  0  7 22 14 19 18 25 29 15
  21815475.810    -3890989.357 7  -8890366.152 5
  20689568.870    -3065600.478 8 -18767854.137 9
  24831781.056    -2587276.326 5  -1339890.006 2
  23444417.617    -9125973.631 6  -8167023.171 2
  24602473.492     7621122.730 6   5933077.114 2
  21622877.833   -17583788.359 8 -14422591.852 8
  25075402.240     1775649.536 5   3536834.106 2
 94  1 22 20 14  0.0010000  0  7 22 14 19 18 25 29 15
  21812584.762    -3906193.738 8  -8902213.693 5
  20691222.825    -3056900.245 8 -18761074.724 9
  24814074.624    -2680353.832 5  -1412417.975 2
  23429996.191    -9201773.462 6  -8226087.914 2
  24619889.185     7712691.581 6   6004429.476 2
  21616107.260   -17619361.299 8 -14450310.984 8
  25093895.777     1872869.365 5   3612589.748 2
 94  1 22 20 14 30.0010000  0  7 22 14 19 18 25 29 15
  21809793.184    -3920848.984 7  -8913633.319 5
  20692985.694    -3047646.027 8 -18753863.642 8
  24796384.021    -2773285.246 5  -1484831.917 2
  23415578.512    -9277583.261 7  -8285160.415 2
  24637313.753     7804250.684 6   6075774.176 2
  21609360.311   -17654817.613 8 -14477939.249 8
  25112356.757     1969970.471 5   3688252.873 2
 94  1 22 20 15  0.0010000  0  7 22 14 19 18 25 29 15
  21807106.594    -3934965.952 8  -8924633.560 5
  20694854.091    -3037830.620 8 -18746215.266 8
  24778740.935    -2866070.542 5  -1557132.061 2
  23401142.816    -9353401.498 6  -8344239.459 2
  24654737.540     7895801.119 6   6147112.099 2
  21602630.240   -17690179.578 8 -14505493.970 8
  25130826.491     2066942.292 4   3763815.250 2
 94  1 22 20 15 30.0010000  0  7 22 14 19 18 25 29 15
  21804519.205    -3948546.893 7  -8935216.074 5
  20696826.395    -3027460.127 8 -18738134.333 8
  24761100.937    -2958706.661 5  -1629315.934 1
  23386713.055    -9429212.510 6  -8403312.873 2
  24672159.020     7987351.663 5   6218450.130 2
  21595920.675   -17725443.332 8 -14532972.179 8
  25149250.086     2163781.071 5   3839273.875 2
 94  1 22 20 16  0.0010000  0  7 22 14 19 18 25 29 15
  21802046.727    -3961584.638 8  -8945375.341 5
  20698899.670    -3016557.943 8 -18729639.144 8
  24743511.394    -3051191.317 5  -1701381.972 1
  23372295.646    -9504993.465 6  -8462362.865 2
  24689592.910     8078907.031 5   6289791.935 2
  21589229.397   -17760606.584 8 -14560372.080 8
  25167665.857     2260486.153 4   3914628.498 2
 94  1 22 20 16 30.0010000  0  7 22 14 19 18 25 29 15
  21799669.373    -3974050.171 8  -8955088.703 5
  20701074.334    -3005138.886 8 -18720741.151 8
  24725930.964    -3143516.541 5  -1773323.522 1
  23357881.775    -9580732.226 6  -8521380.000 2
  24707011.542     8170457.940 5   6361130.235 2
  21582560.244   -17795650.350 9 -14587678.883 8
  25186022.509     2357059.868 4   3989880.500 2
 94  1 22 20 17  0.0010000  0  7 22 14 19 18 25 29 15
  21797409.088    -3985922.192 7  -8964339.596 5
  20703348.680    -2993199.103 8 -18711437.384 8
  24708395.414    -3235681.999 5  -1845140.656 1
  23343477.857    -9656417.901 6  -8580355.819 2
  24724427.025     8261983.478 5   6432448.793 2
  21575915.255   -17830576.576 9 -14614894.087 8
  25204380.331     2453501.659 4   4065029.988 2
 94  1 22 20 17 30.0010000  0  7 22 14 19 18 25 29 15
  21795267.700    -3997188.618 7  -8973118.627 5
  20705719.409    -2980737.902 8 -18701727.366 8
  24690878.570    -3327692.345 5  -1916836.872 2
  23329090.846    -9732050.491 7  -8639290.220 2
  24741837.682     8353485.260 5   6503748.838 2
  21569290.171   -17865375.168 9 -14642009.855 8
  25222706.584     2549813.541 4   4140078.155 2
 94  1 22 20 18  0.0010000  0  8 22 14 19 18 25 29  4 15
  21793234.178    -4007853.756 8  -8981429.070 5
  20708188.529    -2967750.028 8 -18691606.929 8
  24673407.835    -3419559.375 4  -1988421.478 2
  23314704.946    -9807635.934 6  -8698187.844 2
  24759244.172     8444960.261 5   6575027.953 2
  21562692.309   -17900058.758 8 -14669036.001 8
  25303946.502     -502347.48315   -523390.910 1
  25241009.753     2645992.166 4   4215022.392 1
 94  1 22 20 18 30.0010000  0  7 22 14 19 18 25 29  4
  21791319.943    -4017939.625 8  -8989288.145 5
  20710760.329    -2954229.321 8 -18681071.310 8
  24655954.608    -3511301.312 5  -2059908.671 2
  23300322.672    -9883191.489 6  -8757062.251 2
  24776639.449     8536400.820 5   6646280.333 2
  21556112.374   -17934632.844 8 -14695976.828 8
  25298097.761     -533073.040 5   -547332.881 2
 94  1 22 20 19  0.0010000  0  8 22 14 19 18 25 29  4 15
  21789501.372    -4027467.897 8  -8996712.733 5
  20713437.446    -2940169.176 8 -18670115.332 8
  24638510.854    -3602925.841 4  -2131304.287 2
  23285958.746    -9958720.748 6  -8815916.155 2
  24794032.838     8627813.625 4   6717511.000 2
  21549558.821   -17969095.891 8 -14722831.133 8
  25292336.110     -563367.973 5   -570939.418 1
  25277527.412    -5418859.97014     66004.535
 94  1 22 20 19 30.0010000  0  7 22 14 19 18 25 29  4
  21787792.525    -4036459.113 8  -9003718.819 5
  20716212.115    -2925583.521 8 -18658749.878 8
  24621096.989    -3694436.328 5  -2202611.053 2
  23271589.694   -10034236.144 6  -8874759.270 2
  24811432.313     8719205.316 5   6788725.176 2
  21543015.970   -18003445.699 8 -14749597.205 8
  25286653.904     -593220.760 5   -594201.363 2
 94  1 22 20 20  0.0010000  0  7 22 14 19 18 25 29  4
  21786186.057    -4044915.638 8  -9010308.257 5
  20719087.005    -2910476.400 8 -18646978.104 8
  24603695.596    -3785826.632 5  -2273824.184 2
  23257220.911   -10109733.273 6  -8933588.091 2
  24828811.252     8810573.535 4   6859921.139 2
  21536504.418   -18037682.115 8 -14776274.908 8
  25281052.641     -622631.476 5   -617118.781 2
 94  1 22 20 20 30.0010000  0  7 22 14 19 18 25 29  4
  21784678.941    -4052833.441 8  -9016477.925 5
  20722060.586    -2894856.635 8 -18634806.859 8
  24586340.820    -3877087.239 5  -2344936.313 2
  23242851.169   -10185210.891 6  -8992401.779 2
  24846194.358     8901896.924 4   6931082.121 2
  21530009.834   -18071803.534 8 -14802863.004 8
  25275550.041     -651608.025 4   -639697.942 1
 94  1 22 20 21  0.0010000  0  7 22 14 19 18 25 29  4
  21783276.302    -4060187.905 7  -9022208.596 5
  20725130.461    -2878719.581 8 -18622232.499 8
  24569007.900    -3968199.857 5  -2415933.083 2
  23228501.873   -10260662.177 6  -9051194.946 2
  24863575.305     8993163.250 4   7002198.698 2
  21523541.572   -18105805.070 9 -14829357.690 8
  25270111.626     -680133.851 5   -661925.861 1
 94  1 22 20 21 30.0010000  0  7 22 14 19 18 25 29  4
  21781986.085    -4066971.434 7  -9027494.418 5
  20728301.096    -2862066.962 8 -18609256.435 8
  24551685.202    -4059158.766 5  -2486810.197 2
  23214141.154   -10336093.731 6  -9109972.727 2
  24880921.447     9084375.351 4   7073273.034 2
  21517092.257   -18139692.716 9 -14855763.627 8
  25264772.412     -708197.809 4   -683793.804 2
 94  1 22 20 22  0.0010000  0  7 22 14 19 18 25 29  4
  21780808.380    -4073158.087 8  -9032315.148 5
  20731573.300    -2844878.137 8 -18595862.534 8
  24534423.812    -4149953.382 5  -2557559.120 2
  23199801.062   -10411492.093 7  -9168724.606 2
  24898267.618     9175535.882 3   7144307.012 2
  21510669.443   -18173449.738 9 -14882067.792 8
  25259516.840     -735801.498 4   -705303.302 1
 94  1 22 20 22 30.0010000  0  7 22 14 19 18 25 29  4
  21779749.633    -4078743.867 8  -9036667.617 5
  20734942.668    -2827146.619 8 -18582045.753 8
  24517175.852    -4240577.732 5  -2628175.328 2
  23185454.524   -10486851.325 6  -9227446.003 2
  24915594.993     9266644.599 4   7215300.827 2
  21504274.031   -18207060.251 9 -14908257.785 8
  25254349.678     -762940.022 4   -726450.106 1
 94  1 22 20 23  0.0010000  0  7 22 14 19 18 25 29  4
  21778791.946    -4083752.129 8  -9040570.090 5
  20738421.849    -2808865.028 8 -18567800.350 8
  24499963.029    -4331038.339 5  -2698663.992 1
  23171118.538   -10562181.906 6  -9286145.114 2
  24932933.459     9357717.394 4   7286266.508 2
  21497904.311   -18240526.030 9 -14934335.000 8
  25249289.720     -789619.407 5   -747239.166 1
 94  1 22 20 23 30.0010000  0  7 22 14 19 18 25 29  4
  21777945.032    -4088209.200 8  -9044043.089 5
  20742002.660    -2790040.200 8 -18553131.640 8
  24482773.289    -4421343.619 5  -2769031.783 1
  23156787.919   -10637488.643 6  -9344825.606 2
  24950256.847     9448756.241 4   7357205.791 1
  21491558.424   -18273859.451 8 -14960309.067 8
  25244269.276     -815863.206 3   -767688.953 1
 94  1 22 20 24  0.0010000  0  7 22 14 19 18 25 29  4
  21777194.982    -4092135.592 7  -9047102.559 5
  20745692.596    -2770681.618 8 -18538047.032 8
  24465621.023    -4511509.679 5  -2839290.943 2
  23142462.547   -10712778.775 6  -9403493.155 2
  24967568.602     9539732.251 3   7428096.144 1
  21485240.747   -18307070.987 8 -14986188.155 8
  25239378.882     -841682.998 4   -787808.248 1
 94  1 22 20 24 30.0010000  0  7 22 14 19 18 25 29  4
  21776543.832    -4095551.029 8  -9049763.912 5
  20749476.007    -2750797.459 8 -18522552.878 8
  24448482.758    -4601537.079 5  -2909442.061 2
  23128132.677   -10788060.185 6  -9462153.888 3
  24984860.091     9630640.261 3   7498933.480 1
  21478943.757   -18340160.859 8 -15011972.444 9
  25234545.478     -867073.116 4   -807592.720 1
 94  1 22 20 25  0.0010000  0  7 22 14 19 18 25 29  4
  21775996.771    -4098436.881 8  -9052012.585 5
  20753362.786    -2730374.713 8 -18506639.040 8
  24431378.818    -4691412.537 6  -2979474.762 2
  23113813.960   -10863333.768 6  -9520808.505 3
  25002167.590     9721493.927 3   7569728.422 1
  21472667.182   -18373130.238 8 -15037662.831 9
  25229797.095     -892017.211 4   -827029.598 1
 94  1 22 20 25 30.0010000  0  7 22 14 19 18 25 29  4
  21775555.447    -4100761.579 8  -9053823.975 5
  20757348.227    -2709415.170 8 -18490306.911 8
  24414312.893    -4781133.970 6  -3049387.465 2
  23099490.296   -10938585.156 6  -9579445.862 3
  25019422.114     9812298.409 3   7640485.145 1
  21466418.877   -18405966.734 8 -15063249.677 9
  25225130.855     -916487.581 4   -846097.509 1
 94  1 22 20 26  0.0010000  0  7 22 14 19 18 25 29  4
  21775227.833    -4102497.456 8  -9055176.579 5
  20761439.495    -2687917.137 8 -18473555.200 8
  24397267.593    -4870704.485 5  -3119182.605 2
  23085177.964   -11013798.803 6  -9638053.825 3
  25036702.841     9903061.593 3   7711209.617 1
  21460199.353   -18438652.415 8 -15088718.999 9
  25220573.230     -940461.027 4   -864778.066 1
 94  1 22 20 26 30.0010000  0  7 22 14 19 18 25 29  4
  21775011.953    -4103636.266 8  -9056063.911 5
  20765634.191    -2665882.796 8 -18456385.561 8
  24380247.206    -4960126.947 5  -3188862.284 2
  23070874.296   -11088971.959 6  -9696630.217 3
  25053981.769     9993796.521 3   7781912.088 1
  21454008.219   -18471197.466 8 -15114078.742 9
  25216102.695     -963940.207 4   -883073.381 1
 94  1 22 20 27  0.0010000  0  7 22 14 19 18 25 29  4
  21774907.175    -4104173.897 7  -9056482.834 5
  20769927.279    -2643311.701 8 -18438797.693 8
  24363252.271    -5049410.178 5  -3258433.541 2
  23056578.723   -11164098.702 7  -9755170.428 3
  25071236.174    10084505.000 3   7852593.918 1
  21447840.619   -18503613.940 8 -15139338.285 9
  25211727.075     -986935.253 4   -900991.534 1
 94  1 22 20 27 30.0010000  0  6 22 14 19 18 29  4
  21774918.598    -4104124.638 7  -9056444.411 5
  20774323.855    -2620219.198 8 -18420803.517 8
  24346285.607    -5138567.911 5  -3327906.941 2
  23042289.775   -11239159.400 6  -9813659.181 3
  21441697.092   -18535901.268 8 -15164497.212 9
  25207453.893    -1009458.828 4   -918542.495 1
 94  1 22 20 28  0.0010000  0  6 22 14 19 18 29  4
  21775037.016    -4103495.877 7  -9055954.423 5
  20778815.375    -2596610.035 8 -18402406.751 8
  24329347.573    -5227585.026 5  -3397270.736 2
  23028020.973   -11314159.340 6  -9872100.603 3
  21435575.570   -18568065.679 8 -15189560.347 9
  25203239.081    -1031530.629 5   -935741.231 1
 94  1 22 20 28 30.0010000  0  6 22 14 19 18 29  4
  21775262.849    -4102306.574 8  -9055027.665 5
  20783406.367    -2572489.589 8 -18383611.592 8
  24312441.527    -5316444.152 5  -3466511.475 2
  23013756.668   -11389115.476 7  -9930507.887 3
  21429475.363   -18600109.919 8 -15214529.850 9
  25199131.624    -1053159.928 5   -952595.221 1
 94  1 22 20 29  0.0010000  0  6 22 14 19 18 29  4
  21775593.161    -4100556.348 8  -9053663.818 5
  20788094.552    -2547864.974 8 -18364423.579 8
  24295566.180    -5405136.495 5  -3535622.227 2
  22999503.425   -11464029.634 7  -9988882.467 3
  21423403.726   -18632021.688 8 -15239396.122 9
  25195091.621    -1074347.116 4   -969104.695 1
 94  1 22 20 29 30.0010000  0  6 22 14 19 18 29  4
  21776034.155    -4098243.589 8  -9051861.649 5
  20792874.173    -2522737.361 8 -18344843.595 8
  24278715.805    -5493646.161 5  -3604590.598 2
  22985254.050   -11538911.599 7 -10047231.955 3
  21417358.231   -18663794.723 8 -15264154.294 9
  25191151.808    -1095086.339 5   -985265.061 1
 94  1 22 20 30  0.0010000  0  6 22 14 19 18 29  4
  21776582.656    -4095373.117 8  -9049624.905 6
  20797753.235    -2497096.147 8 -18324863.421 8
  24261903.624    -5581968.037 5  -3673412.631 2
  22971005.004   -11613783.620 7 -10105573.729 3
  21411335.041   -18695428.817 8 -15288804.206 9
  25187298.786    -1115374.171 5  -1001073.796 1
 94  1 22 20 30 30.0010000  0  6 22 14 19 18 29  4
  21777232.755    -4091939.043 7  -9046948.990 6
  20802731.049    -2470927.404 8 -18304472.194 8
  24245129.516    -5670112.094 5  -3742096.109 2
  22956762.884   -11688627.134 7 -10163893.279 3
  21405347.706   -18726912.591 9 -15313336.982 9
  25183518.043    -1135202.431 5  -1016524.387 1
 94  1 22 20 31  0.0010000  0  6 22 14 19 18 29  4
  21777995.697    -4087929.200 8  -9043824.418 6
  20807817.238    -2444218.498 8 -18283660.037 8
  24228399.718    -5758097.973 5  -3810656.322 2
  22942528.948   -11763426.338 7 -10222178.308 3
  21399386.123   -18758249.859 9 -15337755.600 9
  25179821.812    -1154575.462 4  -1031620.258 1
 94  1 22 20 31 30.0010000  0  6 22 14 19 18 29  4
  21778872.051    -4083343.652 7  -9040251.257 6
  20813001.939    -2416959.578 8 -18262419.300 8
  24211678.734    -5845917.963 5  -3879087.283 2
  22928308.712   -11838165.701 6 -10280416.737 3
  21393446.305   -18789440.409 8 -15362059.894 9
  25176239.442    -1173483.612 4  -1046353.806 1
 94  1 22 20 32  0.0010000  0  6 22 14 19 18 29  4
  21779853.961    -4078179.427 7  -9036227.142 6
  20818289.198    -2389160.314 8 -18240757.544 7
  24195014.260    -5933582.509 4  -3947397.107 2
  22914101.398   -11912827.464 6 -10338594.655 3
  21387540.454   -18820488.668 9 -15386253.299 9
  25172720.118    -1191932.392 5  -1060729.462 1
 94  1 22 20 32 30.0010000  0  6 22 14 19 18 29  4
  21780946.764    -4072430.485 8  -9031747.425 5
  20823685.163    -2360831.853 8 -18218683.405 8
  24178356.532    -6021088.749 4  -4015583.589 2
  22899904.666   -11987399.691 6 -10396702.805 3
  21381658.046   -18851403.162 8 -15410342.490 9
  25169308.450    -1209928.075 4  -1074751.975 1
 94  1 22 20 33  0.0010000  0  6 22 14 19 18 29  4
  21782148.752    -4066111.141 8  -9026823.242 5
  20829170.315    -2331989.112 8 -18196208.519 8
  24161735.529    -6108427.040 5  -4083639.248 2
  22885732.097   -12061902.593 7 -10454756.963 3
  21375800.341   -18882187.078 8 -15434329.931 9
  25165962.377    -1227472.005 4  -1088422.670 1
 94  1 22 20 33 30.0010000  0  6 22 14 19 18 29  4
  21783458.635    -4059234.143 8  -9021464.537 5
  20834751.941    -2302645.970 8 -18173343.730 7
  24145148.402    -6195579.071 6  -4151549.772 2
  22871564.835   -12136341.479 7 -10512761.243 3
  21369967.100   -18912831.815 8 -15458208.911 9
  25162711.427    -1244561.668 4  -1101739.170 1
 94  1 22 20 34  0.0010000  0  6 22 14 19 18 29  4
  21784873.746    -4051791.123 8  -9015664.749 5
  20840439.214    -2272791.937 8 -18150080.852 7
  24128605.854    -6282549.637 5  -4219318.923 2
  22857406.747   -12210732.163 7 -10570727.927 3
  21364163.118   -18943329.784 8 -15481973.547 8
  25159545.499    -1261191.127 4  -1114697.160 2
 94  1 22 20 34 30.0010000  0  6 22 14 19 18 29  4
  21786398.430    -4043789.272 8  -9009429.524 6
  20846218.703    -2242411.708 8 -18126407.932 7
  24112073.799    -6369333.854 5  -4286942.865 2
  22843264.937   -12285097.693 7 -10628675.045 3
  21358389.744   -18973669.661 8 -15505614.974 9
  25156460.185    -1277353.191 4  -1127291.027 2
 94  1 22 20 35  0.0010000  0  6 22 14 19 18 29  4
  21788021.956    -4035239.422 8  -9002767.289 6
  20852097.213    -2211500.990 8 -18102321.636 7
  24095600.233    -6455942.357 5  -4354429.895 2
  22829109.157   -12359454.156 6 -10686615.070 3
  21352648.659   -19003844.690 9 -15529127.970 9
  25153476.441    -1293041.652 4  -1139515.782 2
 94  1 22 20 35 30.0010000  0  6 22 14 19 18 29  4
  21789761.412    -4026130.473 8  -8995669.384 6
  20858083.469    -2180044.376 8 -18077810.007 7
  24079153.079    -6542390.782 6  -4421792.161 2
  22814962.490   -12433794.087 7 -10744542.255 3
  21346935.634   -19033863.882 9 -15552519.513 9
  25150594.056    -1308249.671 4  -1151366.107 2
 94  1 22 20 36  0.0010000  0  6 22 14 19 18 29  4
  21791600.489    -4016448.092 8  -8988124.639 6
  20864177.830    -2148036.044 8 -18052868.435 7
  24062731.737    -6628687.741 6  -4489036.481 2
  22800822.929   -12508111.632 7 -10802451.982 3
  21341251.629   -19063737.876 8 -15575797.940 9
  25147780.444    -1322982.216 4  -1162845.985 2
 94  1 22 20 36 30.0010000  0  6 22 14 19 18 29  4
  21793554.416    -4006196.766 8  -8980136.569 6
  20870372.951    -2115487.238 8 -18027505.724 7
  24046336.658    -6714829.022 6  -4556159.414 2
  22786685.766   -12582380.252 7 -10860323.566 3
  21335594.995   -19093464.606 8 -15598961.581 9
  25145052.602    -1337249.897 3  -1173963.674 2
 94  1 22 20 37  0.0010000  0  6 22 14 19 18 29  4
  21795612.192    -3995363.147 8  -8971694.763 6
  20876664.936    -2082406.542 8 -18001728.565 7
  24029977.283    -6800807.418 6  -4623155.418 2
  22772570.667   -12656565.966 7 -10918130.570 3
  21329966.751   -19123041.411 8 -15622008.422 9
  25142444.678    -1351057.981 4  -1184723.237 2
 94  1 22 20 37 30.0010000  0  6 22 14 19 18 29  4
  21797790.214    -3983935.277 8  -8962789.883 6
  20883058.070    -2048806.127 8 -17975546.413 7
  24013651.425    -6886610.723 6  -4690015.003 2
  22758475.385   -12730650.214 7 -10975858.492 3
  21324367.078   -19152465.283 8 -15644936.084 9
  25139884.660    -1364420.597 4  -1195135.594 2
 94  1 22 20 38  0.0010000  0  6 22 14 19 18 29  4
  21800071.065    -3971929.692 8  -8953434.861 6
  20889549.476    -2014708.415 8 -17948976.767 7
  23997351.709    -6972229.863 6  -4756731.054 2
  22744394.553   -12804632.686 7 -11033507.131 3
  21318800.142   -19181724.883 9 -15667735.757 9
  25137417.578    -1377350.221 4  -1205210.618 2
 94  1 22 20 38 30.0010000  0  6 22 14 19 18 29  4
  21802466.676    -3959353.385 7  -8943635.115 6
  20896131.299    -1980101.785 8 -17922010.565 7
  23981092.855    -7057655.047 6  -4823296.037 2
  22730333.178   -12878519.744 7 -11091081.397 4
  21313263.904   -19210807.090 9 -15690397.212 9
  25135055.873    -1389830.348 4  -1214935.396 2
 94  1 22 20 39  0.0010000  0  6 22 14 19 18 29  4
  21804970.723    -3946202.634 8  -8933387.761 6
  20902817.331    -1944984.140 8 -17894646.159 7
  23964883.197    -7142885.177 6  -4889708.970 2
  22716283.734   -12952329.812 7 -11148595.703 4
  21307761.334   -19239714.523 8 -15712922.473 9
  25132773.583    -1401849.617 5  -1224301.025 2
 94  1 22 20 39 30.0010000  0  6 22 14 19 18 29  4
  21807581.765    -3932490.925 8  -8922703.272 6
  20909592.910    -1909358.860 8 -17866886.204 7
  23948694.674    -7227938.679 5  -4955984.256 2
  22702255.006   -13026099.477 7 -11206078.508 4
  21302286.884   -19268468.668 8 -15735328.284 9
  25130577.843    -1413412.208 5  -1233310.770 2
 94  1 22 20 40  0.0010000  0  6 22 14 19 18 29  4
  21810290.990    -3918219.652 8  -8911582.781 6
  20916471.678    -1873208.420 8 -17838717.024 7
  23932535.381    -7312828.470 5  -5022132.051 2
  22688214.556   -13099835.163 7 -11263534.795 4
  21296849.608   -19297073.855 8 -15757618.009 9
  25128461.278    -1424515.167 5  -1241962.421 1
 94  1 22 20 40 30.0010000  0  6 22 14 19 18 29  4
  21813114.525    -3903382.331 7  -8900021.212 6
  20923453.784    -1836528.746 8 -17810135.464 7
  23916421.236    -7397559.905 6  -5088156.458 2
  22674192.213   -13173545.822 7 -11320971.632 4
  21291433.287   -19325527.271 8 -15779789.501 9
  25126441.546    -1435157.332 5  -1250255.045 1
 94  1 22 20 41  0.0010000  0  6 22 14 19 18 29  4
  21816044.217    -3887982.390 7  -8888021.246 6
  20930527.957    -1799343.897 8 -17781160.264 7
  23900321.032    -7482143.001 6  -5154065.243 2
  22660172.269   -13247229.225 7 -11378387.206 4
  21286048.715   -19353833.411 9 -15801846.220 9
  25124505.127    -1445359.047 5  -1258204.433 1
 94  1 22 20 41 30.0010000  0  6 22 14 19 18 29  4
  21819078.626    -3872033.706 8  -8875593.677 6
  20937702.230    -1761651.072 8 -17751789.243 7
  23884248.709    -7566587.022 5  -5219865.657 2
  22646158.980   -13320873.632 7 -11435772.405 4
  21280690.405   -19381983.282 9 -15823781.166 9
  25122623.240    -1455132.549 4  -1265820.099 2
 94  1 22 20 42  0.0010000  0  6 22 14 19 18 29  4
  21822218.532    -3855538.657 7  -8862740.370 6
  20944975.465    -1723442.545 8 -17722016.351 7
  23868208.433    -7650862.812 6  -5285535.019 2
  22632152.917   -13394455.232 7 -11493108.669 4
  21275371.277   -19409943.771 9 -15845568.556 9
  25120862.589    -1464462.507 5  -1273090.110 1
 94  1 22 20 42 30.0010000  0  6 22 14 19 18 29  4
  21825457.880    -3838501.723 8  -8849464.811 6
  20952337.529    -1684736.517 8 -17691855.821 7
  23852212.947    -7734951.276 6  -5351058.345 2
  22618167.239   -13467966.182 7 -11550389.873 3
  21270086.086   -19437707.113 8 -15867202.315 9
  25119167.023    -1473348.513 4  -1280014.434 1
 94  1 22 20 43  0.0010000  0  6 22 14 19 18 29  4
  21828809.620    -3820921.177 8  -8835765.678 6
  20959803.710    -1645521.255 8 -17661298.466 7
  23836240.814    -7818852.220 5  -5416435.589 2
  22604194.602   -13541385.629 7 -11607599.787 3
  21264839.268   -19465279.692 8 -15888687.431 9
  25117548.773    -1481795.299 4  -1286596.272 2
 94  1 22 20 43 30.0010000  0  6 22 14 19 18 29  4
  21832253.995    -3802804.407 8  -8821648.663 6
  20967362.407    -1605791.219 8 -17630340.001 7
  23820312.301    -7902564.327 6  -5481665.685 2
  22590238.004   -13614716.782 7 -11664740.883 4
  21259630.104   -19492666.152 8 -15910027.484 9
  25116047.292    -1489800.721 3  -1292834.309 1
 94  1 22 20 44  0.0010000  0  6 22 14 19 18 29  4
  21835799.940    -3784145.096 7  -8807108.958 6
  20975017.008    -1565559.768 8 -17598990.818 7
  23804418.744    -7986078.643 6  -5546741.687 2
  22576302.931   -13687964.572 7 -11721817.016 4
  21254453.018   -19519881.381 8 -15931234.156 9
  25114603.132    -1497361.711 4  -1298726.004 1
 94  1 22 20 44 30.0010000  0  6 22 14 19 18 29  4
  21839464.573    -3764933.683 8  -8792138.997 6
  20982766.613    -1524826.386 8 -17567250.528 7
  23788568.657    -8069418.693 6  -5611681.851 2
  22562374.303   -13761124.987 7 -11778825.057 4
  21249298.867   -19546955.315 8 -15952330.711 9
  25113243.064    -1504478.917 4  -1304271.840 1
 94  1 22 20 45  0.0010000  0  6 22 14 19 18 29  4
  21843224.330    -3745172.288 7  -8776740.502 6
  20990619.497    -1483577.294 8 -17535108.366 7
  23772737.396    -8152596.474 6  -5676495.586 2
  22548474.096   -13834203.247 7 -11835769.091 4
  21244171.876   -19573894.032 8 -15973321.901 9
  25111981.207    -1511132.627 4  -1309456.512 1
 94  1 22 20 45 30.0010000  0  6 22 14 19 18 29  4
  21847085.627    -3724860.925 8  -8760913.455 6
  20998565.526    -1441828.039 8 -17502576.490 7
  23756940.013    -8235605.357 6  -5741177.683 2
  22534575.628   -13907218.454 7 -11892663.993 4
  21239071.507   -19600696.176 8 -15994206.662 9
  25110795.948    -1517315.321 4  -1314274.287 1
 94  1 22 20 46  0.0010000  0  6 22 14 19 18 29  4
  21851055.179    -3703993.155 8  -8744652.849 6
  21006600.383    -1399571.494 8 -17469649.302 7
  23741174.947    -8318440.921 6  -5805724.741 2
  22520696.107   -13980168.747 7 -11949508.302 4
  21233998.239   -19627353.950 9 -16014978.927 9
  25109723.500    -1523019.803 3  -1318719.300 1
 94  1 22 20 46 30.0010000  0  6 22 14 19 18 29  4
  21855134.215    -3682568.962 8  -8727958.668 6
  21014744.905    -1356799.148 8 -17436320.201 7
  23725450.293    -8401104.054 6  -5870137.429 2
  22506826.358   -14053056.804 7 -12006304.139 4
  21228958.038   -19653855.522 8 -16035629.487 9
  25108699.739    -1528247.567 3  -1322792.874 1
 94  1 22 20 47  0.0010000  0  6 22 14 19 18 29  4
  21859317.699    -3660584.529 8  -8710827.955 6
  21022980.264    -1313509.502 8 -17402588.010 7
  23709749.532    -8483566.818 5  -5934393.999 2
  22492969.321   -14125885.888 7 -12063054.011 4
  21223951.984   -19680161.290 9 -16056127.457 9
  25107801.501    -1533006.894 3  -1326501.482 1
 94  1 22 20 47 30.0010000  0  6 22 14 19 18 29  4
  21863607.190    -3638020.367 8  -8693245.474 6
  21031318.421    -1269693.999 8 -17368446.059 7
  23694100.486    -8565810.912 5  -5998480.181 2
  22479117.980   -14198650.924 7 -12119753.997 4
  21218986.012   -19706257.115 9 -16076461.847 9
  25107011.967    -1537303.526 4  -1329849.453 1
 94  1 22 20 48  0.0010000  0  6 22 14 19 18 29  4
  21868013.509    -3614885.502 8  -8675218.322 6
  21039760.367    -1225348.436 8 -17333891.065 7
  23678494.459    -8647841.123 6  -6062399.720 2
  22465284.747   -14271346.011 7 -12176399.471 4
  21214056.494   -19732147.877 8 -16096636.440 9
  25106266.084    -1541150.963 4  -1332847.469 2
 94  1 22 20 48 30.0010000  0  6 22 14 19 18 29  4
  21872526.135    -3591180.420 8  -8656746.831 6
  21048295.908    -1180492.451 8 -17298938.348 7
  23662921.770    -8729667.970 6  -6126160.810 2
  22451467.193   -14343978.255 7 -12232995.972 4
  21209164.751   -19757841.427 8 -16116657.352 9
  25105613.286    -1544568.584 4  -1335510.592 1
 94  1 22 20 49  0.0010000  0  6 22 14 19 18 29  4
  21877144.528    -3566903.980 7  -8637830.132 6
  21056923.575    -1135138.472 8 -17263597.571 7
  23647385.775    -8811294.689 6  -6189765.950 2
  22437655.095   -14416542.681 7 -12289539.619 4
  21204315.338   -19783338.067 8 -16136524.849 9
  25105046.738    -1547559.713 4  -1337841.398 1
 94  1 22 20 49 30.0010000  0  6 22 14 19 18 29  4
  21881877.981    -3542047.288 7  -8618461.295 6
  21065648.885    -1089275.623 8 -17227860.284 7
  23631893.850    -8892729.478 6  -6253221.471 2
  22423863.562   -14489008.740 7 -12346006.644 4
  21199500.042   -19808633.630 8 -16156235.647 9
  25104570.248    -1550104.578 5  -1339824.344 1
 94  1 22 20 50  0.0010000  0  6 22 14 19 18 29  4
  21886715.252    -3516613.183 7  -8598642.528 6
  21074474.475    -1042909.801 8 -17191731.075 7
  23616429.296    -8973964.505 6  -6316521.384 2
  22410100.031   -14561346.768 7 -12402373.889 4
  21194729.654   -19833710.168 9 -16175775.798 9
  25104160.581    -1552197.089 5  -1341454.993 1
 94  1 22 20 50 30.0010000  0  6 22 14 19 18 29  4
  21891666.265    -3490610.121 7  -8578380.407 6
  21083393.840     -996045.258 8 -17155213.249 7
  23601006.743    -9054998.814 6  -6379664.873 2
  22396362.911   -14633550.711 7 -12458636.630 4
  21190000.548   -19858563.343 9 -16195141.882 9
  25103854.553    -1553826.157 4  -1342724.405 1
 94  1 22 20 51  0.0010000  0  6 22 14 19 18 29  4
  21896717.588    -3464060.462 7  -8557692.367 6
  21092408.000     -948676.101 8 -17118302.213 7
  23585626.820    -9135829.669 6  -6442649.909 2
  22382648.275   -14705611.033 7 -12514787.454 4
  21185316.141   -19883193.637 9 -16214334.305 9
  25103631.567    -1554975.119 4  -1343619.632 1
 94  1 22 20 51 30.0010000  0  6 22 14 19 18 29  4
  21901873.149    -3436974.144 8  -8536586.182 6
  21101518.153     -900796.698 8 -17080993.587 7
  23570288.599    -9216454.271 6  -6505474.198 2
  22368955.704   -14777535.400 7 -12570832.374 4
  21180665.341   -19907615.212 9 -16233364.077 9
  25103508.982    -1555649.721 4  -1344145.363 1
 94  1 22 20 52  0.0010000  0  6 22 14 19 18 29  4
  21907170.332    -3409132.209 8  -8514891.144 6
  21110769.508     -852186.489 8 -17043115.512 7
  23555035.638    -9296633.368 6  -6567951.287 2
  22355342.219   -14849118.525 7 -12626611.365 4
  21176100.401   -19931616.683 9 -16252066.501 9
  25103521.544    -1555628.519 4  -1344128.823 1
 94  1 22 20 52 30.0010000  0  6 22 14 19 18 29  4
  21912616.691    -3380500.954 7  -8492581.056 6
  21120162.186     -802823.331 8 -17004650.716 7
  23539865.480    -9376346.706 6  -6630065.482 2
  22341781.766   -14920358.639 7 -12682123.077 4
  21171612.418   -19955187.525 8 -16270433.378 9
  25103655.551    -1554888.127 5  -1343551.879 1
 94  1 22 20 53  0.0010000  0  6 22 14 19 18 29  4
  21918167.618    -3351319.403 7  -8469842.205 6
  21129648.998     -752972.819 8 -16965806.172 7
  23524733.336    -9455853.783 6  -6692018.950 2
  22328244.428   -14991513.100 7 -12737568.075 4
  21167161.999   -19978582.784 9 -16288663.441 9
  25103871.581    -1553703.567 4  -1342628.800 1
 94  1 22 20 53 30.0010000  0  6 22 14 19 18 29  4
  21923828.270    -3321580.268 7  -8446668.844 6
  21139225.629     -702631.316 8 -16926579.028 7
  23509640.794    -9535159.944 6  -6753815.874 2
  22314716.263   -15062597.277 7 -12792958.289 4
  21162743.118   -20001803.869 9 -16306757.786 9
  25104181.807    -1552097.961 4  -1341377.781 1
 94  1 22 20 54  0.0010000  0  6 22 14 19 18 29  4
  21929595.587    -3291280.323 7  -8423058.493 6
  21148901.010     -651795.929 8 -16886967.060 7
  23494582.489    -9614278.916 6  -6815466.967 2
  22301203.238   -15133607.628 7 -12848290.990 4
  21158359.373   -20024844.060 9 -16324711.167 9
  25104571.477    -1550072.693 5  -1339799.582 1
 94  1 22 20 54 30.0010000  0  6 22 14 19 18 29  4
  21935465.343    -3260416.377 7  -8399008.648 6
  21158671.906     -600455.378 8 -16846961.429 7
  23479563.307    -9693219.582 6  -6876979.079 2
  22287707.691   -15204531.018 7 -12903555.917 5
  21154013.521   -20047688.166 8 -16342511.752 9
  25105025.153    -1547630.082 5  -1337896.135 1
 94  1 22 20 55  0.0010000  0  6 22 14 19 18 29  4
  21941447.552    -3229006.981 8  -8374533.794 6
  21168539.635     -548600.929 8 -16806555.372 7
  23464577.731    -9771988.946 6  -6938357.708 3
  22274235.767   -15275344.864 7 -12958735.470 5
  21149701.336   -20070331.842 8 -16360156.159 9
  25105580.159    -1544764.961 5  -1335663.320 1
 94  1 22 20 55 30.0010000  0  6 22 14 19 18 29  4
  21947525.874    -3197065.839 7  -8349644.592 6
  21178503.507     -496219.789 8 -16765738.907 6
  23449615.719    -9850590.500 6  -6999605.611 3
  22260781.472   -15346046.898 7 -13013827.924 5
  21145434.390   -20092777.370 8 -16377646.174 9
  25106210.502    -1541461.815 5  -1333089.256 1
 94  1 22 20 56  0.0010000  0  6 22 14 19 18 29  4
  21953698.960    -3164603.459 7  -8324349.214 6
  21188570.748     -443344.852 8 -16724537.668 6
  23434691.541    -9929016.467 6  -7060716.735 2
  22247347.832   -15416620.348 7 -13068820.174 5
  21141199.462   -20115022.712 9 -16394980.188 9
  25106918.912    -1537711.729 5  -1330167.108 1
 94  1 22 20 56 30.0010000  0  6 22 14 19 18 29  4
  21959974.726    -3131627.890 7  -8298653.989 6
  21198714.825     -390003.581 8 -16682973.042 6
  23419809.273   -10007247.781 6  -7121676.146 2
  22233943.301   -15487057.627 7 -13123706.324 5
  21137002.608   -20137068.084 9 -16412158.396 9
  25107721.096    -1533514.938 5  -1326896.843 1
 94  1 22 20 57  0.0010000  0  6 22 14 19 18 29  4
  21966351.761    -3098130.956 8  -8272552.481 6
  21208954.596     -336201.085 8 -16641049.017 6
  23404961.722   -10085269.695 6  -7182472.334 2
  22220564.613   -15557362.238 7 -13178489.102 5
  21132845.505   -20158907.258 8 -16429175.926 9
  25108602.396    -1528862.864 5  -1323271.896 1
 94  1 22 20 57 30.0010000  0  6 22 14 19 18 29  4
  21972826.948    -3064109.927 7  -8246042.562 6
  21219280.378     -281950.344 8 -16598775.717 6
  23390151.915   -10163072.536 6  -7243097.856 2
  22207206.791   -15627561.455 7 -13233189.771 5
  21128731.903   -20180531.217 8 -16446025.775 9
  25109568.388    -1523773.585 4  -1319306.215 1
 94  1 22 20 58  0.0010000  0  6 22 14 19 18 29  4
  21979400.588    -3029551.683 7  -8219114.071 6
  21229686.474     -227259.977 8 -16556159.873 6
  23375386.746   -10240644.351 6  -7303543.390 2
  22193869.054   -15697663.838 8 -13287814.938 5
  21124662.401   -20201925.682 8 -16462696.769 9
  25110626.565    -1518255.313 4  -1315006.179 1
 94  1 22 20 58 30.0010000  0  6 22 14 19 18 29  4
  21986084.640    -2994434.917 7  -8191750.362 5
  21240186.285     -172093.538 8 -16513173.039 6
  23360673.232   -10317999.877 6  -7363820.394 2
  22180542.560   -15767681.625 7 -13342374.215 4
  21120635.109   -20223084.788 8 -16479184.377 9
  25111760.020    -1512316.564 5  -1310378.520 1
 94  1 22 20 59  0.0010000  0  6 22 14 19 18 29  4
  21992874.460    -2958757.541 7  -8163949.799 6
  21250776.993     -116426.346 8 -16469796.006 6
  23345987.269   -10395155.930 6  -7423941.900 3
  22167230.666   -15837626.514 7 -13396876.686 4
  21116652.636   -20244006.495 9 -16495486.998 9
  25112956.972    -1505957.585 5  -1305423.593 1
 94  1 22 20 59 30.0010000  0  6 22 14 19 18 29  4
  21999770.046    -2922525.609 7  -8135717.138 6
  21261464.864      -60264.368 8 -16426033.448 6
  23331341.928   -10472121.240 6  -7483914.787 2
  22153937.208   -15907495.155 7 -13451319.747 5
  21112716.391   -20264710.350 9 -16511619.884 9
  25114249.377    -1499193.715 4  -1300153.011 1
 94  1 22 21  0  0.0010000  0  6 22 14 19 18 29  4
  22006767.502    -2885731.784 7  -8107046.627 6
  21272246.420       -3603.310 8 -16381881.986 6
  23316732.172   -10548896.369 6  -7543739.605 2
  22140660.300   -15977260.416 8 -13505682.236 5
  21108812.583   -20285212.633 9 -16527595.660 9
  25115610.585    -1492017.571 4  -1294561.077 1
 94  1 22 21  0 30.0010000  0  6 22 14 19 18 29  4
  22013876.361    -2848378.187 7  -8077939.956 6
  21283128.916       53574.427 8 -16337327.902 6
  23302162.139   -10625464.288 6  -7603402.834 3
  22127410.552   -16046888.682 8 -13559937.977 5
  21104948.588   -20305509.591 9 -16543411.469 9
  25117048.449    -1484403.778 3  -1288628.247 1
 94  1 22 21  1  0.0010000  0  6 22 14 19 18 29  4
  22021090.926    -2810467.129 8  -8048398.861 6
  21294108.995      111270.404 8 -16292370.019 6
  23287640.372   -10701779.477 6  -7662869.114 3
  22114191.564   -16116349.719 8 -13614063.438 5
  21101127.433   -20325578.492 8 -16559049.576 9
  25118599.306    -1476315.575 5  -1282325.752 1
 94  1 22 21  1 30.0010000  0  6 22 14 19 18 29  4
  22028411.978    -2771991.893 7  -8018418.164 6
  21305183.119      169476.174 8 -16247014.894 6
  23273166.782   -10777816.722 6  -7722118.836 3
  22101011.968   -16185617.133 8 -13668038.009 5
  21097360.151   -20345396.840 8 -16574492.417 9
  25120239.500    -1467736.262 5  -1275640.532 1
 94  1 22 21  2  0.0010000  0  6 22 14 19 18 29  4
  22035837.837    -2732975.869 7  -7988016.095 6
  21316356.473      228187.992 8 -16201265.435 6
  23258754.469   -10853582.460 6  -7781157.044 3
  22087866.158   -16254693.454 8 -13721863.655 5
  21093640.207   -20364947.370 9 -16589726.581 9
  25121962.347    -1458661.184 4  -1268569.066 1
 94  1 22 21  2 30.0010000  0  6 22 14 19 18 29  4
  22043367.664    -2693428.873 8  -7957200.262 6
  21327622.344      287401.682 8 -16155124.918 6
  23244378.012   -10929087.560 6  -7839992.131 3
  22074752.067   -16323602.927 8 -13775559.324 5
  21089968.499   -20384217.775 8 -16604742.475 9
  25123762.031    -1449091.537 3  -1261112.287 1
 94  1 22 21  3  0.0010000  0  6 22 14 19 18 29  4
  22050992.585    -2653331.644 8  -7925955.663 6
  21338985.468      347105.185 8 -16108602.720 6
  23230066.100   -11004329.217 6  -7898621.899 3
  22061675.420   -16392343.115 8 -13829123.088 5
  21086358.848   -20403199.407 8 -16619533.348 9
  25125679.594    -1439039.187 4  -1253279.243 1
 94  1 22 21  3 30.0010000  0  6 22 14 19 18 29  4
  22058724.803    -2612673.896 7  -7894274.297 6
  21350441.617      407296.044 8 -16061700.761 6
  23215797.418   -11079328.586 6  -7957062.881 3
  22048626.444   -16460912.473 8 -13882553.707 5
  21082801.031   -20421895.598 8 -16634101.778 9
  25127705.202    -1428519.716 4  -1245082.148 1
 94  1 22 21  4  0.0010000  0  6 22 14 19 18 29  4
  22066571.750    -2571465.010 7  -7862163.497 6
  21361986.085      467972.553 8 -16014420.360 6
  23201570.527   -11154094.126 6  -8015321.686 3
  22035609.695   -16529325.777 8 -13935862.735 5
  21079294.208   -20440327.302 8 -16648464.129 9
  25129795.205    -1417549.683 4  -1236534.051 1
 94  1 22 21  4 30.0010000  0  6 22 14 19 18 29  4
  22074520.837    -2529691.124 7  -7829612.424 6
  21373625.017      529132.100 8 -15966763.603 6
  23187385.667   -11228613.639 6  -8073388.765 3
  22022621.546   -16597580.942 8 -13989048.546 5
  21075839.670   -20458493.705 8 -16662619.764 9
  25131956.888    -1406128.119 4  -1227634.162 1
 94  1 22 21  5  0.0010000  0  6 22 14 19 18 29  4
  22082575.691    -2487371.203 7  -7796635.876 6
  21385351.579      590763.776 8 -15918738.929 6
  23173251.652   -11302892.503 6  -8131268.348 3
  22009662.987   -16665671.555 8 -14042106.122 5
  21072428.421   -20476406.863 8 -16676578.047 9
  25134217.773    -1394266.932 4  -1218391.638 1
 94  1 22 21  5 30.0010000  0  6 22 14 19 18 29  4
  22090727.198    -2444537.365 7  -7763258.866 5
  21397173.775      652880.914 8 -15870335.974 6
  23159157.989   -11376953.494 6  -8188978.119 3
  21996727.093   -16733623.889 8 -14095055.955 5
  21069066.879   -20494081.797 8 -16690350.719 9
  25136562.180    -1381967.924 4  -1208808.095 1
 94  1 22 21  6  0.0010000  0  6 22 14 19 18 29  4
  22098970.861    -2401204.729 7  -7729493.192 5
  21409084.289      715478.637 8 -15821558.544 6
  23145103.718   -11450800.438 6  -8246521.101 3
  21983824.595   -16801445.990 8 -14147904.308 5
  21065742.060   -20511531.738 8 -16703948.056 9
  25138984.323    -1369236.981 4  -1198887.814 1
 94  1 22 21  6 30.0010000  0  6 22 14 19 18 29  4
  22107312.316    -2357364.555 7  -7695332.012 5
  21421086.990      778540.027 8 -15772419.827 6
  23131088.361   -11524444.004 6  -8303905.662 3
  21970937.746   -16869141.944 8 -14200654.373 5
  21062467.277   -20528761.796 8 -16717374.060 9
  25141484.952    -1356080.637 4  -1188636.065 1
 94  1 22 21  7  0.0010000  0  6 22 14 19 18 29  4
  22115753.932    -2313018.342 7  -7660776.537 5
  21433171.294      842062.294 8 -15722921.969 6
  23117112.156   -11597889.148 6  -8361135.581 3
  21958081.896   -16936711.474 8 -14253305.921 5
  21059224.812   -20545780.636 8 -16730635.475 9
  25144060.139    -1342508.989 4  -1178060.736 1
 94  1 22 21  7 30.0010000  0  6 22 14 19 18 29  4
  22124287.734    -2268159.857 7  -7625821.897 6
  21445348.624      906031.348 8 -15673075.973 6
  23103175.644   -11671141.448 6  -8418215.261 3
  21945248.081   -17004158.427 8 -14305861.963 5
  21056027.376   -20562588.320 8 -16743732.370 9
  25146735.217    -1328533.951 5  -1167171.101 1
 94  1 22 21  8  0.0010000  0  6 22 14 19 18 29  4
  22132922.057    -2222788.468 7  -7590467.571 6
  21457594.726      970415.953 8 -15622906.176 6
  23089272.319   -11744197.210 6  -8475141.746 3
  21932437.859   -17071476.950 8 -14358317.933 5
  21052870.591   -20579177.098 8 -16756658.684 9
  25149465.697    -1314176.893 5  -1155983.775 1
 94  1 22 21  8 30.0010000  0  6 22 14 19 18 29  4
  22141655.821    -2176895.521 7  -7554706.841 5
  21469925.670     1035230.791 8 -15572401.137 6
  23075409.916   -11817045.224 6  -8531906.401 3
  21919655.848   -17138654.727 8 -14410664.224 5
  21049760.784   -20595524.506 8 -16769396.906 9
  25152266.089    -1299434.010 4  -1144495.845 1
 94  1 22 21  9  0.0010000  0  6 22 14 19 18 29  4
  22150481.411    -2130500.228 7  -7518554.675 5
  21482347.240     1100492.229 8 -15521548.086 6
  23061591.882   -11889687.638 6  -8588510.868 3
  21906895.872   -17205686.503 8 -14462896.746 5
  21046696.695   -20611614.676 8 -16781934.690 9
  25155133.993    -1284302.099 4  -1132704.775 2
 94  1 22 21  9 30.0010000  0  6 22 14 19 18 29  4
  22159407.521    -2083607.934 7  -7482015.230 5
  21494859.139     1166205.772 8 -15470342.750 6
  23047804.457   -11962123.797 6  -8644954.542 3
  21894174.508   -17272562.238 8 -14515007.674 5
  21043686.149   -20627434.665 8 -16794261.957 9
  25158088.598    -1268774.248 4  -1120605.123 2
 94  1 22 21 10  0.0010000  0  6 22 14 19 18 29  4
  22168423.660    -2036216.492 7  -7445086.831 5
  21507450.452     1232390.131 8 -15418770.552 6
  23034064.129   -12034334.122 6  -8701222.286 3
  21881476.529   -17339266.325 8 -14566984.868 5
  21040728.847   -20642981.829 8 -16806376.624 9
  25161130.172    -1252832.393 4  -1108182.941 1
 94  1 22 21 10 30.0010000  0  6 22 14 19 18 29  4
  22177545.445    -1988321.085 7  -7407765.777 5
  21520131.823     1299046.378 8 -15366830.649 6
  23020370.899   -12106315.828 6  -8757311.895 3
  21868817.733   -17405793.990 8 -14618824.579 5
  21037823.738   -20658260.342 8 -16818281.949 9
  25164249.153    -1236463.775 4  -1095428.154 1
 94  1 22 21 11  0.0010000  0  6 22 14 19 18 29  4
  22186748.953    -1939932.434 7  -7370060.338 5
  21532903.041     1366163.860 7 -15314531.325 6
  23006704.410   -12178074.888 6  -8813227.994 3
  21856192.123   -17472153.210 8 -14670533.049 5
  21034963.598   -20673276.983 8 -16829983.220 9
  25167445.390    -1219674.495 4  -1082345.577 1
 94  1 22 21 11 30.0010000  0  6 22 14 19 18 29  4
  22196048.515    -1891051.577 7  -7331971.356 5
  21545761.859     1433718.154 8 -15261891.658 6
  22993095.062   -12249614.044 6  -8868972.732 3
  21843590.167   -17538361.477 8 -14722123.897 5
  21032155.742   -20688054.310 8 -16841498.013 9
  25170727.998    -1202482.728 4  -1068949.489 1
 94  1 22 21 12  0.0010000  0  6 22 14 19 18 29  4
  22205445.210    -1841686.725 7  -7293505.246 5
  21558695.056     1501690.562 8 -15208926.170 6
  22979521.568   -12320944.535 6  -8924554.883 3
  21831018.910   -17604430.164 8 -14773605.949 6
  21029384.070   -20702608.824 8 -16852839.185 9
  25174060.161    -1184904.094 4  -1055251.785 1
 94  1 22 21 12 30.0010000  0  6 22 14 19 18 29  4
  22214927.676    -1791839.192 7  -7254663.023 5
  21571706.738     1570081.221 7 -15155634.783 6
  22965982.521   -12392077.248 6  -8979982.958 3
  21818472.776   -17670367.710 8 -14824985.838 6
  21026659.227   -20716929.037 8 -16863997.785 9
  25177484.450    -1166951.339 5  -1041262.613 2
 94  1 22 21 13  0.0010000  0  6 22 14 19 18 29  4
  22224502.807    -1741515.929 7  -7215450.098 5
  21584804.611     1638905.146 7 -15102005.793 6
  22952489.552   -12463011.616 6  -9035256.421 3
  21805949.875   -17736173.226 8 -14876262.851 6
  21023980.071   -20731007.258 8 -16874967.828 9
  25180965.370    -1148625.160 4  -1026982.441 2
 94  1 22 21 13 30.0010000  0  6 22 14 19 18 29  4
  22234173.422    -1690712.438 7  -7175862.954 5
  21597983.367     1708147.329 8 -15048050.878 6
  22939029.410   -12533743.290 6  -9090371.916 3
  21793449.159   -17801833.628 8 -14927426.768 6
  21021349.063   -20744844.091 8 -16885749.762 9
  25184527.984    -1129912.653 5  -1012401.237 1
 94  1 22 21 14  0.0010000  0  6 22 14 19 18 29  4
  22243933.765    -1639430.978 7  -7135903.384 5
  21611243.427     1777825.698 8 -14993756.089 6
  22925603.235   -12604264.735 6  -9145323.653 3
  21780995.361   -17867323.729 8 -14978457.986 6
  21018762.424   -20758421.967 8 -16896329.919 9
  25188163.148    -1110800.030 5   -997508.399 1
 94  1 22 21 14 30.0010000  0  6 22 14 19 18 29  4
  22253779.729    -1587672.448 7  -7095572.086 5
  21624583.802     1847944.218 7 -14939118.314 6
  22912226.646   -12674560.586 6  -9200099.613 3
  21768563.267   -17932643.817 8 -15029356.723 6
  21016227.648   -20771736.341 8 -16906704.752 9
  25191845.618    -1091275.939 3   -982294.797 1
 94  1 22 21 15  0.0010000  0  5 22 14 19 18 29
  22263718.958    -1535444.847 7  -7054875.275 5
  21638008.568     1918482.780 8 -14884153.236 6
  22898894.006   -12744624.644 6  -9254694.909 3
  21756169.457   -17997785.182 8 -15080116.208 6
  21013745.247   -20784790.326 8 -16916876.685 9
 94  1 22 21 15 30.0010000  0  5 22 14 19 18 29
  22273751.273    -1482744.558 7  -7013810.120 6
  21651506.904     1989430.583 7 -14828869.282 6
  22885608.253   -12814451.000 6  -9309104.988 3
  21743802.509   -18062750.869 8 -15130738.784 6
  21011311.202   -20797583.885 8 -16926845.696 9
 94  1 22 21 16  0.0010000  0  5 22 14 19 18 29
  22283867.380    -1429570.448 7  -6972375.750 6
  21665089.720     2060789.066 8 -14773265.289 6
  22872363.992   -12884045.364 7  -9363334.304 3
  21731475.642   -18127557.095 8 -15181237.113 6
  21008928.451   -20810120.603 8 -16936614.557 9
 94  1 22 21 16 30.0010000  0  5 22 14 19 18 29
  22294075.043    -1375912.845 7  -6930564.651 5
  21678746.796     2132544.007 8 -14717352.409 6
  22859163.830   -12953416.140 7  -9417389.430 3
  21719166.974   -18192217.977 8 -15231622.182 6
  21006589.291   -20822399.190 8 -16946182.268 9
 94  1 22 21 17  0.0010000  0  5 22 14 19 18 29
  22304382.507    -1321767.353 7  -6888373.387 5
  21692479.479     2204712.081 8 -14661117.574 6
  22846002.342   -13022577.579 7  -9471281.375 3
  21706889.543   -18256733.878 8 -15281894.295 6
  21004302.924   -20834413.212 8 -16955543.846 9
 94  1 22 21 17 30.0010000  0  5 22 14 19 18 29
  22314776.702    -1267133.597 7  -6845801.634 5
  21706291.967     2277313.353 7 -14604545.192 6
  22832883.454   -13091538.016 7  -9525016.745 3
  21694642.272   -18321115.042 8 -15332061.421 6
  21002064.463   -20846166.000 8 -16964701.852 9
 94  1 22 21 18  0.0010000  0  5 22 14 19 18 29
  22325260.684    -1212028.040 7  -6802862.258 5
  21720190.525     2350339.347 7 -14547641.854 6
  22819801.710   -13160308.504 7  -9578604.097 3
  21682416.975   -18385348.665 8 -15382113.558 6
  20999877.837   -20857662.526 8 -16973660.184 9
 94  1 22 21 18 30.0010000  0  6 22 14 19 18 29 28
  22335838.171    -1156455.564 7  -6759559.045 5
  21734165.171     2423798.179 7 -14490401.244 6
  22806747.937   -13228881.826 7  -9632037.794 3
  21670223.576   -18449418.352 8 -15432037.949 6
  20997743.285   -20868888.937 8 -16982408.024 9
  25255267.762    -4747987.47115  -2189369.828
 94  1 22 21 19  0.0010000  0  6 22 14 19 18 29 28
  22346496.662    -1100429.353 7  -6715902.272 5
  21748227.385     2497690.062 7 -14432823.197 6
  22793732.597   -13297249.114 6  -9685310.925 3
  21658066.932   -18513311.451 8 -15481824.756 6
  20995657.029   -20879844.974 8 -16990945.201 9
  25241147.747    -4822243.384 5  -2247231.502
 94  1 22 21 19 30.0010000  0  6 22 14 19 18 29 28
  22357249.109    -1043952.721 7  -6671894.526 5
  21762364.399     2571970.961 7 -14374942.012 6
  22780774.848   -13365399.064 7  -9738414.736 3
  21645945.244   -18577009.346 8 -15531459.465 6
  20993622.907   -20890536.455 8 -16999276.216 9
  25227015.740    -4896460.465 4  -2305062.883 1
 94  1 22 21 20  0.0010000  0  6 22 14 19 18 29 28
  22368078.511     -987017.655 7  -6627529.556 5
  21776572.762     2646621.763 7 -14316772.601 6
  22767842.431   -13433317.827 6  -9791338.414 3
  21633862.079   -18640502.611 8 -15580934.704 6
  20991640.979   -20900962.431 8 -17007400.345 9
  25212893.597    -4970620.639 3  -2362849.958 1
 94  1 22 21 20 30.0010000  0  7 22 14 19 18 27 29 28
  22379002.649     -929619.701 7  -6582803.916 5
  21790845.821     2721659.915 7 -14258301.336 6
  22754965.265   -13501008.250 7  -9844084.157 3
  21621819.236   -18703797.120 8 -15630255.090 6
  25316222.674      516312.84715   -110833.236
  20989706.179   -20911122.512 8 -17015317.293 9
  25198807.608    -5044706.268 3  -2420579.013 1
 94  1 22 21 21  0.0010000  0  7 22 14 19 18 27 29 28
  22390013.276     -871769.640 7  -6537725.978 5
  21805200.454     2797077.780 7 -14199534.214 6
  22742124.345   -13568469.290 7  -9896651.138 3
  21609812.758   -18766889.069 8 -15679417.632 6
  25299148.234      426603.209 5   -180736.631 1
  20987822.253   -20921022.217 8 -17023031.350 9
  25184722.639    -5118696.850 3  -2478234.004 1
 94  1 22 21 21 30.0010000  0  7 22 14 19 18 27 29 28
  22401110.724     -813458.736 7  -6492288.921 5
  21819626.737     2872883.295 7 -14140465.031 6
  22729335.349   -13635700.515 7  -9949039.011 3
  21597846.392   -18829776.713 8 -15728420.952 6
  25282089.624      336985.524 4   -250568.510 1
  20985988.363   -20930656.146 8 -17030538.305 9
  25170666.420    -5192551.178 3  -2535782.632 1
 94  1 22 21 22  0.0010000  0  7 22 14 19 18 27 29 28
  22412289.655     -754696.451 7  -6446500.155 5
  21834133.184     2949107.564 7 -14081069.531 6
  22716579.869   -13702712.031 7 -10001255.780 3
  21585913.903   -18892464.760 8 -15777268.775 6
  25265037.788      247467.951 4   -320322.300 2
  20984208.195   -20940013.880 8 -17037830.044 9
  25156649.444    -5266249.602 4  -2593209.923 1
 94  1 22 21 22 30.0010000  0  7 22 14 19 18 27 29 28
  22423558.673     -695478.445 7  -6400356.278 5
  21848717.817     3025763.792 7 -14021337.438 6
  22703870.138   -13769495.044 7 -10053294.467 3
  21574030.639   -18954928.398 9 -15825941.731 6
  25248023.547      158055.376 3   -389994.296 2
  20982482.320   -20949074.170 8 -17044890.023 9
  25142651.535    -5339786.560 3  -2650511.289 1
 94  1 22 21 23  0.0010000  0  7 22 14 19 18 27 29 28
  22434917.900     -635810.130 7  -6353861.525 5
  21863379.018     3102827.031 7 -13961288.197 6
  22691209.572   -13836046.268 7 -10105152.473 4
  21562183.831   -19017171.674 8 -15874442.977 6
  25231048.129       68746.811 4   -459585.188 2
  20980815.444   -20957830.762 8 -17051713.337 9
  25128701.622    -5413163.998 3  -2707688.428 1
 94  1 22 21 23 30.0010000  0  7 22 14 19 18 27 29 28
  22446352.553     -575690.292 7  -6307014.915 5
  21878126.288     3180293.053 7 -13900925.092 5
  22678584.742   -13902375.330 7 -10156837.398 4
  21550380.672   -19079196.854 8 -15922774.262 6
  25214048.038      -20455.186 4   -529093.189 2
  20979208.916   -20966278.120 8 -17058295.681 9
  25114762.292    -5486394.815 3  -2764751.174 1
 94  1 22 21 24  0.0010000  0  7 22 14 19 18 27 29 28
  22457883.801     -515106.764 7  -6259806.986 5
  21892942.931     3258166.510 7 -13840244.519 5
  22666008.719   -13968466.783 7 -10208337.200 4
  21538622.332   -19140982.578 8 -15970918.966 6
  25197120.646     -109524.606 4   -598497.959 2
  20977661.777   -20974401.806 8 -17064625.842 9
  25100850.843    -5559490.391 4  -2821708.627 1
 94  1 22 21 24 30.0010000  0  7 22 14 19 18 27 29 28
  22469499.649     -454056.509 7  -6212235.384 5
  21907836.590     3336432.786 7 -13779257.832 5
  22653477.064   -14034317.625 7 -10259649.513 4
  21526910.100   -19202536.581 8 -16018883.106 6
  25180191.936     -198471.527 5   -667807.156 2
  20976178.914   -20982205.552 8 -17070706.686 9
  25086950.576    -5632455.725 3  -2878564.544 1
 94  1 22 21 25  0.0010000  0  7 22 14 19 18 27 29 28
  22481205.585     -392554.756 7  -6164311.978 5
  21922804.238     3415080.788 7 -13717973.694 5
  22640990.349   -14099937.960 7 -10310782.168 4
  21515237.711   -19263891.372 8 -16066692.011 6
  25163285.830     -287307.062 5   -737029.494 2
  20974751.572   -20989702.252 8 -17076548.261 9
  25073091.140    -5705304.625 4  -2935329.788 1
 94  1 22 21 25 30.0010000  0  7 22 14 19 18 27 29 28
  22492992.975     -330607.621 7  -6116041.519 5
  21937841.378     3494106.715 7 -13656395.093 5
  22628543.265   -14165332.145 7 -10361738.615 4
  21503599.138   -19325056.779 8 -16114353.327 6
  25146404.097     -376051.884 5   -806181.233 2
  20973379.062   -20996916.851 8 -17082170.034 9
  25059259.616    -5778052.875 4  -2992016.643 1
 94  1 22 21 26  0.0010000  0  7 22 14 19 18 27 29 28
  22504862.688     -268228.289 7  -6067434.251 5
  21952948.730     3573496.057 7 -13594533.282 5
  22616149.216   -14230499.002 7 -10412517.940 4
  21491988.236   -19386063.273 8 -16161890.830 6
  25129531.537     -464719.607 5   -875272.814 2
  20972057.457   -21003865.196 8 -17087584.321 9
  25045428.780    -5850699.997 5  -3048624.647 1
 94  1 22 21 26 30.0010000  0  7 22 14 19 18 27 29 28
  22516812.325     -205430.716 7  -6018501.109 5
  21968121.166     3653247.158 7 -13532389.610 5
  22603789.762   -14295444.940 7 -10463125.125 4
  21480404.525   -19446924.668 8 -16209315.284 6
  25112664.614     -553325.654 5   -944316.520 2
  20970784.118   -21010549.044 8 -17092792.519 9
  25031630.053    -5923233.967 5  -3105144.488 1
 94  1 22 21 27  0.0010000  0  7 22 14 19 18 27 29 28
  22528845.095     -142218.571 7  -5969244.902 5
  21983371.159     3733356.779 7 -13469966.543 5
  22591464.545   -14360170.075 7 -10513560.227 4
  21468848.545   -19507635.923 8 -16256622.732 6
  25095819.246     -641857.955 4  -1013302.632 2
  20969565.552   -21016960.686 8 -17097788.591 9
  25017851.442    -5995649.602 5  -3161572.164 1
 94  1 22 21 27 30.0010000  0  7 22 14 19 18 27 29 28
  22540950.535      -78583.884 7  -5919659.445 4
  21998678.862     3813815.476 7 -13407271.483 5
  22579196.408   -14424673.922 7 -10563822.893 4
  21457331.029   -19568174.883 8 -16303795.927 6
  25078982.332     -730299.761 5  -1082218.233 2
  20968397.950   -21023094.248 8 -17102567.989 9
  25004085.782    -6067930.635 4  -3217894.829 1
 94  1 22 21 28  0.0010000  0  7 22 14 19 18 27 29 28
  22553141.505      -14522.990 7  -5869741.885 5
  22014055.876     3894627.726 7 -13344300.922 5
  22566959.149   -14488955.347 7 -10613912.281 4
  21445848.228   -19628517.416 8 -16350816.075 6
  25062172.339     -818635.542 5  -1151051.161 2
  20967287.159   -21028923.846 8 -17107110.547 9
  24990380.020    -6140046.441 5  -3274088.829 1
 94  1 22 21 28 30.0010000  0  7 22 14 19 18 27 29 28
  22565410.391       49959.179 7  -5819496.077 5
  22029506.940     3975790.340 7 -13281057.352 5
  22554771.507   -14553019.127 7 -10663832.077 4
  21434404.640   -19688642.451 8 -16397666.722 6
  25045384.771     -906876.503 5  -1219809.990 1
  20966235.907   -21034452.959 8 -17111418.917 9
  24976669.761    -6212003.785 5  -3330159.365 1
 94  1 22 21 29  0.0010000  0  7 22 14 19 18 27 29 28
  22577764.899      114858.972 7  -5768924.845 5
  22045009.807     4057298.604 7 -13217544.466 5
  22542620.049   -14616870.986 7 -10713586.716 4
  21423011.478   -19748546.488 8 -16444345.181 7
  25028618.038     -995023.559 4  -1288495.940 1
  20965240.986   -21039691.503 8 -17115500.906 9
  24963008.279    -6283811.037 5  -3386112.937 1
 94  1 22 21 29 30.0010000  0  7 22 14 19 18 27 29 28
  22590187.728      180178.364 7  -5718026.644 5
  22060590.591     4139171.902 7 -13153747.103 5
  22530514.759   -14680503.717 7 -10763170.637 4
  21411653.271   -19808218.023 8 -16490842.458 7
  25011850.796    -1083079.070 4  -1357110.526 1
  20964296.609   -21044640.190 8 -17119357.028 9
  24949374.288    -6355454.666 5  -3441939.096 1
 94  1 22 21 30  0.0010000  0  7 22 14 19 18 27 29 28
  22602706.132      245933.360 7  -5666788.990 5
  22076251.929     4221452.078 7 -13089632.722 5
  22518448.323   -14743891.723 7 -10812563.855 4
  21400343.181   -19867635.360 8 -16537141.676 7
  24995120.908    -1171030.543 3  -1425644.225 1
  20963416.149   -21049273.108 8 -17122967.085 9
  24935781.458    -6426903.849 5  -3497613.646 1
 94  1 22 21 30 30.0010000  0  7 22 14 19 18 27 29 28
  22615304.550      312139.063 7  -5615200.164 4
  22091982.399     4304151.402 7 -13025191.718 5
  22506432.701   -14807022.812 7 -10861756.878 4
  21389088.762   -19926798.091 9 -16583242.489 7
  24978420.190    -1258863.158 4  -1494085.075 1
  20962596.187   -21053589.574 8 -17126330.565 9
  24922221.455    -6498161.974 5  -3553139.331 1
 94  1 22 21 31  0.0010000  0  7 22 14 19 18 27 29 28
  22627986.101      378791.826 7  -5563262.958 5
  22107806.014     4387246.418 7 -12960442.404 5
  22494466.035   -14869923.872 7 -10910770.631 4
  21377874.545   -19985717.508 8 -16629153.690 7
  24961703.073    -1346579.245 4  -1562435.172 2
  20961833.784   -21057596.049 8 -17129452.499 9
  24908698.297    -6569232.178 5  -3608518.571 1
 94  1 22 21 31 30.0010000  0  7 22 14 19 18 27 29 28
  22640750.814      445885.727 7  -5510982.057 5
  22123687.790     4470722.179 7 -12895396.394 5
  22482542.390   -14932588.539 7 -10959600.216 4
  21366709.465   -20044389.344 9 -16674872.011 7
  24945044.385    -1434177.708 5  -1630693.594 2
  20961126.094   -21061290.512 8 -17132331.295 9
  24895202.570    -6640105.136 5  -3663744.138 1
 94  1 22 21 32  0.0010000  0  7 22 14 19 18 27 29 28
  22653607.204      513422.354 7  -5458356.109 5
  22139643.014     4554565.206 7 -12830064.199 5
  22470663.174   -14995013.488 7 -11008243.011 4
  21355595.079   -20102806.497 8 -16720391.863 7
  24928402.936    -1521653.996 5  -1698856.784 1
  20960488.016   -21064664.851 8 -17134960.665 9
  24881759.187    -6710780.662 4  -3718815.894 1
 94  1 22 21 32 30.0010000  0  7 22 14 19 18 27 29 28
  22666544.058      581402.137 7  -5405384.872 4
  22155660.865     4638773.265 7 -12764447.593 5
  22458828.147   -15057200.329 7 -11056700.227 4
  21344530.129   -20160962.174 8 -16765707.956 7
  24911776.686    -1608995.640 5  -1766914.746 1
  20959909.806   -21067710.304 8 -17137333.742 9
  24868343.054    -6781260.656 4  -3773735.267 1
 94  1 22 21 33  0.0010000  0  7 22 14 19 18 27 29 28
  22679560.807      649812.045 7  -5352078.481 4
  22171756.692     4723344.644 7 -12698547.872 5
  22447037.459   -15119139.900 7 -11104964.771 4
  21333513.266   -20218848.209 8 -16810813.938 7
  24895190.428    -1696199.883 4  -1834866.053 1
  20959395.752   -21070408.672 8 -17139436.367 9
  24854979.656    -6851536.089 4  -3828495.374 1
 94  1 22 21 33 30.0010000  0  7 22 14 19 18 27 29 28
  22692655.651      718638.671 7  -5298447.355 4
  22187926.028     4808286.969 7 -12632359.087 5
  22435307.570   -15180812.957 7 -11153021.684 4
  21322546.019   -20276468.117 8 -16855712.566 7
  24878611.066    -1783266.150 4  -1902709.739 1
  20958947.383   -21072760.995 8 -17141269.347 9
  24841649.834    -6921613.201 5  -3883100.889 1
 94  1 22 21 34  0.0010000  0  7 22 14 19 18 27 29 28
  22705837.676      787887.135 7  -5244487.562 4
  22204156.013     4893612.181 7 -12565871.978 5
  22423620.580   -15242227.501 7 -11200877.115 4
  21311630.485   -20333835.861 8 -16900414.681 7
  24862071.516    -1870191.534 4  -1970443.632 2
  20958567.486   -21074757.789 8 -17142825.305 9
  24828345.254    -6991497.181 4  -3937555.831 1
 94  1 22 21 34 30.0010000  0  7 22 14 19 18 27 29 28
  22719091.320      857550.782 7  -5190204.218 4
  22220465.202     4979314.679 7 -12499090.873 5
  22411980.749   -15303384.917 7 -11248532.204 4
  21300758.812   -20390963.152 8 -16944929.442 7
  24845561.466    -1956969.364 5  -2038062.580 2
  20958253.633   -21076403.697 8 -17144107.837 9
  24815072.903    -7061195.235 3  -3991865.939 1
 94  1 22 21 35  0.0010000  0  7 22 14 19 18 27 29 28
  22732425.879      927622.375 7  -5135603.012 4
  22236842.954     5065366.247 7 -12432037.753 5
  22400392.391   -15364280.982 7 -11295983.637 4
  21289933.875   -20447863.146 8 -16989267.102 7
  24829076.538    -2043604.688 5  -2105570.460 2
  20958005.555   -21077705.886 8 -17145122.536 9
  24801840.723    -7130714.224 4  -4046036.605 1
 94  1 22 21 35 30.0010000  0  7 22 14 19 18 27 29 28
  22745840.782      998109.012 7  -5080678.384 4
  22253288.159     5151769.001 7 -12364711.000 5
  22388856.018   -15424917.224 7 -11343232.635 4
  21279147.912   -20504537.210 8 -17033428.697 7
  24812606.480    -2130103.561 5  -2172971.999 2
  20957824.270   -21078666.139 8 -17145870.812 9
  24788663.286    -7200034.786 4  -4100052.578 1
 94  1 22 21 36  0.0010000  0  7 22 14 19 18 27 29 28
  22759333.421     1069020.426 7  -5025422.780 4
  22269798.180     5238535.611 7 -12297100.712 5
  22377366.232   -15485286.682 7 -11390273.725 4
  21268411.805   -20560963.411 8 -17077397.153 7
  24796180.581    -2216463.825 5  -2240265.563 2
  20957708.430   -21079263.384 8 -17146336.201 9
  24775514.718    -7269127.652 4  -4153891.164 1
 94  1 22 21 36 30.0010000  0  7 22 14 19 18 27 29 28
  22772907.035     1140356.448 7  -4969836.333 4
  22286370.317     5325653.047 7 -12229217.056 5
  22365929.839   -15545371.120 7 -11437092.714 4
  21257726.752   -20617115.516 8 -17121152.023 7
  24779784.032    -2302682.936 4  -2307449.224 1
  20957662.712   -21079489.796 8 -17146512.637 9
  24762414.477    -7337983.544 4  -4207545.024 1
 94  1 22 21 37  0.0010000  0  7 22 14 19 18 27 29 28
  22786563.271     1212105.800 7  -4913927.790 4
  22303011.946     5413107.234 7 -12161070.990 5
  22354553.585   -15605179.792 7 -11483696.865 4
  21247093.413   -20672987.032 8 -17164688.257 7
  24763372.044    -2388791.210 3  -2374546.492 1
  20957692.032   -21079351.415 8 -17146404.812 9
  24749348.353    -7406590.415 4  -4261005.003 1
 94  1 22 21 37 30.0010000  0  7 22 14 19 18 27 29 28
  22800294.784     1284254.913 7  -4857707.751 4
  22319722.048     5500903.634 7 -12092658.284 5
  22343217.113   -15664734.520 7 -11530103.126 4
  21236513.737   -20728573.238 8 -17208002.165 7
  24747034.435    -2474804.479 4  -2441569.671 1
  20957783.289   -21078866.809 8 -17146027.214 9
  24736318.143    -7474950.579 3  -4314272.644 1
 94  1 22 21 38  0.0010000  0  7 22 14 19 18 27 29 28
  22814096.630     1356795.242 7  -4801182.872 4
  22336490.879     5589024.629 7 -12023992.619 5
  22331936.192   -15724044.170 7 -11576318.389 4
  21225989.283   -20783868.704 8 -17251089.514 7
  24730674.610    -2560704.874 4  -2508504.945 2
  20957939.990   -21078046.754 8 -17145388.221 9
  24723376.283    -7543087.465 4  -4367366.326 1
 94  1 22 21 38 30.0010000  0  7 22 14 19 18 27 29 28
  22827974.382     1429715.099 7  -4744362.266 4
  22353322.277     5677453.017 7 -11955087.433 5
  22320689.898   -15783130.344 7 -11622359.526 4
  21215522.869   -20838890.141 8 -17293963.353 7
  24714338.050    -2646493.322 5  -2575352.956 2
  20958157.190   -21076910.137 8 -17144502.571 9
  24710452.260    -7611005.461 5  -4420289.470 1
 94  1 22 21 39  0.0010000  0  7 22 14 19 18 27 29 28
  22841916.650     1503005.194 7  -4687253.144 4
  22370202.421     5766194.680 7 -11885938.139 5
  22309481.707   -15842015.188 7 -11668243.810 4
  21205100.644   -20893649.996 8 -17336633.351 7
  24698053.593    -2732175.881 5  -2642118.476 2
  20958427.513   -21075480.865 8 -17143388.858 9
  24697572.157    -7678701.064 5  -4473039.173 1
 94  1 22 21 39 30.0010000  0  7 22 14 19 18 27 29 28
  22855938.513     1576669.928 7  -4629852.106 4
  22387155.055     5855253.812 7 -11816541.453 5
  22298314.858   -15900690.434 7 -11713964.736 4
  21194734.241   -20948152.325 8 -17379102.672 7
  24681764.340    -2817730.193 4  -2708784.058 2
  20958755.665   -21073752.863 8 -17142042.388 9
  24684721.133    -7746174.007 4  -4525615.474 1
 94  1 22 21 40  0.0010000  0  7 22 14 19 18 27 29 28
  22870026.000     1650712.180 7  -4572156.866 4
  22404160.422     5944617.407 7 -11746907.539 5
  22287191.778   -15959161.323 7 -11759526.417 5
  21184403.483   -21002407.418 8 -17421379.356 7
  24665519.486    -2903159.612 4  -2775352.312 2
  20959147.044   -21071719.301 8 -17140457.819 9
  24671923.113    -7813420.670 4  -4578015.478 1
 94  1 22 21 40 30.0010000  0  7 22 14 19 18 27 29 28
  22884187.267     1725137.372 7  -4514163.257 4
  22421219.303     6034284.753 6 -11677036.921 5
  22276101.406   -16017430.696 7 -11804931.109 5
  21174127.527   -21056418.877 8 -17463466.194 7
  24649267.347    -2988485.720 5  -2841840.127 1
  20959590.767   -21069381.677 8 -17138636.296 9
  24659175.998    -7880426.117 5  -4630227.427 1
 94  1 22 21 41  0.0010000  0  7 22 14 19 18 27 29 28
  22898426.119     1799950.686 7  -4455867.208 4
  22438346.386     6124257.501 7 -11606928.334 5
  22265059.780   -16075477.865 7 -11850162.635 5
  21163899.267   -21110178.374 8 -17505356.682 7
  24633039.312    -3073698.256 4  -2908239.442 1
  20960096.127   -21066728.181 8 -17136568.650 9
  24646471.603    -7947191.545 5  -4682252.427 1
 94  1 22 21 41 30.0010000  0  7 22 14 19 18 27 29 28
  22912733.864     1875147.900 7  -4397272.030 4
  22455518.918     6214523.094 7 -11536591.548 5
  22254049.272   -16133304.739 7 -11895222.474 5
  21153716.157   -21163682.216 8 -17547047.977 7
  24616862.121    -3158797.519 5  -2974550.385 2
  20960659.917   -21063746.090 8 -17134244.977 9
  24633828.126    -8013725.139 5  -4734096.803 1
 94  1 22 21 42  0.0010000  0  8 22 14 19 18 27 31 29 28
  22927115.838     1950704.264 7  -4338397.003 4
  22472749.279     6305064.820 7 -11466039.582 5
  22243084.093   -16190932.213 7 -11940126.953 5
  21143580.564   -21216937.888 8 -17588545.883 7
  24600691.586    -3243801.086 4  -3040786.804 2
  24982631.104      -45836.44415   -348170.443
  20961288.192   -21060449.190 8 -17131675.957 9
  24621200.897    -8080034.196 5  -4785766.141 1
 94  1 22 21 42 30.0010000  0  8 22 14 19 18 27 31 29 28
  22941553.423     2026602.525 7  -4279255.549 4
  22490036.931     6395888.646 7 -11395267.784 5
  22232154.050   -16248345.815 7 -11984864.785 5
  21133495.186   -21269946.144 9 -17629851.015 7
  24584533.132    -3328709.206 5  -3106948.798 2
  24965589.732     -135365.324 5   -417938.297
  20961976.965   -21056824.014 8 -17128851.166 9
  24608624.454    -8146114.647 5  -4837257.280 1
 94  1 22 21 43  0.0010000  0  8 22 14 19 18 27 31 29 28
  22956062.838     2102844.897 6  -4219845.953 4
  22507374.169     6487014.867 7 -11324260.388 5
  22221283.605   -16305513.482 7 -12029411.008 5
  21123460.832   -21322687.087 9 -17670947.843 7
  24568387.419    -3413498.357 5  -3173018.079 2
  24948544.942     -224934.304 5   -487731.338
  20962737.299   -21052836.019 8 -17125743.646 9
  24596095.018    -8211957.897 4  -4888563.722 1
 94  1 22 21 43 30.0010000  0  8 22 14 19 18 27 31 29 28
  22970640.247     2179444.930 6  -4160157.676 4
  22524779.699     6578463.319 7 -11253001.896 5
  22210452.554   -16362426.207 7 -12073758.524 5
  21113477.534   -21375142.930 9 -17711822.506 7
  24552280.290    -3498152.903 5  -3238982.451 1
  24931505.068     -314528.980 5   -557545.180
  20963574.739   -21048459.767 8 -17122333.581 9
  24583608.422    -8277543.355 4  -4939669.255 1
 94  1 22 21 44  0.0010000  0  8 22 14 19 18 27 31 29 28
  22985287.626     2256421.218 6  -4100176.196 4
  22542246.028     6670259.681 7 -11181472.300 5
  22199677.923   -16419058.608 7 -12117887.630 5
  21103550.896   -21427308.378 9 -17752470.910 7
  24536201.851    -3582661.572 5  -3304833.296 1
  24914455.781     -404135.818 5   -627368.562
  20964480.202   -21043681.556 8 -17118610.312 9
  24571186.132    -8342845.860 5  -4990554.382 1
 94  1 22 21 44 30.0010000  0  8 22 14 19 18 27 31 29 28
  23000014.092     2333786.025 6  -4039891.991 4
  22559778.221     6762415.092 7 -11109662.935 5
  22188952.908   -16475398.172 7 -12161788.591 5
  21093680.589   -21479171.921 9 -17792884.038 8
  24520141.909    -3667018.189 5  -3370565.687 1
  24897389.886     -493754.604 5   -697201.351 1
  20965467.689   -21038499.444 8 -17114572.313 9
  24558823.530    -8407873.394 5  -5041225.054 1
 94  1 22 21 45  0.0010000  0  8 22 14 19 18 27 31 29 28
  23014808.729     2411548.393 6  -3979298.007 4
  22577379.156     6854921.400 6 -11037580.103 4
  22178287.521   -16531446.364 8 -12205462.451 5
  21083872.998   -21530715.589 9 -17833047.921 8
  24504117.522    -3751213.066 5  -3436171.999 1
  24880343.597     -583371.657 5   -767032.595 1
  20966527.755   -21032928.808 8 -17110231.549 9
  24546486.231    -8472621.732 4  -5091678.256 1
 94  1 22 21 45 30.0010000  0  8 22 14 19 18 27 31 29 28
  23029683.262     2489710.081 6  -3918392.821 4
  22595053.870     6947779.758 6 -10965222.977 4
  22167677.506   -16587212.563 7 -12248916.591 5
  21074128.844   -21581931.910 9 -17872956.739 8
  24488134.987    -3835249.078 5  -3501654.453 1
  24863291.521     -672972.885 5   -836851.471 1
  20967655.454   -21026984.141 8 -17105599.353 9
  24534224.420    -8537076.161 4  -5141902.510 1
 94  1 22 21 46  0.0010000  0  8 22 14 19 18 27 31 29 28
  23044631.004     2568269.492 7  -3857177.789 4
  22612792.230     7040984.419 6 -10892596.018 4
  22157116.627   -16642687.507 7 -12292143.786 5
  21064446.027   -21632809.497 9 -17912601.591 8
  24472175.086    -3919124.010 6  -3567011.376 2
  24846247.511     -762543.430 5   -906646.497 1
  20968858.881   -21020673.611 8 -17100682.060 9
  24522020.199    -8601229.836 5  -5191892.355 1
 94  1 22 21 46 30.0010000  0  8 22 14 19 18 27 31 29 28
  23059654.713     2647212.819 7  -3795663.507 4
  22630589.979     7134518.885 6 -10819712.076 5
  22146618.885   -16697873.927 7 -12335146.179 5
  21054832.643   -21683331.633 9 -17951969.485 8
  24456242.885    -4002824.700 6  -3632232.549 2
  24829215.042     -852077.454 5   -976413.008 1
  20970132.040   -21013993.911 8 -17095477.105 9
  24509868.621    -8665077.635 4  -5241643.815 1
 94  1 22 21 47  0.0010000  0  8 22 14 19 18 27 31 29 28
  23074749.623     2726531.837 7  -3733856.493 4
  22648448.885     7228375.110 6 -10746577.420 5
  22136169.319   -16752782.741 7 -12377932.220 5
  21045281.825   -21733502.567 9 -17991063.700 8
  24440340.574    -4086353.564 5  -3697319.906 2
  24812171.271     -941566.868 5  -1046144.885 1
  20971472.082   -21006947.177 8 -17089986.147 9
  24497776.312    -8728599.862 4  -5291141.617 1
 94  1 22 21 47 30.0010000  0  7 22 14 19 18 27 29 28
  23089913.426     2806226.930 6  -3671756.504 4
  22666368.110     7322553.384 6 -10673191.789 4
  22125770.748   -16807423.946 7 -12420509.750 5
  21035799.539   -21783322.983 9 -18029884.799 8
  24424485.451    -4169714.948 5  -3762276.817 1
  20972879.308   -20999527.087 8 -17084204.262 9
  24485759.731    -8791791.125 5  -5340381.497 1
 94  1 22 21 48  0.0010000  0  8 22 14 19 18 27 31 29 28
  23105149.388     2886298.827 6  -3609362.856 4
  22684353.289     7417048.224 6 -10599559.490 4
  22115425.689   -16861795.225 7 -12462876.971 5
  21026387.645   -21832795.398 8 -18068434.728 8
  24408653.141    -4252904.781 5  -3827099.953 1
  24778153.701     1321883.85015    -70569.490
  20974363.340   -20991725.067 8 -17078124.785 9
  24473784.701    -8854651.771 4  -5389363.774 1
 94  1 22 21 48 30.0010000  0  8 22 14 19 18 27 31 29 28
  23120461.797     2966761.666 6  -3546664.576 4
  22702396.628     7511857.820 7 -10525681.943 4
  22105125.240   -16915895.381 7 -12505032.895 5
  21017042.035   -21881914.802 8 -18106709.561 8
  24392851.620    -4335927.870 6  -3891793.141 2
  24761140.119     1232542.363 4   -140184.497
  20975925.979   -20983519.880 8 -17071731.126 9
  24461893.703    -8917165.852 5  -5438076.027 1
 94  1 22 21 49  0.0010000  0  8 22 14 19 18 27 31 29 28
  23135849.065     3047625.979 6  -3483653.504 4
  22720500.465     7606988.448 6 -10451554.229 4
  22094881.991   -16969731.428 7 -12546983.035 5
  21007758.122   -21930696.688 9 -18144721.409 8
  24377086.284    -4418798.326 5  -3956367.406 2
  24744158.256     1143268.058 4   -209748.537
  20977567.252   -20974907.418 8 -17065020.130 9
  24450065.242    -8979336.545 5  -5486520.694 1
 94  1 22 21 49 30.0010000  0  8 22 14 19 18 27 31 29 28
  23151314.129     3128896.555 6  -3420325.833 4
  22738657.455     7702428.919 6 -10377185.107 4
  22084691.296   -17023300.630 7 -12588725.240 5
  20998537.375   -21979147.606 9 -18182475.381 8
  24361345.142    -4501514.885 5  -4020821.794 2
  24727186.975     1054059.683 4   -279261.651
  20979288.181   -20965870.963 8 -17057978.749 9
  24438292.842    -9041170.614 5  -5534703.047 1
 94  1 22 21 50  0.0010000  0  8 22 14 19 18 27 31 29 28
  23166855.789     3210569.629 7  -3356684.527 4
  22756881.449     7798177.670 7 -10302575.750 4
  22074552.495   -17076592.685 8 -12630251.511 5
  20989381.414   -22027270.709 9 -18219973.905 8
  24345635.597    -4584058.593 5  -4085141.543 2
  24710212.036      964918.929 4   -348721.840 1
  20981089.904   -20956401.661 8 -17050600.068 8
  24426591.133    -9102659.027 4  -5582616.025 1
 94  1 22 21 50 30.0010000  0  8 22 14 19 18 27 31 29 28
  23182475.276     3292632.995 7  -3292739.077 4
  22775154.159     7894227.707 7 -10227731.609 4
  22064459.293   -17129617.244 8 -12671569.292 5
  20980285.710   -22075068.786 8 -18257219.153 8
  24329971.771    -4666424.895 5  -4149323.022 2
  24693265.578      875854.621 4   -418122.583
  20982976.258   -20946494.240 8 -17042880.016 8
  24414955.378    -9163803.118 4  -5630260.745 1
 94  1 22 21 51  0.0010000  0  8 22 14 19 18 27 31 29 28
  23198159.159     3375052.373 6  -3228516.236 4
  22793489.975     7990561.026 6 -10152666.766 4
  22054416.335   -17182388.528 7 -12712689.754 5
  20971247.777   -22122555.920 9 -18294222.113 8
  24314311.722    -4748614.843 5  -4213367.021 2
  24676337.887      786855.831 4   -487472.258 1
  20984934.982   -20936182.192 8 -17034844.637 9
  24403386.507    -9224620.961 4  -5677651.171 1
 94  1 22 21 51 30.0010000  0  8 22 14 19 18 27 31 29 28
  23213903.569     3457792.850 6  -3164043.216 4
  22811867.823     8087142.729 6 -10077408.360 4
  22044422.544   -17234911.102 8 -12753616.431 5
  20962273.070   -22169725.562 9 -18330977.678 8
  24298715.229    -4830637.369 5  -4277280.521 2
  24659408.157      697891.522 3   -556794.925 1
  20986972.521   -20925491.104 8 -17026513.937 8
  24391872.768    -9285115.400 4  -5724789.642 1
 94  1 22 21 52  0.0010000  0  8 22 14 19 18 27 31 29 28
  23229704.130     3540830.184 6  -3099338.864 4
  22830296.185     8183968.863 6 -10001959.519 4
  22034475.550   -17287186.477 7 -12794350.454 5
  20953355.684   -22216573.856 9 -18367482.846 8
  24283133.966    -4912518.933 5  -4341084.241 2
  24642478.847      608955.598 4   -626095.696 1
  20989073.197   -20914439.955 8 -17017902.669 8
  24380426.002    -9345296.455 5  -5771683.941 1
 94  1 22 21 52 30.0010000  0  8 22 14 19 18 27 31 29 28
  23245562.672     3624163.175 6  -3034404.159 4
  22848764.360     8281035.767 6  -9926323.034 4
  22024577.422   -17339202.948 7 -12834882.746 5
  20944504.641   -22263099.771 9 -18403736.803 8
  24267573.838    -4994287.918 5  -4404800.303 2
  24625536.766      520058.786 3   -695365.944 1
  20991242.645   -20903035.190 8 -17009015.840 8
  24369024.895    -9405165.578 5  -5818335.208 1
 94  1 22 21 53  0.0010000  0  8 22 14 19 18 27 31 29 28
  23261473.587     3707778.135 6  -2969249.684 4
  22867282.540     8378338.041 7  -9850503.125 4
  22014728.581   -17390965.727 7 -12875217.378 5
  20935710.859   -22309311.788 8 -18439746.155 8
  24252029.779    -5075963.661 5  -4468443.732 2
  24608660.279      431183.482 5   -764619.321 1
  20993477.418   -20891305.032 8 -16999875.479 8
  24357700.025    -9464740.490 5  -5864757.147 1
 94  1 22 21 53 30.0010000  0  8 22 14 19 18 27 31 29 28
  23277439.814     3791675.632 6  -2903875.073 4
  22885845.329     8475885.621 7  -9774492.078 4
  22004924.858   -17442479.944 7 -12915358.293 5
  20926975.147   -22355214.111 9 -18475514.188 8
  24236504.367    -5157562.572 6  -4532027.196 2
  24591731.868      342324.863 4   -833859.826 1
  20995768.432   -20879247.625 8 -16990480.113 8
  24346415.927    -9524035.549 5  -5910961.042 2
 94  1 22 21 54  0.0010000  0  8 22 14 19 18 27 31 29 28
  23293460.903     3875856.296 6  -2838279.827 4
  22904450.449     8573678.081 6  -9698290.243 4
  21995165.894   -17493761.613 8 -12955317.999 5
  20918297.204   -22400834.014 9 -18511062.166 8
  24220994.454    -5239095.599 5  -4595559.317 2
  24574830.529      253488.349 4   -903083.012 1
  20998124.201   -20866871.250 8 -16980836.168 8
  24335180.545    -9583077.287 5  -5956967.568 2
 94  1 22 21 54 30.0010000  0  8 22 14 19 18 27 31 29 28
  23309529.389     3960313.410 6  -2772469.142 4
  22923107.733     8671693.038 6  -9621915.014 4
  21985444.434   -17544839.591 7 -12995119.007 5
  20909662.582   -22446189.955 9 -18546404.444 8
  24205482.143    -5320542.872 5  -4659024.745 2
  24557941.001      164666.166 5   -972295.077 1
  21000540.768   -20854187.280 8 -16970952.580 8
  24323985.875    -9641873.395 4  -6002782.694 2
 94  1 22 21 55  0.0010000  0  8 22 14 19 18 27 31 29 28
  23325646.471     4045029.866 6  -2706456.391 4
  22941797.904     8769909.537 6  -9545382.732 4
  21975758.409   -17595752.044 7 -13034791.047 5
  20901083.961   -22491283.004 9 -18581541.870 8
  24190015.221    -5401894.711 6  -4722415.738 2
  24541020.565       75837.878 4  -1041511.775 1
  21003012.257   -20841195.110 8 -16960828.822 8
  24312849.694    -9700432.177 5  -6048412.791 2
 94  1 22 21 55 30.0010000  0  8 22 14 19 18 27 31 29 28
  23341827.289     4130010.235 6  -2640237.999 4
  22960519.613     8868309.500 6  -9468707.534 4
  21966099.036   -17646502.803 7 -13074337.051 5
  20892551.957   -22536110.152 9 -18616472.109 8
  24174550.277    -5483152.058 6  -4785733.018 2
  24524129.898      -12994.613 5  -1110731.804 1
  21005546.343   -20827867.481 8 -16950443.673 8
  24301760.401    -9758721.958 4  -6093833.311 2
 94  1 22 21 56  0.0010000  0  8 22 14 19 18 27 31 29 28
  23358045.671     4215248.748 6  -2573818.445 3
  22979274.839     8966869.773 6  -9391907.378 4
  21956466.914   -17697101.374 7 -13113764.509 5
  20884072.927   -22580669.997 9 -18651194.050 8
  24159097.385    -5564298.422 5  -4848963.851 2
  24507229.278     -101821.399 5  -1179947.560 1
  21008153.128   -20814198.933 8 -16939792.861 8
  24290716.257    -9816718.923 4  -6139025.692 2
 94  1 22 21 56 30.0010000  0  8 22 14 19 18 27 31 29 28
  23374308.243     4300740.163 6  -2507201.806 3
  22998062.982     9065594.533 7  -9314979.019 4
  21946871.307   -17747545.070 7 -13153071.251 5
  20875648.549   -22624940.023 9 -18685690.155 8
  24143691.350    -5645328.958 5  -4912104.433 2
  24490330.817     -190632.922 4  -1249151.092 1
  21010821.521   -20800170.422 8 -16928861.557 8
  24279734.859    -9874394.179 4  -6183967.375 2
 94  1 22 21 57  0.0010000  0  8 22 14 19 18 27 31 29 28
  23390629.664     4386483.266 6  -2440389.060 3
  23016881.105     9164496.056 6  -9237912.956 3
  21937305.769   -17797814.608 7 -13192242.299 5
  20867277.414   -22668914.106 9 -18719955.668 8
  24128280.009    -5726271.775 6  -4975176.772 2
  24473427.918     -279418.862 5  -1318334.819 1
  21013560.005   -20785780.523 8 -16917648.666 8
  24268824.572    -9931738.371 5  -6228651.081 2
 94  1 22 21 57 30.0010000  0  8 22 14 19 18 27 31 29 28
  23406991.527     4472492.396 6  -2373369.001 3
  23035740.928     9263589.401 6  -9160697.396 3
  21927778.815   -17847883.872 7 -13231257.283 5
  20858968.007   -22712595.253 9 -18753992.906 8
  24112895.440    -5807128.321 5  -5038181.807 2
  24456535.243     -368156.588 5  -1387480.908 1
  21016363.484   -20771040.826 8 -16906163.205 8
  24257978.531    -9988745.922 5  -6273072.420 2
 94  1 22 21 58  0.0010000  0  8 22 14 19 18 27 31 29 28
  23423417.096     4558773.241 6  -2306137.214 3
  23054641.104     9362897.712 6  -9083314.365 3
  21918293.051   -17897732.179 7 -13270100.110 5
  20850714.691   -22755970.348 9 -18787791.675 8
  24097525.440    -5887887.834 5  -5101111.130 2
  24439674.795     -456821.607 5  -1456570.367 1
  21019231.719   -20755963.192 8 -16894414.414 8
  24247187.202   -10045427.991 4  -6317240.162 2
 94  1 22 21 58 30.0010000  0  8 22 14 19 18 27 31 29 28
  23439887.064     4645350.200 6  -2238674.742 3
  23073582.411     9462442.039 6  -9005747.468 3
  21908851.388   -17947334.985 7 -13308751.636 5
  20842523.701   -22799015.924 9 -18821333.676 8
  24082176.156    -5968559.310 6  -5163971.933 2
  24422804.155     -545417.774 5  -1525606.223 1
  21022166.987   -20740537.352 8 -16882394.288 8
  24236472.349   -10101785.530 5  -6361154.993 2
 94  1 22 21 59  0.0010000  0  8 22 14 19 18 27 31 29 28
  23456418.010     4732226.327 6  -2170979.106 3
  23092571.296     9562212.437 6  -8928004.351 3
  21899460.959   -17996689.231 7 -13347209.443 5
  20834393.150   -22841738.758 9 -18854624.176 8
  24066836.106    -6049141.070 5  -5226762.797 2
  24405959.116     -633958.966 5  -1594599.130 2
  21025164.012   -20724779.012 8 -16870115.072 8
  24225808.522   -10157824.903 5  -6404821.916 2
 94  1 22 21 59 30.0010000  0  8 22 14 19 18 27 31 29 28
  23473001.209     4819379.137 6  -2103067.869 3
  23111585.872     9662189.704 6  -8850100.046 3
  21890109.413   -18045822.397 7 -13385495.013 5
  20826324.236   -22884147.525 9 -18887669.975 8
  24051528.283    -6129617.982 5  -5289472.098 2
  24389126.039     -722461.750 6  -1663562.239 1
  21028227.051   -20708690.949 8 -16857578.936 8
  24215205.222   -10213555.311 5  -6448248.076 2
 94  1 22 22  0  0.0010000  0  8 22 14 19 18 27 31 29 28
  23489640.620     4906790.815 6  -2034954.940 3
  23130646.617     9762356.599 6  -8772047.978 3
  21880800.467   -18094749.382 8 -13423619.930 5
  20818316.659   -22926232.321 9 -18920463.307 8
  24036233.262    -6209991.113 5  -5352100.349 2
  24372271.438     -810941.014 4  -1732506.951 2
  21031352.058   -20692262.299 8 -16844777.404 8
  24204648.870   -10268982.435 5  -6491437.895 2
 94  1 22 22  0 30.0010000  0  8 22 14 19 18 27 31 29 28
  23506320.233     4994443.668 6  -1966654.068 3
  23149742.647     9862689.340 6  -8693866.664 3
  21871526.297   -18143492.069 8 -13461601.204 5
  20810364.814   -22968013.702 9 -18953020.219 8
  24020957.337    -6290264.473 5  -5414650.936 2
  24355459.976     -899403.809 6  -1801438.918 1
  21034544.848   -20675492.530 8 -16831710.055 8
  24194157.483   -10324110.334 5  -6534394.588 2
 94  1 22 22  1  0.0010000  0  8 22 14 19 18 27 31 29 28
  23523039.898     5082301.599 6  -1898193.413 3
  23168866.647     9963181.388 6  -8615561.198 3
  21862285.765   -18192060.745 8 -13499446.917 5
  20802466.992   -23009516.791 9 -18985360.277 8
  24005705.126    -6370427.962 5  -5477115.914 2
  24338617.636     -987836.160 5  -1870347.164 1
  21037800.474   -20658377.280 8 -16818373.499 8
  24183729.472   -10378931.532 5  -6577112.258 2
 94  1 22 22  1 30.0010000  0  8 22 14 19 18 27 31 29 28
  23539796.408     5170372.172 6  -1829567.036 3
  23188022.516    10063839.059 6  -8537126.769 3
  21853075.541   -18240446.419 8 -13537150.038 5
  20794623.282   -23050728.791 9 -19017473.525 8
  23990469.793    -6450479.041 5  -5539493.259 2
  24321802.966    -1076211.621 5  -1939211.042 1
  21041126.971   -20640901.798 8 -16804756.258 8
  24173355.424   -10433432.480 5  -6619580.517 2
 94  1 22 22  2  0.0010000  0  8 22 14 19 18 27 31 29 28
  23556605.621     5258683.049 6  -1760753.468 3
  23207212.561    10164674.368 6  -8458553.871 3
  21843911.545   -18288608.201 8 -13574678.666 6
  20786838.691   -23091626.922 9 -19049342.196 8
  23975257.185    -6530419.243 5  -5601784.283 2
  24305001.008    -1164507.435 5  -2008012.901 1
  21044524.159   -20623052.771 8 -16790847.952 8
  24163056.774   -10487585.453 5  -6661777.526 2
 94  1 22 22  2 30.0010000  0  8 22 14 19 18 27 31 29 28
  23573458.634     5347240.090 6  -1691747.992 3
  23226438.072    10265706.246 6  -8379827.772 3
  21834792.218   -18336531.943 8 -13612021.818 6
  20779118.945   -23132206.668 9 -19080962.770 8
  23960064.303    -6610245.621 6  -5663986.638 2
  24288218.176    -1252707.358 5  -2076740.034 1
  21047992.758   -20604824.632 8 -16776644.210 8
  24152824.587   -10541366.992 5  -6703685.167 2
 94  1 22 22  3  0.0010000  0  8 22 14 19 18 27 31 29 28
  23590360.064     5436071.969 6  -1622528.375 3
  23245707.052    10366949.121 6  -8300937.318 3
  21825718.759   -18384193.812 8 -13649160.922 6
  20771463.595   -23172426.762 8 -19112303.098 8
  23944901.460    -6689937.518 6  -5726084.128 2
  24271457.290    -1340789.994 5  -2145375.816 1
  21051533.607   -20586203.444 8 -16762134.223 8
  24142660.784   -10594737.967 5  -6745272.875 2
 94  1 22 22  3 30.0010000  0  8 22 14 19 18 27 31 29 28
  23607325.409     5525202.308 6  -1553076.251 2
  23265005.232    10468395.511 6  -8221888.185 3
  21816702.021   -18431581.818 8 -13686086.617 6
  20763887.450   -23212260.121 9 -19143342.071 8
  23929760.681    -6769493.043 6  -5788075.379 2
  24254716.129    -1428745.580 4  -2213912.684 1
  21055152.881   -20567189.698 8 -16747318.334 8
  24132589.346   -10647695.185 5  -6786538.253 2
 94  1 22 22  4  0.0010000  0  7 22 14 19 18 27 29 28
  23624340.010     5614635.156 6  -1483388.363 3
  23284355.876    10570061.902 6  -8142667.758 3
  21807740.056   -18478686.163 8 -13722791.258 6
  20756382.505   -23251686.359 9 -19174063.808 8
  23914661.245    -6848880.794 6  -5849936.000 2
  21058853.279   -20547755.197 8 -16732174.562 7
  24122590.278   -10700230.553 5  -6827474.873 2
 94  1 22 22  4 30.0010000  0  8 22 14 19 18 27 31 29 28
  23641413.310     5704380.289 6  -1413457.141 3
  23303745.912    10671963.249 6  -8063264.159 3
  21798828.695   -18525508.198 8 -13759275.955 6
  20748958.895   -23290693.774 9 -19204459.182 8
  23899593.226    -6928059.474 6  -5911633.595 2
  24221336.997     2826822.95415    -70038.332
  21062633.962   -20527883.043 8 -16716689.772 7
  24112676.022   -10752327.329 5  -6868069.724 2
 94  1 22 22  5  0.0010000  0  8 22 14 19 18 27 31 29 28
  23658553.314     5794460.942 6  -1343264.516 3
  23323176.691    10774098.945 6  -7983677.895 3
  21789976.243   -18572029.130 8 -13795526.004 6
  20741620.605   -23329262.530 9 -19234512.757 8
  23884555.876    -7007015.270 5  -5973157.530 2
  24204708.289     2739411.475 5   -138151.060
  21066499.726   -20507556.315 8 -16700850.806 7
  24102846.307   -10803972.688 5  -6908312.856 2
 94  1 22 22  5 30.0010000  0  8 22 14 19 18 27 31 29 28
  23675759.393     5884871.496 5  -1272814.827 3
  23342664.070    10876476.074 6  -7903903.620 2
  21781182.551   -18618248.938 8 -13831541.394 6
  20734362.060   -23367398.176 9 -19264228.830 8
  23869581.393    -7085744.172 6  -6034504.738 2
  24188110.669     2652205.256 5   -206103.831 1
  21070454.558   -20486756.481 8 -16684643.134 7
  24093104.251   -10855188.314 5  -6948221.188 2
 94  1 22 22  6  0.0010000  0  8 22 14 19 18 27 31 29 28
  23693022.342     5975599.303 5  -1202117.897 3
  23362195.069    10979094.157 6  -7823941.552 2
  21772439.464   -18664193.567 8 -13867342.397 6
  20727190.125   -23405103.885 9 -19293609.892 8
  23854639.737    -7164262.740 6  -6095687.978 2
  24171558.378     2565196.265 5   -273903.141
  21074505.204   -20465493.788 8 -16668074.845 7
  24083442.839   -10905972.155 5  -6987792.973 2
 94  1 22 22  6 30.0010000  0  8 22 14 19 18 27 31 29 28
  23710351.875     6066632.626 6  -1131182.880 3
  23381758.116    11081935.871 6  -7743805.201 2
  21763745.692   -18709875.903 8 -13902938.987 6
  20720089.211   -23442401.981 9 -19322673.341 8
  23839732.676    -7242603.559 6  -6156732.705 2
  24155029.801     2478348.796 5   -341576.416 1
  21078634.425   -20443798.000 8 -16651169.044 7
  24073858.415   -10956331.489 5  -7027034.010 2
 94  1 22 22  7  0.0010000  0  8 22 14 19 18 27 31 29 28
  23727725.118     6157939.786 6  -1060034.535 3
  23401371.138    11184985.383 6  -7663506.961 2
  21755096.620   -18755313.010 8 -13938344.506 6
  20713070.350   -23479299.288 8 -19351424.475 8
  23824855.865    -7320802.827 6  -6217667.135 2
  24138526.496     2391639.083 5   -409142.421 1
  21082843.871   -20421675.821 8 -16633930.999 7
  24064342.282   -11006296.388 5  -7065967.695 2
 94  1 22 22  7 30.0010000  0  8 22 14 19 18 27 31 29 28
  23745145.188     6249480.351 6   -988704.233 3
  23421015.308    11288238.114 6  -7583050.358 2
  21746496.714   -18800527.117 8 -13973576.246 6
  20706121.251   -23515808.350 9 -19379873.103 8
  23809994.044    -7398864.402 6  -6278494.287 2
  24122054.789     2305071.012 5   -476597.992 1
  21087134.261   -20399140.865 8 -16616371.302 7
  24054912.191   -11055879.783 5  -7104604.045 2
 94  1 22 22  8  0.0010000  0  8 22 14 19 18 27 31 29 28
  23762612.446     6341246.414 6   -917198.293 3
  23440707.956    11391710.754 6  -7502422.424 2
  21737939.168   -18845499.341 8 -14008619.541 6
  20699248.359   -23551920.523 9 -19408012.446 8
  23795165.859    -7476786.564 6  -6339212.834 2
  24105611.472     2218653.584 5   -543936.181 1
  21091497.200   -20376200.802 8 -16598495.947 7
  24045548.983   -11105051.977 5  -7142920.051 2
 94  1 22 22  8 30.0010000  0  8 22 14 19 18 27 31 29 28
  23780111.931     6433227.691 6   -845524.621 2
  23460436.608    11495395.538 6  -7421629.132 2
  21729425.572   -18890211.833 8 -14043460.426 6
  20692450.385   -23587654.878 9 -19435857.402 9
  23780374.010    -7554557.402 6  -6399813.402 2
  24089192.139     2132378.792 5   -611163.275 1
  21095938.626   -20352858.538 8 -16580307.190 7
  24036272.205   -11153823.000 5  -7180923.415 2
 94  1 22 22  9  0.0010000  0  8 22 14 19 18 27 31 29 28
  23797658.124     6525424.101 6   -773683.306 3
  23480208.670    11599280.371 6  -7340680.003 2
  21720969.056   -18934661.550 8 -14078096.526 6
  20685722.892   -23623005.536 9 -19463404.148 9
  23765596.610    -7632173.669 5  -6460293.592 2
  24072802.186     2046262.197 5   -678267.056 1
  21100457.907   -20329116.649 8 -16561807.035 7
  24027064.979   -11202190.444 5  -7218612.335 2
 94  1 22 22  9 30.0010000  0  8 22 14 19 18 27 31 29 28
  23815247.877     6617861.018 6   -701654.598 3
  23500008.792    11703354.053 6  -7259583.700 2
  21712558.678   -18978846.106 8 -14112526.040 6
  20679064.891   -23657984.571 8 -19490659.746 9
  23750857.194    -7709637.376 6  -6520654.891 2
  24056439.364     1960310.927 5   -745242.041 1
  21105046.560   -20304989.713 8 -16543006.843 7
  24017946.132   -11250135.132 5  -7255971.806 2
 94  1 22 22 10  0.0010000  0  8 22 14 19 18 27 31 29 28
  23832890.423     6710578.287 6   -629407.452 3
  23519858.501    11807618.929 6  -7178338.395 2
  21704204.812   -19022757.641 8 -14146742.806 6
  20672481.959   -23692582.542 8 -19517619.192 9
  23736148.716    -7786952.221 6  -6580900.185 2
  24040121.690     1874519.201 6   -812092.650 1
  21109717.956   -20280470.780 8 -16523901.200 7
  24008910.027   -11297646.311 5  -7292993.477 2
 94  1 22 22 10 30.0010000  0  8 22 14 19 18 27 31 29 28
  23850593.138     6803602.349 6   -556921.201 3
  23539724.698    11912046.958 6  -7096965.957 2
  21695902.839   -19066397.441 8 -14180747.830 6
  20665972.685   -23726793.803 8 -19544277.313 9
  23721465.541    -7864114.715 6  -6641026.742 2
  24023826.711     1788896.267 5   -878811.770 1
  21114458.814   -20255543.023 8 -16504477.003 7
  23999953.788   -11344719.560 5  -7329673.896 2
 94  1 22 22 11  0.0010000  0  8 22 14 19 18 27 31 29 28
  23868350.565     6896931.733 6   -484197.081 3
  23559626.390    12016621.584 6  -7015479.332 2
  21687647.364   -19109775.689 8 -14214549.039 6
  20659538.809   -23760605.066 9 -19570623.743 9
  23706805.990    -7941135.724 6  -6701043.088 2
  24007563.300     1703447.198 5   -945395.392 1
  21119282.865   -20230192.680 8 -16484723.501 7
  23991074.055   -11391347.409 5  -7366007.245 2
 94  1 22 22 11 30.0010000  0  8 22 14 19 18 27 31 29 28
  23886170.019     6990562.584 6   -411238.068 3
  23579556.593    12121354.168 6  -6933869.601 2
  21679442.974   -19152891.845 8 -14248146.038 6
  20653182.130   -23794006.970 9 -19596651.187 9
  23692177.917    -8018008.925 6  -6760944.242 2
  23991337.752     1618170.783 6  -1011844.506 1
  21124190.527   -20204403.712 8 -16464628.221 7
  23982287.738   -11437519.526 5  -7401985.495 2
 94  1 22 22 12  0.0010000  0  8 22 14 19 18 27 31 29 28
  23904038.638     7084467.287 6   -338065.627 3
  23599517.044    12226253.775 6  -6852129.731 2
  21671290.838   -19195734.659 8 -14281530.035 6
  20646907.953   -23826980.799 8 -19622345.073 9
  23677574.037    -8094717.416 6  -6820717.029 3
  23975147.311     1533077.617 5  -1078150.763 2
  21129185.579   -20178150.117 8 -16444170.877 7
  23973582.035   -11483232.394 5  -7437605.891 2
 94  1 22 22 12 30.0010000  0  8 22 14 19 18 27 31 29 28
  23921948.450     7178609.668 6   -264707.997 3
  23619511.732    12331308.474 6  -6770268.992 2
  21663190.146   -19238304.397 8 -14314701.237 6
  20640713.042   -23859528.168 8 -19647706.652 9
  23663020.792    -8171252.190 6  -6880354.450 2
  23958987.328     1448177.183 5  -1144306.850 2
  21134270.749   -20151438.253 8 -16423356.451 7
  23964977.002   -11528487.705 5  -7472869.707 2
 94  1 22 22 13  0.0010000  0  8 22 14 19 18 27 31 29 28
  23939906.767     7272969.560 6   -191180.882 2
  23639539.457    12436541.788 6  -6688269.088 2
  21655139.999   -19280610.850 8 -14347667.313 6
  20634602.192   -23891643.202 8 -19672731.339 9
  23648484.305    -8247609.414 6  -6939853.560 2
  23942864.999     1363480.728 5  -1210303.969 2
  21139432.545   -20124287.903 8 -16402200.354 7
  23956447.606   -11573296.111 5  -7507785.312 2
 94  1 22 22 13 30.0010000  0  8 22 14 19 18 27 31 29 28
  23957905.107     7367537.607 6   -117491.557 2
  23659598.841    12541968.804 6  -6606118.198 2
  21647133.861   -19322654.668 8 -14380428.716 6
  20628572.856   -23923326.835 8 -19697419.880 9
  23633986.252    -8323782.175 6  -6999208.884 2
  23926800.771     1279003.841 5  -1276130.126 1
  21144683.320   -20096707.388 8 -16380709.052 7
  23948008.599   -11617659.085 5  -7542353.822 2
 94  1 22 22 14  0.0010000  0  8 22 14 19 18 27 31 29 28
  23975943.650     7462318.846 6    -43636.145 2
  23679699.085    12647583.476 6  -6523821.144 2
  21639188.012   -19364435.602 8 -14412985.255 6
  20622629.321   -23954576.115 8 -19721769.952 9
  23619527.861    -8399765.191 6  -7058416.351 2
  23910758.816     1194760.637 5  -1341774.150 1
  21150008.983   -20068703.775 8 -16358888.070 7
  23939647.927   -11661575.597 5  -7576574.466 2
 94  1 22 22 14 30.0010000  0  8 22 14 19 18 27 31 29 28
  23994023.503     7557334.476 6     30401.972 2
  23699822.984    12753378.945 6  -6441383.177 2
  21631283.504   -19405959.949 8 -14445341.879 6
  20616764.811   -23985392.295 8 -19745782.552 9
  23605103.827    -8475563.383 6  -7117479.785 2
  23894775.201     1110757.725 5  -1407230.850 1
  21155418.828   -20040300.839 8 -16336755.925 7
  23931380.430   -11705045.918 5  -7610447.415 2
 94  1 22 22 15  0.0010000  0  8 22 14 19 18 27 31 29 28
  24012141.760     7652583.288 6    104621.784 2
  23719996.528    12859341.222 6  -6358815.215 2
  21623426.693   -19447247.393 8 -14477513.911 6
  20610980.195   -24015786.924 9 -19769466.667 9
  23590715.468    -8551195.933 6  -7176414.265 2
  23878844.530     1026982.349 5  -1472510.238 2
  21160900.114   -20011488.268 8 -16314304.599 7
  23923189.620   -11748075.784 5  -7643977.156 2
 94  1 22 22 15 30.0010000  0  8 22 14 19 18 27 31 29 28
  24030320.455     7748070.664 6    179027.471 2
  23740185.032    12965457.960 6  -6276126.964 2
  21615614.701   -19488299.336 8 -14509502.421 6
  20605275.115   -24045770.714 9 -19792830.656 9
  23576354.270    -8626660.143 6  -7235217.482 2
  23862933.975      943425.189 5  -1537619.719 1
  21166463.093   -19982257.867 8 -16291527.691 7
  23915092.616   -11790648.305 5  -7677150.540 2
 94  1 22 22 16  0.0010000  0  8 22 14 19 18 27 31 29 28
  24048536.385     7843805.552 6    253626.046 2
  23760394.191    13071713.092 6  -6193330.820 2
  21607853.644   -19529114.332 8 -14541306.298 6
  20599645.342   -24075353.231 8 -19815881.969 9
  23562028.237    -8701958.956 6  -7293891.780 2
  23847071.026      860075.990 5  -1602567.030 1
  21172102.668   -19952617.536 8 -16268431.328 7
  23907078.894   -11832757.796 5  -7709963.061 2
 94  1 22 22 16 30.0010000  0  8 22 14 19 18 27 31 29 28
  24066804.988     7939772.194 6    328405.184 2
  23780648.470    13178092.265 6  -6110438.034 2
  21600127.483   -19569697.005 8 -14572929.156 6
  20594091.657   -24104538.392 9 -19838623.634 9
  23547720.822    -8777095.473 6  -7352439.651 2
  23831256.644      776928.504 5  -1667357.181 1
  21177823.278   -19922566.229 8 -16245014.758 7
  23899154.809   -11874405.955 5  -7742416.223 2
 94  1 22 22 17  0.0010000  0  8 22 14 19 18 27 31 29 28
  24085095.535     8035943.560 6    403343.844 2
  23800918.907    13284597.434 6  -6027447.083 3
  21592451.177   -19610043.795 8 -14604368.179 6
  20588613.549   -24133328.183 8 -19861057.240 9
  23533462.183    -8852076.884 6  -7410866.704 2
  23815460.160      693969.402 5  -1732000.609 2
  21183621.474   -19892088.986 8 -16221266.272 7
  23891307.202   -11915589.801 5  -7774507.556 2
 94  1 22 22 17 30.0010000  0  8 22 14 19 18 27 31 29 28
  24103438.307     8132314.337 5    478437.920 2
  23821205.623    13391222.730 6  -5944362.522 3
  21584818.341   -19650141.319 8 -14635612.981 6
  20583211.799   -24161715.247 8 -19883177.020 9
  23519219.463    -8926910.307 6  -7469178.413 2
  23799722.075      611205.902 5  -1796491.532 2
  21189494.828   -19861203.342 8 -16197199.547 7
  23883565.692   -11956306.430 5  -7806234.749 2
 94  1 22 22 18  0.0010000  0  8 22 14 19 18 27 31 29 28
  24121815.704     8228875.872 5    553680.554 2
  23841518.990    13497958.470 5  -5861191.881 3
  21577238.029   -19689983.170 8 -14666658.566 6
  20577887.635   -24189676.394 9 -19904964.921 9
  23505007.712    -9001610.989 6  -7527386.664 2
  23784003.507      528653.287 6  -1860818.169 2
  21195457.910   -19829886.378 8 -16172796.745 7
  23875904.765   -11996559.289 5  -7837600.587 2
 94  1 22 22 18 30.0010000  0  8 22 14 19 18 27 31 29 28
  24140223.111     8325613.897 5    629060.761 2
  23861854.752    13604801.815 5  -5777937.446 2
  21569703.045   -19729583.359 8 -14697515.832 6
  20572650.800   -24217203.615 9 -19926414.700 9
  23490805.074    -9076199.459 6  -7585507.473 2
  23768339.771      446305.574 6  -1924985.193 2
  21201502.325   -19798135.992 8 -16148056.196 7
  23868336.175   -12036353.360 5  -7868608.940 2
 94  1 22 22 19  0.0010000  0  8 22 14 19 18 27 31 29 28
  24158665.144     8422522.681 5    704574.059 2
  23882201.366    13711744.863 5  -5694605.267 2
  21562211.891   -19768951.475 8 -14728192.265 6
  20567490.023   -24244317.265 9 -19947542.219 9
  23476635.923    -9150692.629 6  -7643554.073 2
  23752705.774      364156.215 5  -1988997.562 2
  21207625.077   -19765971.539 8 -16122993.013 7
  23860837.376   -12075702.125 5  -7899270.348 2
 94  1 22 22 19 30.0010000  0  8 22 14 19 18 27 31 29 28
  24177139.315     8519606.943 5    780224.042 2
  23902560.512    13818761.803 5  -5611215.538 2
  21554760.460   -19808101.271 8 -14758698.584 6
  20562408.661   -24271028.794 9 -19968356.398 9
  23462477.925    -9225081.600 6  -7701519.478 2
  23737114.348      282213.086 6  -2052849.291 2
  21213819.119   -19733407.314 8 -16097618.317 7
  23853438.858   -12114604.286 5  -7929583.685 2
 94  1 22 22 20  0.0010000  0  8 22 14 19 18 27 31 29 28
  24195643.315     8616853.720 5    856000.642 2
  23922941.902    13925857.896 5  -5527764.095 2
  21547349.530   -19847040.024 8 -14789040.456 6
  20557398.679   -24297350.010 8 -19988866.416 9
  23448344.659    -9299346.704 6  -7759388.301 3
  23721559.226      200469.100 5  -2116545.834 2
  21220091.376   -19700454.758 8 -16071940.999 7
  23846125.841   -12153064.842 5  -7959552.948 2
 94  1 22 22 20 30.0010000  0  8 22 14 19 18 27 31 29 28
  24214173.996     8714251.733 5    931895.108 3
  23943344.038    14033041.753 6  -5444244.277 2
  21539978.713   -19885767.556 8 -14819217.725 6
  20552463.915   -24323299.615 8 -20009086.884 9
  23434239.424    -9373471.868 6  -7817148.127 2
  23706041.009      118906.746 6  -2180100.905 2
  21226430.278   -19667141.803 8 -16045982.885 7
  23838889.750   -12191088.264 5  -7989181.591 2
 94  1 22 22 21  0.0010000  0  8 22 14 19 18 27 31 29 28
  24232740.683     8811782.780 5   1007893.229 3
  23963748.182    14140301.495 6  -5360665.357 2
  21532650.676   -19924285.237 8 -14849231.485 6
  20547592.738   -24348885.429 9 -20029023.877 9
  23420170.943    -9447444.260 6  -7874788.906 2
  23690552.382       37526.175 6  -2243514.206 2
  21232834.295   -19633469.580 8 -16019744.807 6
  23831732.175   -12228681.614 5  -8018475.087 2
 94  1 22 22 21 30.0010000  0  8 22 14 19 18 27 31 29 28
  24251315.254     8909441.976 5   1083991.234 3
  23984176.070    14247642.185 5  -5277023.331 2
  21525357.835   -19962601.915 8 -14879088.641 6
  20542794.499   -24374097.346 9 -20048669.530 9
  23406112.176    -9521268.535 6  -7932314.291 2
  23675100.509      -43673.376 5  -2306786.467 2
  21239313.679   -19599429.431 8 -15993220.024 6
  23824671.763   -12265839.376 5  -8047429.174 2
 94  1 22 22 22  0.0010000  0  8 22 14 19 18 27 31 29 28
  24269931.796     9007259.441 6   1160212.549 3
  24004625.514    14355099.360 5  -5193290.555 2
  21518110.532   -20000697.752 8 -14908773.705 6
  20538071.809   -24398906.251 8 -20068001.139 9
  23392097.688    -9594946.750 6  -7989725.796 2
  23659678.375     -124672.790 4  -2369902.842 2
  21245866.093   -19565004.280 8 -15966395.263 6
  23817682.492   -12302555.358 6  -8076039.020 2
 94  1 22 22 22 30.0010000  0  8 22 14 19 18 27 31 29 28
  24288587.761     9105265.538 6   1236580.835 3
  24025092.824    14462667.575 5  -5109471.236 2
  21510903.341   -20038571.212 8 -14938285.473 6
  20533433.450   -24423292.260 9 -20087003.231 9
  23378099.838    -9668487.634 6  -8047030.325 2
  23644309.335     -205449.372 4  -2432845.592 2
  21252490.907   -19530162.396 8 -15939245.748 7
  23810778.901   -12338806.750 5  -8104286.785 2
 94  1 22 22 23  0.0010000  0  8 22 14 19 18 27 31 29 28
  24307274.334     9203483.402 6   1313114.174 3
  24045581.810    14570344.497 5  -5025567.221 2
  21503739.321   -20076220.692 8 -14967622.710 6
  20528880.562   -24447234.008 9 -20105659.139 9
  23364129.839    -9741889.546 6  -8104226.632 2
  23628987.512     -285964.920 5  -2495584.899 2
  21259206.947   -19494884.094 8 -15911756.191 7
  23803970.164   -12374576.869 5  -8132159.595 2
 94  1 22 22 23 30.0010000  0  8 22 14 19 18 27 31 29 28
  24326005.067     9301934.812 6   1389829.537 2
  24066101.764    14678144.229 5  -4941567.466 2
  21496620.719   -20113630.938 8 -14996773.543 6
  20524407.928   -24470720.243 9 -20123960.089 9
  23350191.349    -9815152.317 6  -8161314.415 2
  23613723.100     -366203.847 5  -2558108.646 2
  21266006.660   -19459165.203 8 -15883923.273 7
  23797254.484   -12409852.428 5  -8159647.017 2
 94  1 22 22 24  0.0010000  0  8 22 14 19 18 27 31 29 28
  24344790.512     9400614.276 6   1466722.484 2
  24086635.749    14786066.628 5  -4857472.239 2
  21489548.105   -20150788.497 8 -15025727.474 6
  20520026.491   -24493737.054 9 -20141895.269 9
  23336276.842    -9888264.146 6  -8218284.632 2
  23598510.491     -446152.573 5  -2620406.254 2
  21272885.308   -19423000.709 8 -15855743.186 7
  23790642.561   -12444627.573 5  -8186744.503 2
 94  1 22 22 24 30.0010000  0  8 22 14 19 18 27 31 29 28
  24363597.962     9499488.241 6   1543767.096 2
  24107195.486    14894098.294 5  -4773291.777 2
  21482523.099   -20187699.913 8 -15054489.617 6
  20515736.221   -24516282.942 9 -20159463.484 9
  23322397.050    -9961213.538 6  -8275128.297 2
  23583345.969     -525804.733 5  -2682472.767 2
  21279853.714   -19386383.752 8 -15827210.525 7
  23784117.218   -12478892.986 5  -8213444.722 2
 94  1 22 22 25  0.0010000  0  8 22 14 19 18 27 31 29 28
  24382452.569     9598544.177 6   1620953.445 2
  24127777.617    15002246.341 5  -4689020.647 2
  21475551.785   -20224355.239 8 -15083052.214 6
  20511535.709   -24538363.380 8 -20176669.024 9
  23308549.757   -10033990.023 6  -8331837.246 2
  23568254.417     -605155.287 5  -2744304.294 2
  21286906.721   -19349326.312 8 -15798334.607 7
  23777696.923   -12512647.390 5  -8239746.787 2
 94  1 22 22 25 30.0010000  0  8 22 14 19 18 27 31 29 28
  24401331.969     9697767.825 6   1698270.472 2
  24148365.654    15110506.932 5  -4604661.883 2
  21468622.592   -20260751.203 8 -15111412.692 6
  20507421.537   -24559985.090 8 -20193517.105 9
  23294735.500   -10106589.825 6  -8388408.467 2
  23553213.769     -684211.845 5  -2805906.760 2
  21294041.092   -19311831.661 8 -15769118.032 7
  23771369.024   -12545895.319 5  -8265654.213 2
 94  1 22 22 26  0.0000000  0  8 22 14 19 18 27 31 29 28
  24420239.280     9797134.490 6   1775698.982 2
  24168989.757    15218850.516 4  -4520238.358 2
  21461741.126   -20296899.694 8 -15139580.347 6
  20503387.770   -24581156.901 8 -20210014.610 9
  23280946.126   -10179013.650 6  -8444842.639 2
  23538217.371     -762957.882 5  -2867267.242 2
  21301257.756   -19273908.329 8 -15739567.418 7
  23765135.409   -12578642.760 5  -8291171.636 2
 94  1 22 22 26 30.0000000  0  8 22 14 19 18 27 31 29 28
  24439185.234     9896653.348 6   1853246.062 2
  24189622.433    15327258.734 5  -4435764.568 2
  21454912.543   -20332809.898 8 -15167562.329 6
  20499446.279   -24601897.497 8 -20226176.121 9
  23267203.940   -10251275.980 6  -8501150.895 3
  23523300.688     -841406.887 6  -2928396.250 2
  21308553.266   -19235562.162 8 -15709687.310 6
  23759001.835   -12610901.524 6  -8316308.256 2
 94  1 22 22 27  0.0000000  0  8 22 14 19 18 27 31 29 28
  24458151.604     9996324.141 6   1930911.564 2
  24210268.810    15435719.542 5  -4351249.726 2
  21448126.921   -20368471.821 8 -15195350.813 6
  20495578.596   -24622211.979 8 -20242005.569 9
  23253480.281   -10323386.354 6  -8557340.755 3
  23508422.768     -919561.988 6  -2989296.227 2
  21315929.269   -19196807.692 8 -15679489.054 6
  23752952.683   -12642683.050 5  -8341072.989 2
 94  1 22 22 27 30.0000000  0  8 22 14 19 18 27 31 29 28
  24477135.722    10096126.547 5   2008679.608 2
  24230906.343    15544215.884 4  -4266707.244 2
  21441386.357   -20403893.527 8 -15222952.150 7
  20491796.834   -24642097.720 9 -20257500.945 9
  23239783.902   -10395360.968 6  -8613424.800 2
  23493609.962     -997431.095 6  -3049973.382 2
  21323380.401   -19157654.633 8 -15648980.205 6
  23746985.494   -12674002.000 5  -8365477.320 2
 94  1 22 22 28  0.0000000  0  8 22 14 19 18 27 31 29 28
  24496161.240    10196074.779 5   2086561.273 2
  24251562.043    15652753.896 5  -4182132.315 2
  21434689.833   -20439073.931 8 -15250365.450 7
  20488093.498   -24661541.255 8 -20272651.734 9
  23226110.039   -10467196.746 6  -8669400.758 2
  23478831.873    -1075017.410 5  -3110430.221 2
  21330910.588   -19118093.121 8 -15618153.067 6
  23741123.892   -12704841.645 6  -8389508.148 2
 94  1 22 22 28 30.0000000  0  8 22 14 19 18 27 31 29 28
  24515208.584    10296188.336 5   2164571.775 2
  24272232.343    15761365.655 5  -4097499.798 2
  21428041.665   -20473999.130 8 -15277579.891 7
  20484482.378   -24680525.226 8 -20287444.426 9
  23212468.522   -10538885.417 6  -8725261.985 2
  23464126.813    -1152331.775 6  -3170675.090 2
  21338525.856   -19078105.516 8 -15586993.932 6
  23735347.311   -12735180.683 5  -8413148.915 2
 94  1 22 22 29  0.0000000  0  8 22 14 19 18 27 31 29 28
  24534288.635    10396455.995 5   2242702.334 2
  24292913.076    15870065.281 5  -4012798.967 2
  21421449.109   -20508660.076 8 -15304588.412 7
  20480962.395   -24699039.793 8 -20301871.365 9
  23198854.167   -10610414.019 6  -8780998.488 2
  23449466.062    -1229357.211 6  -3230694.885 2
  21346208.367   -19037685.828 8 -15555498.091 6
  23729682.493   -12764997.891 5  -8436383.085 2
 94  1 22 22 29 30.0000000  0  8 22 14 19 18 27 31 29 28
  24553402.773    10496891.272 5   2320963.453 2
  24313615.724    15978873.131 5  -3928013.692 2
  21414903.471   -20543046.438 8 -15331382.987 7
  20477532.050   -24717064.642 8 -20315916.693 9
  23185280.764   -10681753.887 6  -8836587.956 2
  23434869.378    -1306077.692 6  -3290477.032 2
  21353985.434   -18996806.827 8 -15523644.343 6
  23724109.291   -12794265.504 5  -8459188.954 2
 94  1 22 22 30  0.0000000  0  8 22 14 19 18 27 31 29 28
  24572553.755    10597516.201 5   2399372.467 2
  24334344.754    16087804.674 5  -3843132.061 2
  21408418.450   -20577142.703 8 -15357951.482 7
  20474195.030   -24734585.028 8 -20329568.942 9
  23171750.141   -10752886.637 6  -8892016.092 2
  23420330.013    -1382487.941 6  -3350017.436 2
  21361858.673   -18955449.506 8 -15491417.856 6
  23718648.631   -12822961.553 5  -8481549.529 2
